<?xml version="1.0" encoding="UTF-8" standalone="no" ?>
<gpx xmlns="http://www.topografix.com/GPX/1/1" xmlns:xsi="http://www.w3.org/2001/XMLSchema-instance" xsi:schemaLocation="http://www.topografix.com/GPX/1/1 http://www.topografix.com/GPX/1/1/gpx.xsd" version="1.1" creator="VisuGPX - https://www.visugpx.com">
  <metadata>
    <name>plessis macé/ soulaire </name>
    <desc><![CDATA[rando sympas beaucoup de chemin pas trop dénivelé]]></desc>
  </metadata>
  <trk>
    <name><![CDATA[17-NOV-13 12:05:26]]></name>
    <trkseg>
      <trkpt lat="47.54404" lon="-0.67387">
        <ele>72.24</ele>
        <time>2013-11-17T07:41:04Z</time>
      </trkpt>
      <trkpt lat="47.54403" lon="-0.67387">
        <ele>72.24</ele>
        <time>2013-11-17T07:41:05Z</time>
      </trkpt>
      <trkpt lat="47.54401" lon="-0.67391">
        <ele>75.6</ele>
        <time>2013-11-17T07:41:12Z</time>
      </trkpt>
      <trkpt lat="47.54401" lon="-0.67391">
        <ele>75.6</ele>
        <time>2013-11-17T07:41:13Z</time>
      </trkpt>
      <trkpt lat="47.544" lon="-0.67389">
        <ele>77.04</ele>
        <time>2013-11-17T07:41:16Z</time>
      </trkpt>
      <trkpt lat="47.54398" lon="-0.67389">
        <ele>80.41</ele>
        <time>2013-11-17T07:41:21Z</time>
      </trkpt>
      <trkpt lat="47.54396" lon="-0.67387">
        <ele>76.56</ele>
        <time>2013-11-17T07:41:30Z</time>
      </trkpt>
      <trkpt lat="47.54396" lon="-0.67385">
        <ele>78.97</ele>
        <time>2013-11-17T07:41:38Z</time>
      </trkpt>
      <trkpt lat="47.54396" lon="-0.67385">
        <ele>78.97</ele>
        <time>2013-11-17T07:41:56Z</time>
      </trkpt>
      <trkpt lat="47.54394" lon="-0.67387">
        <ele>77.04</ele>
        <time>2013-11-17T07:42:07Z</time>
      </trkpt>
      <trkpt lat="47.54395" lon="-0.67388">
        <ele>79.45</ele>
        <time>2013-11-17T07:42:16Z</time>
      </trkpt>
      <trkpt lat="47.54394" lon="-0.67384">
        <ele>72.24</ele>
        <time>2013-11-17T07:42:32Z</time>
      </trkpt>
      <trkpt lat="47.54394" lon="-0.67384">
        <ele>79.45</ele>
        <time>2013-11-17T07:42:33Z</time>
      </trkpt>
      <trkpt lat="47.54394" lon="-0.67385">
        <ele>76.08</ele>
        <time>2013-11-17T07:42:34Z</time>
      </trkpt>
      <trkpt lat="47.54394" lon="-0.67386">
        <ele>79.93</ele>
        <time>2013-11-17T07:42:35Z</time>
      </trkpt>
      <trkpt lat="47.54395" lon="-0.67388">
        <ele>78.48</ele>
        <time>2013-11-17T07:42:52Z</time>
      </trkpt>
      <trkpt lat="47.54395" lon="-0.67387">
        <ele>78.97</ele>
        <time>2013-11-17T07:43:01Z</time>
      </trkpt>
      <trkpt lat="47.54395" lon="-0.67387">
        <ele>78.97</ele>
        <time>2013-11-17T07:43:21Z</time>
      </trkpt>
      <trkpt lat="47.54395" lon="-0.67387">
        <ele>78.48</ele>
        <time>2013-11-17T07:43:38Z</time>
      </trkpt>
      <trkpt lat="47.54395" lon="-0.67387">
        <ele>78</ele>
        <time>2013-11-17T07:43:55Z</time>
      </trkpt>
      <trkpt lat="47.54395" lon="-0.67387">
        <ele>78.97</ele>
        <time>2013-11-17T07:44:15Z</time>
      </trkpt>
      <trkpt lat="47.54395" lon="-0.67387">
        <ele>78.48</ele>
        <time>2013-11-17T07:44:40Z</time>
      </trkpt>
      <trkpt lat="47.54396" lon="-0.67388">
        <ele>78</ele>
        <time>2013-11-17T07:44:59Z</time>
      </trkpt>
      <trkpt lat="47.54396" lon="-0.67388">
        <ele>77.52</ele>
        <time>2013-11-17T07:45:18Z</time>
      </trkpt>
      <trkpt lat="47.54396" lon="-0.67388">
        <ele>78</ele>
        <time>2013-11-17T07:45:38Z</time>
      </trkpt>
      <trkpt lat="47.54396" lon="-0.67388">
        <ele>78</ele>
        <time>2013-11-17T07:45:58Z</time>
      </trkpt>
      <trkpt lat="47.54396" lon="-0.67388">
        <ele>78</ele>
        <time>2013-11-17T07:46:16Z</time>
      </trkpt>
      <trkpt lat="47.54396" lon="-0.67388">
        <ele>77.52</ele>
        <time>2013-11-17T07:46:37Z</time>
      </trkpt>
      <trkpt lat="47.54396" lon="-0.67388">
        <ele>77.52</ele>
        <time>2013-11-17T07:46:59Z</time>
      </trkpt>
      <trkpt lat="47.54396" lon="-0.67388">
        <ele>77.04</ele>
        <time>2013-11-17T07:47:18Z</time>
      </trkpt>
      <trkpt lat="47.54396" lon="-0.67388">
        <ele>78</ele>
        <time>2013-11-17T07:47:38Z</time>
      </trkpt>
      <trkpt lat="47.54396" lon="-0.67388">
        <ele>78</ele>
        <time>2013-11-17T07:47:55Z</time>
      </trkpt>
      <trkpt lat="47.54396" lon="-0.67388">
        <ele>77.52</ele>
        <time>2013-11-17T07:48:13Z</time>
      </trkpt>
      <trkpt lat="47.54396" lon="-0.67387">
        <ele>77.52</ele>
        <time>2013-11-17T07:48:33Z</time>
      </trkpt>
      <trkpt lat="47.54396" lon="-0.67387">
        <ele>78</ele>
        <time>2013-11-17T07:48:51Z</time>
      </trkpt>
      <trkpt lat="47.54396" lon="-0.67387">
        <ele>77.52</ele>
        <time>2013-11-17T07:49:14Z</time>
      </trkpt>
      <trkpt lat="47.54396" lon="-0.67387">
        <ele>77.52</ele>
        <time>2013-11-17T07:49:29Z</time>
      </trkpt>
      <trkpt lat="47.54396" lon="-0.67387">
        <ele>77.52</ele>
        <time>2013-11-17T07:49:45Z</time>
      </trkpt>
      <trkpt lat="47.54396" lon="-0.67387">
        <ele>77.04</ele>
        <time>2013-11-17T07:50:04Z</time>
      </trkpt>
      <trkpt lat="47.54396" lon="-0.67387">
        <ele>77.52</ele>
        <time>2013-11-17T07:50:24Z</time>
      </trkpt>
      <trkpt lat="47.54396" lon="-0.67387">
        <ele>77.04</ele>
        <time>2013-11-17T07:50:39Z</time>
      </trkpt>
      <trkpt lat="47.54396" lon="-0.67387">
        <ele>77.04</ele>
        <time>2013-11-17T07:50:56Z</time>
      </trkpt>
      <trkpt lat="47.54396" lon="-0.67387">
        <ele>77.52</ele>
        <time>2013-11-17T07:51:15Z</time>
      </trkpt>
      <trkpt lat="47.54396" lon="-0.67387">
        <ele>77.52</ele>
        <time>2013-11-17T07:51:32Z</time>
      </trkpt>
      <trkpt lat="47.54396" lon="-0.67387">
        <ele>77.04</ele>
        <time>2013-11-17T07:51:47Z</time>
      </trkpt>
      <trkpt lat="47.54396" lon="-0.67387">
        <ele>77.04</ele>
        <time>2013-11-17T07:52:00Z</time>
      </trkpt>
      <trkpt lat="47.54396" lon="-0.67387">
        <ele>78</ele>
        <time>2013-11-17T07:52:11Z</time>
      </trkpt>
      <trkpt lat="47.54396" lon="-0.67387">
        <ele>77.52</ele>
        <time>2013-11-17T07:52:22Z</time>
      </trkpt>
      <trkpt lat="47.54396" lon="-0.67387">
        <ele>77.52</ele>
        <time>2013-11-17T07:52:36Z</time>
      </trkpt>
      <trkpt lat="47.54396" lon="-0.67387">
        <ele>77.04</ele>
        <time>2013-11-17T07:52:51Z</time>
      </trkpt>
      <trkpt lat="47.54396" lon="-0.67387">
        <ele>77.52</ele>
        <time>2013-11-17T07:53:06Z</time>
      </trkpt>
      <trkpt lat="47.54396" lon="-0.67387">
        <ele>77.52</ele>
        <time>2013-11-17T07:53:19Z</time>
      </trkpt>
      <trkpt lat="47.54396" lon="-0.67386">
        <ele>77.52</ele>
        <time>2013-11-17T07:53:26Z</time>
      </trkpt>
      <trkpt lat="47.54396" lon="-0.67386">
        <ele>77.04</ele>
        <time>2013-11-17T07:53:39Z</time>
      </trkpt>
      <trkpt lat="47.54396" lon="-0.67386">
        <ele>77.52</ele>
        <time>2013-11-17T07:53:54Z</time>
      </trkpt>
      <trkpt lat="47.54396" lon="-0.67385">
        <ele>77.52</ele>
        <time>2013-11-17T07:54:07Z</time>
      </trkpt>
      <trkpt lat="47.54396" lon="-0.67385">
        <ele>77.52</ele>
        <time>2013-11-17T07:54:22Z</time>
      </trkpt>
      <trkpt lat="47.54396" lon="-0.67385">
        <ele>77.52</ele>
        <time>2013-11-17T07:54:37Z</time>
      </trkpt>
      <trkpt lat="47.54395" lon="-0.67385">
        <ele>77.52</ele>
        <time>2013-11-17T07:54:53Z</time>
      </trkpt>
      <trkpt lat="47.54395" lon="-0.67385">
        <ele>76.56</ele>
        <time>2013-11-17T07:55:09Z</time>
      </trkpt>
      <trkpt lat="47.54395" lon="-0.67385">
        <ele>77.52</ele>
        <time>2013-11-17T07:55:24Z</time>
      </trkpt>
      <trkpt lat="47.54395" lon="-0.67386">
        <ele>77.04</ele>
        <time>2013-11-17T07:55:36Z</time>
      </trkpt>
      <trkpt lat="47.54395" lon="-0.67386">
        <ele>77.52</ele>
        <time>2013-11-17T07:55:48Z</time>
      </trkpt>
      <trkpt lat="47.54395" lon="-0.67386">
        <ele>77.04</ele>
        <time>2013-11-17T07:56:04Z</time>
      </trkpt>
      <trkpt lat="47.54396" lon="-0.67386">
        <ele>77.52</ele>
        <time>2013-11-17T07:56:18Z</time>
      </trkpt>
      <trkpt lat="47.54396" lon="-0.67386">
        <ele>77.52</ele>
        <time>2013-11-17T07:56:33Z</time>
      </trkpt>
      <trkpt lat="47.54396" lon="-0.67388">
        <ele>77.52</ele>
        <time>2013-11-17T07:56:46Z</time>
      </trkpt>
      <trkpt lat="47.54396" lon="-0.67388">
        <ele>78</ele>
        <time>2013-11-17T07:57:00Z</time>
      </trkpt>
      <trkpt lat="47.54396" lon="-0.67388">
        <ele>78</ele>
        <time>2013-11-17T07:57:13Z</time>
      </trkpt>
      <trkpt lat="47.54396" lon="-0.67388">
        <ele>78</ele>
        <time>2013-11-17T07:57:27Z</time>
      </trkpt>
      <trkpt lat="47.54396" lon="-0.67388">
        <ele>78</ele>
        <time>2013-11-17T07:57:37Z</time>
      </trkpt>
      <trkpt lat="47.54396" lon="-0.67388">
        <ele>78</ele>
        <time>2013-11-17T07:57:53Z</time>
      </trkpt>
      <trkpt lat="47.54396" lon="-0.67387">
        <ele>78</ele>
        <time>2013-11-17T07:58:06Z</time>
      </trkpt>
      <trkpt lat="47.54396" lon="-0.67387">
        <ele>78</ele>
        <time>2013-11-17T07:58:21Z</time>
      </trkpt>
      <trkpt lat="47.54396" lon="-0.67387">
        <ele>77.52</ele>
        <time>2013-11-17T07:58:36Z</time>
      </trkpt>
      <trkpt lat="47.54396" lon="-0.67387">
        <ele>78</ele>
        <time>2013-11-17T07:58:51Z</time>
      </trkpt>
      <trkpt lat="47.54396" lon="-0.67387">
        <ele>78</ele>
        <time>2013-11-17T07:59:01Z</time>
      </trkpt>
      <trkpt lat="47.54396" lon="-0.67387">
        <ele>78</ele>
        <time>2013-11-17T07:59:21Z</time>
      </trkpt>
      <trkpt lat="47.54395" lon="-0.67386">
        <ele>78</ele>
        <time>2013-11-17T07:59:33Z</time>
      </trkpt>
      <trkpt lat="47.54395" lon="-0.67386">
        <ele>78.48</ele>
        <time>2013-11-17T07:59:47Z</time>
      </trkpt>
      <trkpt lat="47.54395" lon="-0.67386">
        <ele>78.97</ele>
        <time>2013-11-17T07:59:57Z</time>
      </trkpt>
      <trkpt lat="47.54395" lon="-0.67386">
        <ele>78.97</ele>
        <time>2013-11-17T08:00:07Z</time>
      </trkpt>
      <trkpt lat="47.54395" lon="-0.67386">
        <ele>78.97</ele>
        <time>2013-11-17T08:00:18Z</time>
      </trkpt>
      <trkpt lat="47.54395" lon="-0.67386">
        <ele>78.48</ele>
        <time>2013-11-17T08:00:31Z</time>
      </trkpt>
      <trkpt lat="47.54395" lon="-0.67386">
        <ele>78.48</ele>
        <time>2013-11-17T08:00:41Z</time>
      </trkpt>
      <trkpt lat="47.54395" lon="-0.67386">
        <ele>78.48</ele>
        <time>2013-11-17T08:00:53Z</time>
      </trkpt>
      <trkpt lat="47.54395" lon="-0.67386">
        <ele>78.48</ele>
        <time>2013-11-17T08:01:03Z</time>
      </trkpt>
      <trkpt lat="47.54396" lon="-0.67387">
        <ele>78.48</ele>
        <time>2013-11-17T08:01:12Z</time>
      </trkpt>
      <trkpt lat="47.54396" lon="-0.67387">
        <ele>78.48</ele>
        <time>2013-11-17T08:01:21Z</time>
      </trkpt>
      <trkpt lat="47.54396" lon="-0.67387">
        <ele>78.97</ele>
        <time>2013-11-17T08:01:32Z</time>
      </trkpt>
      <trkpt lat="47.54396" lon="-0.67387">
        <ele>78.97</ele>
        <time>2013-11-17T08:01:46Z</time>
      </trkpt>
      <trkpt lat="47.54396" lon="-0.67386">
        <ele>78.97</ele>
        <time>2013-11-17T08:01:56Z</time>
      </trkpt>
      <trkpt lat="47.54396" lon="-0.67386">
        <ele>78.97</ele>
        <time>2013-11-17T08:02:07Z</time>
      </trkpt>
      <trkpt lat="47.54396" lon="-0.67386">
        <ele>78.48</ele>
        <time>2013-11-17T08:02:17Z</time>
      </trkpt>
      <trkpt lat="47.54396" lon="-0.67387">
        <ele>78.48</ele>
        <time>2013-11-17T08:02:27Z</time>
      </trkpt>
      <trkpt lat="47.54396" lon="-0.67387">
        <ele>78.48</ele>
        <time>2013-11-17T08:02:38Z</time>
      </trkpt>
      <trkpt lat="47.54396" lon="-0.67387">
        <ele>78.97</ele>
        <time>2013-11-17T08:02:49Z</time>
      </trkpt>
      <trkpt lat="47.54396" lon="-0.67387">
        <ele>78.48</ele>
        <time>2013-11-17T08:03:00Z</time>
      </trkpt>
      <trkpt lat="47.54397" lon="-0.67386">
        <ele>78.97</ele>
        <time>2013-11-17T08:03:12Z</time>
      </trkpt>
      <trkpt lat="47.54397" lon="-0.67386">
        <ele>78.48</ele>
        <time>2013-11-17T08:03:22Z</time>
      </trkpt>
      <trkpt lat="47.54397" lon="-0.67385">
        <ele>78.48</ele>
        <time>2013-11-17T08:03:29Z</time>
      </trkpt>
      <trkpt lat="47.54397" lon="-0.67385">
        <ele>78</ele>
        <time>2013-11-17T08:03:36Z</time>
      </trkpt>
      <trkpt lat="47.54404" lon="-0.67385">
        <ele>78.48</ele>
        <time>2013-11-17T08:03:41Z</time>
      </trkpt>
      <trkpt lat="47.54404" lon="-0.67385">
        <ele>75.12</ele>
        <time>2013-11-17T08:03:48Z</time>
      </trkpt>
      <trkpt lat="47.54404" lon="-0.67385">
        <ele>79.93</ele>
        <time>2013-11-17T08:03:49Z</time>
      </trkpt>
      <trkpt lat="47.54404" lon="-0.67385">
        <ele>76.56</ele>
        <time>2013-11-17T08:03:57Z</time>
      </trkpt>
      <trkpt lat="47.54404" lon="-0.67385">
        <ele>80.41</ele>
        <time>2013-11-17T08:04:02Z</time>
      </trkpt>
      <trkpt lat="47.54404" lon="-0.67385">
        <ele>77.52</ele>
        <time>2013-11-17T08:04:05Z</time>
      </trkpt>
      <trkpt lat="47.54404" lon="-0.67385">
        <ele>78.48</ele>
        <time>2013-11-17T08:04:14Z</time>
      </trkpt>
      <trkpt lat="47.544" lon="-0.67391">
        <ele>78.48</ele>
        <time>2013-11-17T08:04:23Z</time>
      </trkpt>
      <trkpt lat="47.54392" lon="-0.67395">
        <ele>78.97</ele>
        <time>2013-11-17T08:04:28Z</time>
      </trkpt>
      <trkpt lat="47.54383" lon="-0.67384">
        <ele>78.97</ele>
        <time>2013-11-17T08:04:35Z</time>
      </trkpt>
      <trkpt lat="47.54368" lon="-0.67367">
        <ele>79.45</ele>
        <time>2013-11-17T08:04:43Z</time>
      </trkpt>
      <trkpt lat="47.5435" lon="-0.67348">
        <ele>80.41</ele>
        <time>2013-11-17T08:04:50Z</time>
      </trkpt>
      <trkpt lat="47.54325" lon="-0.67324">
        <ele>80.89</ele>
        <time>2013-11-17T08:04:59Z</time>
      </trkpt>
      <trkpt lat="47.54299" lon="-0.67298">
        <ele>81.85</ele>
        <time>2013-11-17T08:05:08Z</time>
      </trkpt>
      <trkpt lat="47.54277" lon="-0.67271">
        <ele>82.81</ele>
        <time>2013-11-17T08:05:16Z</time>
      </trkpt>
      <trkpt lat="47.54264" lon="-0.67255">
        <ele>82.81</ele>
        <time>2013-11-17T08:05:21Z</time>
      </trkpt>
      <trkpt lat="47.54239" lon="-0.67256">
        <ele>83.77</ele>
        <time>2013-11-17T08:05:28Z</time>
      </trkpt>
      <trkpt lat="47.54214" lon="-0.67259">
        <ele>84.73</ele>
        <time>2013-11-17T08:05:35Z</time>
      </trkpt>
      <trkpt lat="47.54177" lon="-0.67258">
        <ele>84.73</ele>
        <time>2013-11-17T08:05:43Z</time>
      </trkpt>
      <trkpt lat="47.54135" lon="-0.67266">
        <ele>83.29</ele>
        <time>2013-11-17T08:05:51Z</time>
      </trkpt>
      <trkpt lat="47.54082" lon="-0.67277">
        <ele>81.37</ele>
        <time>2013-11-17T08:05:59Z</time>
      </trkpt>
      <trkpt lat="47.54023" lon="-0.67288">
        <ele>79.93</ele>
        <time>2013-11-17T08:06:07Z</time>
      </trkpt>
      <trkpt lat="47.53967" lon="-0.67299">
        <ele>77.52</ele>
        <time>2013-11-17T08:06:14Z</time>
      </trkpt>
      <trkpt lat="47.53892" lon="-0.67312">
        <ele>75.12</ele>
        <time>2013-11-17T08:06:23Z</time>
      </trkpt>
      <trkpt lat="47.53812" lon="-0.67314">
        <ele>73.2</ele>
        <time>2013-11-17T08:06:33Z</time>
      </trkpt>
      <trkpt lat="47.53787" lon="-0.67313">
        <ele>71.76</ele>
        <time>2013-11-17T08:06:36Z</time>
      </trkpt>
      <trkpt lat="47.5372" lon="-0.67305">
        <ele>69.35</ele>
        <time>2013-11-17T08:06:45Z</time>
      </trkpt>
      <trkpt lat="47.53662" lon="-0.67298">
        <ele>68.39</ele>
        <time>2013-11-17T08:06:53Z</time>
      </trkpt>
      <trkpt lat="47.5361" lon="-0.67292">
        <ele>67.91</ele>
        <time>2013-11-17T08:07:01Z</time>
      </trkpt>
      <trkpt lat="47.53576" lon="-0.67288">
        <ele>68.39</ele>
        <time>2013-11-17T08:07:07Z</time>
      </trkpt>
      <trkpt lat="47.53557" lon="-0.67278">
        <ele>67.43</ele>
        <time>2013-11-17T08:07:12Z</time>
      </trkpt>
      <trkpt lat="47.53554" lon="-0.67267">
        <ele>67.43</ele>
        <time>2013-11-17T08:07:15Z</time>
      </trkpt>
      <trkpt lat="47.53557" lon="-0.67232">
        <ele>67.43</ele>
        <time>2013-11-17T08:07:22Z</time>
      </trkpt>
      <trkpt lat="47.53555" lon="-0.67166">
        <ele>65.99</ele>
        <time>2013-11-17T08:07:32Z</time>
      </trkpt>
      <trkpt lat="47.53553" lon="-0.67129">
        <ele>65.03</ele>
        <time>2013-11-17T08:07:37Z</time>
      </trkpt>
      <trkpt lat="47.53549" lon="-0.67033">
        <ele>63.1</ele>
        <time>2013-11-17T08:07:49Z</time>
      </trkpt>
      <trkpt lat="47.53543" lon="-0.66972">
        <ele>63.1</ele>
        <time>2013-11-17T08:07:57Z</time>
      </trkpt>
      <trkpt lat="47.53541" lon="-0.66959">
        <ele>63.1</ele>
        <time>2013-11-17T08:07:59Z</time>
      </trkpt>
      <trkpt lat="47.53547" lon="-0.66929">
        <ele>62.62</ele>
        <time>2013-11-17T08:08:04Z</time>
      </trkpt>
      <trkpt lat="47.5355" lon="-0.66924">
        <ele>63.1</ele>
        <time>2013-11-17T08:08:05Z</time>
      </trkpt>
      <trkpt lat="47.53582" lon="-0.66878">
        <ele>62.14</ele>
        <time>2013-11-17T08:08:14Z</time>
      </trkpt>
      <trkpt lat="47.53585" lon="-0.66873">
        <ele>63.1</ele>
        <time>2013-11-17T08:08:15Z</time>
      </trkpt>
      <trkpt lat="47.53592" lon="-0.66843">
        <ele>63.1</ele>
        <time>2013-11-17T08:08:20Z</time>
      </trkpt>
      <trkpt lat="47.53589" lon="-0.66819">
        <ele>62.62</ele>
        <time>2013-11-17T08:08:24Z</time>
      </trkpt>
      <trkpt lat="47.53579" lon="-0.66755">
        <ele>62.62</ele>
        <time>2013-11-17T08:08:34Z</time>
      </trkpt>
      <trkpt lat="47.53575" lon="-0.66727">
        <ele>63.1</ele>
        <time>2013-11-17T08:08:38Z</time>
      </trkpt>
      <trkpt lat="47.53574" lon="-0.66713">
        <ele>63.58</ele>
        <time>2013-11-17T08:08:40Z</time>
      </trkpt>
      <trkpt lat="47.53577" lon="-0.66659">
        <ele>62.62</ele>
        <time>2013-11-17T08:08:48Z</time>
      </trkpt>
      <trkpt lat="47.53576" lon="-0.66631">
        <ele>63.1</ele>
        <time>2013-11-17T08:08:52Z</time>
      </trkpt>
      <trkpt lat="47.53574" lon="-0.66617">
        <ele>63.58</ele>
        <time>2013-11-17T08:08:54Z</time>
      </trkpt>
      <trkpt lat="47.53559" lon="-0.66566">
        <ele>63.1</ele>
        <time>2013-11-17T08:09:02Z</time>
      </trkpt>
      <trkpt lat="47.53555" lon="-0.6652">
        <ele>63.1</ele>
        <time>2013-11-17T08:09:09Z</time>
      </trkpt>
      <trkpt lat="47.5355" lon="-0.66459">
        <ele>61.66</ele>
        <time>2013-11-17T08:09:18Z</time>
      </trkpt>
      <trkpt lat="47.53546" lon="-0.66436">
        <ele>61.66</ele>
        <time>2013-11-17T08:09:21Z</time>
      </trkpt>
      <trkpt lat="47.53545" lon="-0.6642">
        <ele>60.7</ele>
        <time>2013-11-17T08:09:23Z</time>
      </trkpt>
      <trkpt lat="47.53557" lon="-0.66342">
        <ele>59.74</ele>
        <time>2013-11-17T08:09:33Z</time>
      </trkpt>
      <trkpt lat="47.53564" lon="-0.66314">
        <ele>59.74</ele>
        <time>2013-11-17T08:09:37Z</time>
      </trkpt>
      <trkpt lat="47.53572" lon="-0.66268">
        <ele>60.22</ele>
        <time>2013-11-17T08:09:44Z</time>
      </trkpt>
      <trkpt lat="47.53579" lon="-0.66219">
        <ele>60.22</ele>
        <time>2013-11-17T08:09:52Z</time>
      </trkpt>
      <trkpt lat="47.53583" lon="-0.66194">
        <ele>60.22</ele>
        <time>2013-11-17T08:09:56Z</time>
      </trkpt>
      <trkpt lat="47.53593" lon="-0.66125">
        <ele>60.7</ele>
        <time>2013-11-17T08:10:08Z</time>
      </trkpt>
      <trkpt lat="47.53598" lon="-0.6609">
        <ele>60.22</ele>
        <time>2013-11-17T08:10:14Z</time>
      </trkpt>
      <trkpt lat="47.53608" lon="-0.66024">
        <ele>61.18</ele>
        <time>2013-11-17T08:10:25Z</time>
      </trkpt>
      <trkpt lat="47.53614" lon="-0.65983">
        <ele>61.66</ele>
        <time>2013-11-17T08:10:33Z</time>
      </trkpt>
      <trkpt lat="47.53621" lon="-0.65957">
        <ele>62.62</ele>
        <time>2013-11-17T08:10:39Z</time>
      </trkpt>
      <trkpt lat="47.53621" lon="-0.65931">
        <ele>62.14</ele>
        <time>2013-11-17T08:10:45Z</time>
      </trkpt>
      <trkpt lat="47.53598" lon="-0.65887">
        <ele>60.7</ele>
        <time>2013-11-17T08:10:54Z</time>
      </trkpt>
      <trkpt lat="47.53568" lon="-0.65839">
        <ele>59.74</ele>
        <time>2013-11-17T08:11:04Z</time>
      </trkpt>
      <trkpt lat="47.53531" lon="-0.65779">
        <ele>58.3</ele>
        <time>2013-11-17T08:11:15Z</time>
      </trkpt>
      <trkpt lat="47.53502" lon="-0.65726">
        <ele>57.82</ele>
        <time>2013-11-17T08:11:24Z</time>
      </trkpt>
      <trkpt lat="47.5349" lon="-0.65706">
        <ele>57.34</ele>
        <time>2013-11-17T08:11:28Z</time>
      </trkpt>
      <trkpt lat="47.53487" lon="-0.65683">
        <ele>58.3</ele>
        <time>2013-11-17T08:11:32Z</time>
      </trkpt>
      <trkpt lat="47.53494" lon="-0.65679">
        <ele>57.82</ele>
        <time>2013-11-17T08:11:34Z</time>
      </trkpt>
      <trkpt lat="47.53525" lon="-0.65666">
        <ele>59.26</ele>
        <time>2013-11-17T08:11:42Z</time>
      </trkpt>
      <trkpt lat="47.53536" lon="-0.6566">
        <ele>58.78</ele>
        <time>2013-11-17T08:11:45Z</time>
      </trkpt>
      <trkpt lat="47.53567" lon="-0.65642">
        <ele>60.7</ele>
        <time>2013-11-17T08:11:53Z</time>
      </trkpt>
      <trkpt lat="47.536" lon="-0.65622">
        <ele>62.14</ele>
        <time>2013-11-17T08:12:02Z</time>
      </trkpt>
      <trkpt lat="47.53603" lon="-0.6562">
        <ele>61.66</ele>
        <time>2013-11-17T08:12:03Z</time>
      </trkpt>
      <trkpt lat="47.53602" lon="-0.65607">
        <ele>61.66</ele>
        <time>2013-11-17T08:12:07Z</time>
      </trkpt>
      <trkpt lat="47.53599" lon="-0.65604">
        <ele>61.66</ele>
        <time>2013-11-17T08:12:08Z</time>
      </trkpt>
      <trkpt lat="47.53573" lon="-0.65572">
        <ele>60.22</ele>
        <time>2013-11-17T08:12:17Z</time>
      </trkpt>
      <trkpt lat="47.5357" lon="-0.65569">
        <ele>60.22</ele>
        <time>2013-11-17T08:12:18Z</time>
      </trkpt>
      <trkpt lat="47.53535" lon="-0.65523">
        <ele>58.78</ele>
        <time>2013-11-17T08:12:29Z</time>
      </trkpt>
      <trkpt lat="47.53517" lon="-0.65474">
        <ele>57.34</ele>
        <time>2013-11-17T08:12:38Z</time>
      </trkpt>
      <trkpt lat="47.53512" lon="-0.65458">
        <ele>57.34</ele>
        <time>2013-11-17T08:12:41Z</time>
      </trkpt>
      <trkpt lat="47.53498" lon="-0.65455">
        <ele>56.86</ele>
        <time>2013-11-17T08:12:45Z</time>
      </trkpt>
      <trkpt lat="47.53451" lon="-0.6548">
        <ele>54.93</ele>
        <time>2013-11-17T08:12:57Z</time>
      </trkpt>
      <trkpt lat="47.53419" lon="-0.65496">
        <ele>54.93</ele>
        <time>2013-11-17T08:13:06Z</time>
      </trkpt>
      <trkpt lat="47.53399" lon="-0.65487">
        <ele>54.45</ele>
        <time>2013-11-17T08:13:12Z</time>
      </trkpt>
      <trkpt lat="47.53379" lon="-0.65442">
        <ele>53.97</ele>
        <time>2013-11-17T08:13:21Z</time>
      </trkpt>
      <trkpt lat="47.53363" lon="-0.65398">
        <ele>53.49</ele>
        <time>2013-11-17T08:13:29Z</time>
      </trkpt>
      <trkpt lat="47.53348" lon="-0.65352">
        <ele>52.53</ele>
        <time>2013-11-17T08:13:37Z</time>
      </trkpt>
      <trkpt lat="47.53335" lon="-0.65314">
        <ele>51.57</ele>
        <time>2013-11-17T08:13:44Z</time>
      </trkpt>
      <trkpt lat="47.53333" lon="-0.65308">
        <ele>51.09</ele>
        <time>2013-11-17T08:13:45Z</time>
      </trkpt>
      <trkpt lat="47.53306" lon="-0.65263">
        <ele>49.65</ele>
        <time>2013-11-17T08:13:54Z</time>
      </trkpt>
      <trkpt lat="47.53291" lon="-0.65238">
        <ele>49.16</ele>
        <time>2013-11-17T08:13:59Z</time>
      </trkpt>
      <trkpt lat="47.53268" lon="-0.65194">
        <ele>49.65</ele>
        <time>2013-11-17T08:14:08Z</time>
      </trkpt>
      <trkpt lat="47.53258" lon="-0.65173">
        <ele>49.16</ele>
        <time>2013-11-17T08:14:12Z</time>
      </trkpt>
      <trkpt lat="47.53233" lon="-0.65138">
        <ele>49.65</ele>
        <time>2013-11-17T08:14:20Z</time>
      </trkpt>
      <trkpt lat="47.53219" lon="-0.65115">
        <ele>51.09</ele>
        <time>2013-11-17T08:14:25Z</time>
      </trkpt>
      <trkpt lat="47.53194" lon="-0.65069">
        <ele>51.57</ele>
        <time>2013-11-17T08:14:34Z</time>
      </trkpt>
      <trkpt lat="47.53177" lon="-0.65035">
        <ele>51.57</ele>
        <time>2013-11-17T08:14:41Z</time>
      </trkpt>
      <trkpt lat="47.53164" lon="-0.65003">
        <ele>52.05</ele>
        <time>2013-11-17T08:14:47Z</time>
      </trkpt>
      <trkpt lat="47.53151" lon="-0.64976">
        <ele>52.05</ele>
        <time>2013-11-17T08:14:52Z</time>
      </trkpt>
      <trkpt lat="47.53135" lon="-0.64952">
        <ele>52.53</ele>
        <time>2013-11-17T08:14:58Z</time>
      </trkpt>
      <trkpt lat="47.53122" lon="-0.64952">
        <ele>51.57</ele>
        <time>2013-11-17T08:15:02Z</time>
      </trkpt>
      <trkpt lat="47.5312" lon="-0.64956">
        <ele>51.57</ele>
        <time>2013-11-17T08:15:03Z</time>
      </trkpt>
      <trkpt lat="47.53095" lon="-0.6498">
        <ele>51.09</ele>
        <time>2013-11-17T08:15:11Z</time>
      </trkpt>
      <trkpt lat="47.5308" lon="-0.65001">
        <ele>51.09</ele>
        <time>2013-11-17T08:15:17Z</time>
      </trkpt>
      <trkpt lat="47.53068" lon="-0.65028">
        <ele>51.09</ele>
        <time>2013-11-17T08:15:23Z</time>
      </trkpt>
      <trkpt lat="47.53043" lon="-0.65057">
        <ele>50.13</ele>
        <time>2013-11-17T08:15:31Z</time>
      </trkpt>
      <trkpt lat="47.5301" lon="-0.65094">
        <ele>49.16</ele>
        <time>2013-11-17T08:15:40Z</time>
      </trkpt>
      <trkpt lat="47.53002" lon="-0.65102">
        <ele>48.68</ele>
        <time>2013-11-17T08:15:42Z</time>
      </trkpt>
      <trkpt lat="47.52986" lon="-0.65112">
        <ele>47.24</ele>
        <time>2013-11-17T08:15:47Z</time>
      </trkpt>
      <trkpt lat="47.52983" lon="-0.6511">
        <ele>47.72</ele>
        <time>2013-11-17T08:15:48Z</time>
      </trkpt>
      <trkpt lat="47.52952" lon="-0.6507">
        <ele>45.8</ele>
        <time>2013-11-17T08:15:59Z</time>
      </trkpt>
      <trkpt lat="47.52925" lon="-0.65036">
        <ele>45.32</ele>
        <time>2013-11-17T08:16:08Z</time>
      </trkpt>
      <trkpt lat="47.5291" lon="-0.65001">
        <ele>44.84</ele>
        <time>2013-11-17T08:16:15Z</time>
      </trkpt>
      <trkpt lat="47.52889" lon="-0.64946">
        <ele>44.36</ele>
        <time>2013-11-17T08:16:26Z</time>
      </trkpt>
      <trkpt lat="47.52869" lon="-0.64911">
        <ele>43.88</ele>
        <time>2013-11-17T08:16:34Z</time>
      </trkpt>
      <trkpt lat="47.52847" lon="-0.64882">
        <ele>43.4</ele>
        <time>2013-11-17T08:16:42Z</time>
      </trkpt>
      <trkpt lat="47.52829" lon="-0.64866">
        <ele>42.44</ele>
        <time>2013-11-17T08:16:50Z</time>
      </trkpt>
      <trkpt lat="47.52814" lon="-0.64849">
        <ele>41.95</ele>
        <time>2013-11-17T08:16:57Z</time>
      </trkpt>
      <trkpt lat="47.52794" lon="-0.64813">
        <ele>40.99</ele>
        <time>2013-11-17T08:17:05Z</time>
      </trkpt>
      <trkpt lat="47.52768" lon="-0.64765">
        <ele>40.51</ele>
        <time>2013-11-17T08:17:13Z</time>
      </trkpt>
      <trkpt lat="47.52737" lon="-0.64709">
        <ele>40.51</ele>
        <time>2013-11-17T08:17:22Z</time>
      </trkpt>
      <trkpt lat="47.52708" lon="-0.64657">
        <ele>42.44</ele>
        <time>2013-11-17T08:17:31Z</time>
      </trkpt>
      <trkpt lat="47.52673" lon="-0.64595">
        <ele>44.36</ele>
        <time>2013-11-17T08:17:42Z</time>
      </trkpt>
      <trkpt lat="47.52643" lon="-0.64542">
        <ele>45.32</ele>
        <time>2013-11-17T08:17:51Z</time>
      </trkpt>
      <trkpt lat="47.52605" lon="-0.64471">
        <ele>45.32</ele>
        <time>2013-11-17T08:18:03Z</time>
      </trkpt>
      <trkpt lat="47.52602" lon="-0.64465">
        <ele>44.84</ele>
        <time>2013-11-17T08:18:04Z</time>
      </trkpt>
      <trkpt lat="47.52596" lon="-0.64438">
        <ele>45.8</ele>
        <time>2013-11-17T08:18:08Z</time>
      </trkpt>
      <trkpt lat="47.52598" lon="-0.64431">
        <ele>45.8</ele>
        <time>2013-11-17T08:18:09Z</time>
      </trkpt>
      <trkpt lat="47.52608" lon="-0.64374">
        <ele>45.32</ele>
        <time>2013-11-17T08:18:17Z</time>
      </trkpt>
      <trkpt lat="47.52607" lon="-0.64304">
        <ele>45.32</ele>
        <time>2013-11-17T08:18:26Z</time>
      </trkpt>
      <trkpt lat="47.52599" lon="-0.64233">
        <ele>45.8</ele>
        <time>2013-11-17T08:18:35Z</time>
      </trkpt>
      <trkpt lat="47.5258" lon="-0.64171">
        <ele>44.84</ele>
        <time>2013-11-17T08:18:43Z</time>
      </trkpt>
      <trkpt lat="47.52545" lon="-0.64097">
        <ele>43.4</ele>
        <time>2013-11-17T08:18:53Z</time>
      </trkpt>
      <trkpt lat="47.52518" lon="-0.64029">
        <ele>43.88</ele>
        <time>2013-11-17T08:19:02Z</time>
      </trkpt>
      <trkpt lat="47.52505" lon="-0.63983">
        <ele>43.88</ele>
        <time>2013-11-17T08:19:08Z</time>
      </trkpt>
      <trkpt lat="47.52491" lon="-0.63925">
        <ele>44.36</ele>
        <time>2013-11-17T08:19:16Z</time>
      </trkpt>
      <trkpt lat="47.52484" lon="-0.63882">
        <ele>44.84</ele>
        <time>2013-11-17T08:19:22Z</time>
      </trkpt>
      <trkpt lat="47.52471" lon="-0.63864">
        <ele>44.36</ele>
        <time>2013-11-17T08:19:26Z</time>
      </trkpt>
      <trkpt lat="47.52449" lon="-0.63866">
        <ele>44.36</ele>
        <time>2013-11-17T08:19:31Z</time>
      </trkpt>
      <trkpt lat="47.52435" lon="-0.63865">
        <ele>43.88</ele>
        <time>2013-11-17T08:19:34Z</time>
      </trkpt>
      <trkpt lat="47.52417" lon="-0.6386">
        <ele>43.88</ele>
        <time>2013-11-17T08:19:38Z</time>
      </trkpt>
      <trkpt lat="47.52398" lon="-0.63841">
        <ele>43.88</ele>
        <time>2013-11-17T08:19:43Z</time>
      </trkpt>
      <trkpt lat="47.52397" lon="-0.63834">
        <ele>43.4</ele>
        <time>2013-11-17T08:19:44Z</time>
      </trkpt>
      <trkpt lat="47.52393" lon="-0.63809">
        <ele>43.4</ele>
        <time>2013-11-17T08:19:47Z</time>
      </trkpt>
      <trkpt lat="47.52376" lon="-0.63783">
        <ele>42.92</ele>
        <time>2013-11-17T08:19:52Z</time>
      </trkpt>
      <trkpt lat="47.52346" lon="-0.63763">
        <ele>42.92</ele>
        <time>2013-11-17T08:19:59Z</time>
      </trkpt>
      <trkpt lat="47.52312" lon="-0.63714">
        <ele>42.92</ele>
        <time>2013-11-17T08:20:08Z</time>
      </trkpt>
      <trkpt lat="47.52279" lon="-0.63658">
        <ele>41.47</ele>
        <time>2013-11-17T08:20:17Z</time>
      </trkpt>
      <trkpt lat="47.5225" lon="-0.63608">
        <ele>41.47</ele>
        <time>2013-11-17T08:20:25Z</time>
      </trkpt>
      <trkpt lat="47.52222" lon="-0.63555">
        <ele>40.99</ele>
        <time>2013-11-17T08:20:33Z</time>
      </trkpt>
      <trkpt lat="47.52215" lon="-0.63543">
        <ele>40.99</ele>
        <time>2013-11-17T08:20:35Z</time>
      </trkpt>
      <trkpt lat="47.52187" lon="-0.63529">
        <ele>40.99</ele>
        <time>2013-11-17T08:20:41Z</time>
      </trkpt>
      <trkpt lat="47.52179" lon="-0.63536">
        <ele>40.99</ele>
        <time>2013-11-17T08:20:43Z</time>
      </trkpt>
      <trkpt lat="47.52162" lon="-0.63555">
        <ele>41.95</ele>
        <time>2013-11-17T08:20:47Z</time>
      </trkpt>
      <trkpt lat="47.52148" lon="-0.63568">
        <ele>41.47</ele>
        <time>2013-11-17T08:20:50Z</time>
      </trkpt>
      <trkpt lat="47.52128" lon="-0.63582">
        <ele>42.44</ele>
        <time>2013-11-17T08:20:54Z</time>
      </trkpt>
      <trkpt lat="47.52106" lon="-0.63588">
        <ele>41.95</ele>
        <time>2013-11-17T08:20:58Z</time>
      </trkpt>
      <trkpt lat="47.52069" lon="-0.63578">
        <ele>42.92</ele>
        <time>2013-11-17T08:21:05Z</time>
      </trkpt>
      <trkpt lat="47.52037" lon="-0.63546">
        <ele>43.4</ele>
        <time>2013-11-17T08:21:12Z</time>
      </trkpt>
      <trkpt lat="47.5202" lon="-0.63505">
        <ele>43.88</ele>
        <time>2013-11-17T08:21:18Z</time>
      </trkpt>
      <trkpt lat="47.52018" lon="-0.63498">
        <ele>43.88</ele>
        <time>2013-11-17T08:21:19Z</time>
      </trkpt>
      <trkpt lat="47.52009" lon="-0.63459">
        <ele>44.84</ele>
        <time>2013-11-17T08:21:24Z</time>
      </trkpt>
      <trkpt lat="47.51994" lon="-0.6345">
        <ele>44.36</ele>
        <time>2013-11-17T08:21:28Z</time>
      </trkpt>
      <trkpt lat="47.51974" lon="-0.63464">
        <ele>44.36</ele>
        <time>2013-11-17T08:21:33Z</time>
      </trkpt>
      <trkpt lat="47.51952" lon="-0.63479">
        <ele>44.84</ele>
        <time>2013-11-17T08:21:38Z</time>
      </trkpt>
      <trkpt lat="47.51919" lon="-0.63502">
        <ele>45.32</ele>
        <time>2013-11-17T08:21:46Z</time>
      </trkpt>
      <trkpt lat="47.51911" lon="-0.63508">
        <ele>45.8</ele>
        <time>2013-11-17T08:21:48Z</time>
      </trkpt>
      <trkpt lat="47.51885" lon="-0.63512">
        <ele>46.28</ele>
        <time>2013-11-17T08:21:53Z</time>
      </trkpt>
      <trkpt lat="47.51875" lon="-0.63495">
        <ele>46.76</ele>
        <time>2013-11-17T08:21:56Z</time>
      </trkpt>
      <trkpt lat="47.51856" lon="-0.6345">
        <ele>47.72</ele>
        <time>2013-11-17T08:22:03Z</time>
      </trkpt>
      <trkpt lat="47.51828" lon="-0.63382">
        <ele>48.68</ele>
        <time>2013-11-17T08:22:14Z</time>
      </trkpt>
      <trkpt lat="47.51825" lon="-0.63375">
        <ele>48.2</ele>
        <time>2013-11-17T08:22:15Z</time>
      </trkpt>
      <trkpt lat="47.51801" lon="-0.63316">
        <ele>49.16</ele>
        <time>2013-11-17T08:22:24Z</time>
      </trkpt>
      <trkpt lat="47.51784" lon="-0.63269">
        <ele>49.65</ele>
        <time>2013-11-17T08:22:31Z</time>
      </trkpt>
      <trkpt lat="47.51777" lon="-0.63249">
        <ele>49.65</ele>
        <time>2013-11-17T08:22:34Z</time>
      </trkpt>
      <trkpt lat="47.51766" lon="-0.63223">
        <ele>50.13</ele>
        <time>2013-11-17T08:22:38Z</time>
      </trkpt>
      <trkpt lat="47.51747" lon="-0.63175">
        <ele>50.61</ele>
        <time>2013-11-17T08:22:45Z</time>
      </trkpt>
      <trkpt lat="47.51745" lon="-0.63169">
        <ele>50.13</ele>
        <time>2013-11-17T08:22:46Z</time>
      </trkpt>
      <trkpt lat="47.51737" lon="-0.6315">
        <ele>50.13</ele>
        <time>2013-11-17T08:22:49Z</time>
      </trkpt>
      <trkpt lat="47.51733" lon="-0.63139">
        <ele>49.65</ele>
        <time>2013-11-17T08:22:51Z</time>
      </trkpt>
      <trkpt lat="47.51719" lon="-0.63099">
        <ele>50.13</ele>
        <time>2013-11-17T08:22:59Z</time>
      </trkpt>
      <trkpt lat="47.51717" lon="-0.63083">
        <ele>50.13</ele>
        <time>2013-11-17T08:23:02Z</time>
      </trkpt>
      <trkpt lat="47.51728" lon="-0.63049">
        <ele>50.13</ele>
        <time>2013-11-17T08:23:08Z</time>
      </trkpt>
      <trkpt lat="47.51739" lon="-0.63022">
        <ele>50.13</ele>
        <time>2013-11-17T08:23:13Z</time>
      </trkpt>
      <trkpt lat="47.51744" lon="-0.63009">
        <ele>49.65</ele>
        <time>2013-11-17T08:23:15Z</time>
      </trkpt>
      <trkpt lat="47.51767" lon="-0.62951">
        <ele>49.16</ele>
        <time>2013-11-17T08:23:24Z</time>
      </trkpt>
      <trkpt lat="47.51778" lon="-0.62923">
        <ele>49.16</ele>
        <time>2013-11-17T08:23:28Z</time>
      </trkpt>
      <trkpt lat="47.51788" lon="-0.62895">
        <ele>49.16</ele>
        <time>2013-11-17T08:23:32Z</time>
      </trkpt>
      <trkpt lat="47.51791" lon="-0.62854">
        <ele>48.2</ele>
        <time>2013-11-17T08:23:37Z</time>
      </trkpt>
      <trkpt lat="47.51785" lon="-0.62814">
        <ele>48.2</ele>
        <time>2013-11-17T08:23:42Z</time>
      </trkpt>
      <trkpt lat="47.51776" lon="-0.62767">
        <ele>48.2</ele>
        <time>2013-11-17T08:23:48Z</time>
      </trkpt>
      <trkpt lat="47.51763" lon="-0.62695">
        <ele>48.2</ele>
        <time>2013-11-17T08:23:57Z</time>
      </trkpt>
      <trkpt lat="47.51752" lon="-0.62632">
        <ele>48.2</ele>
        <time>2013-11-17T08:24:05Z</time>
      </trkpt>
      <trkpt lat="47.51735" lon="-0.62553">
        <ele>47.72</ele>
        <time>2013-11-17T08:24:15Z</time>
      </trkpt>
      <trkpt lat="47.51727" lon="-0.62521">
        <ele>47.72</ele>
        <time>2013-11-17T08:24:19Z</time>
      </trkpt>
      <trkpt lat="47.51713" lon="-0.62457">
        <ele>47.72</ele>
        <time>2013-11-17T08:24:27Z</time>
      </trkpt>
      <trkpt lat="47.51705" lon="-0.62376">
        <ele>48.2</ele>
        <time>2013-11-17T08:24:37Z</time>
      </trkpt>
      <trkpt lat="47.51702" lon="-0.6228">
        <ele>48.68</ele>
        <time>2013-11-17T08:24:49Z</time>
      </trkpt>
      <trkpt lat="47.51703" lon="-0.62242">
        <ele>49.16</ele>
        <time>2013-11-17T08:24:54Z</time>
      </trkpt>
      <trkpt lat="47.51705" lon="-0.62179">
        <ele>49.65</ele>
        <time>2013-11-17T08:25:02Z</time>
      </trkpt>
      <trkpt lat="47.51702" lon="-0.62149">
        <ele>51.09</ele>
        <time>2013-11-17T08:25:05Z</time>
      </trkpt>
      <trkpt lat="47.51697" lon="-0.62098">
        <ele>53.49</ele>
        <time>2013-11-17T08:25:10Z</time>
      </trkpt>
      <trkpt lat="47.51694" lon="-0.6207">
        <ele>54.45</ele>
        <time>2013-11-17T08:25:13Z</time>
      </trkpt>
      <trkpt lat="47.51692" lon="-0.62031">
        <ele>55.41</ele>
        <time>2013-11-17T08:25:19Z</time>
      </trkpt>
      <trkpt lat="47.51691" lon="-0.61993">
        <ele>55.41</ele>
        <time>2013-11-17T08:25:27Z</time>
      </trkpt>
      <trkpt lat="47.51689" lon="-0.61968">
        <ele>56.37</ele>
        <time>2013-11-17T08:25:31Z</time>
      </trkpt>
      <trkpt lat="47.51689" lon="-0.61956">
        <ele>55.89</ele>
        <time>2013-11-17T08:25:33Z</time>
      </trkpt>
      <trkpt lat="47.51688" lon="-0.61914">
        <ele>55.41</ele>
        <time>2013-11-17T08:25:40Z</time>
      </trkpt>
      <trkpt lat="47.51686" lon="-0.61861">
        <ele>53.97</ele>
        <time>2013-11-17T08:25:47Z</time>
      </trkpt>
      <trkpt lat="47.51687" lon="-0.61824">
        <ele>52.53</ele>
        <time>2013-11-17T08:25:51Z</time>
      </trkpt>
      <trkpt lat="47.51686" lon="-0.61814">
        <ele>52.53</ele>
        <time>2013-11-17T08:25:52Z</time>
      </trkpt>
      <trkpt lat="47.51689" lon="-0.61786">
        <ele>51.57</ele>
        <time>2013-11-17T08:25:55Z</time>
      </trkpt>
      <trkpt lat="47.5169" lon="-0.61767">
        <ele>51.57</ele>
        <time>2013-11-17T08:25:57Z</time>
      </trkpt>
      <trkpt lat="47.51698" lon="-0.61715">
        <ele>51.09</ele>
        <time>2013-11-17T08:26:03Z</time>
      </trkpt>
      <trkpt lat="47.51696" lon="-0.61681">
        <ele>50.61</ele>
        <time>2013-11-17T08:26:07Z</time>
      </trkpt>
      <trkpt lat="47.51687" lon="-0.61621">
        <ele>50.61</ele>
        <time>2013-11-17T08:26:15Z</time>
      </trkpt>
      <trkpt lat="47.51683" lon="-0.6159">
        <ele>50.61</ele>
        <time>2013-11-17T08:26:19Z</time>
      </trkpt>
      <trkpt lat="47.5168" lon="-0.61575">
        <ele>51.09</ele>
        <time>2013-11-17T08:26:21Z</time>
      </trkpt>
      <trkpt lat="47.51683" lon="-0.61542">
        <ele>51.09</ele>
        <time>2013-11-17T08:26:26Z</time>
      </trkpt>
      <trkpt lat="47.51707" lon="-0.61525">
        <ele>50.61</ele>
        <time>2013-11-17T08:26:31Z</time>
      </trkpt>
      <trkpt lat="47.51716" lon="-0.6152">
        <ele>50.61</ele>
        <time>2013-11-17T08:26:33Z</time>
      </trkpt>
      <trkpt lat="47.51749" lon="-0.61493">
        <ele>51.57</ele>
        <time>2013-11-17T08:26:41Z</time>
      </trkpt>
      <trkpt lat="47.51779" lon="-0.61464">
        <ele>51.57</ele>
        <time>2013-11-17T08:26:49Z</time>
      </trkpt>
      <trkpt lat="47.518" lon="-0.61438">
        <ele>51.57</ele>
        <time>2013-11-17T08:26:55Z</time>
      </trkpt>
      <trkpt lat="47.51802" lon="-0.61417">
        <ele>51.09</ele>
        <time>2013-11-17T08:26:59Z</time>
      </trkpt>
      <trkpt lat="47.51794" lon="-0.61404">
        <ele>51.57</ele>
        <time>2013-11-17T08:27:02Z</time>
      </trkpt>
      <trkpt lat="47.51782" lon="-0.61409">
        <ele>51.09</ele>
        <time>2013-11-17T08:27:06Z</time>
      </trkpt>
      <trkpt lat="47.51762" lon="-0.61425">
        <ele>50.61</ele>
        <time>2013-11-17T08:27:11Z</time>
      </trkpt>
      <trkpt lat="47.51727" lon="-0.61459">
        <ele>50.61</ele>
        <time>2013-11-17T08:27:19Z</time>
      </trkpt>
      <trkpt lat="47.51687" lon="-0.61497">
        <ele>50.13</ele>
        <time>2013-11-17T08:27:28Z</time>
      </trkpt>
      <trkpt lat="47.51672" lon="-0.61508">
        <ele>50.13</ele>
        <time>2013-11-17T08:27:33Z</time>
      </trkpt>
      <trkpt lat="47.5167" lon="-0.61495">
        <ele>49.65</ele>
        <time>2013-11-17T08:27:38Z</time>
      </trkpt>
      <trkpt lat="47.51667" lon="-0.61466">
        <ele>50.13</ele>
        <time>2013-11-17T08:27:44Z</time>
      </trkpt>
      <trkpt lat="47.51662" lon="-0.61413">
        <ele>50.61</ele>
        <time>2013-11-17T08:27:54Z</time>
      </trkpt>
      <trkpt lat="47.51658" lon="-0.61371">
        <ele>49.65</ele>
        <time>2013-11-17T08:28:01Z</time>
      </trkpt>
      <trkpt lat="47.51655" lon="-0.61339">
        <ele>50.13</ele>
        <time>2013-11-17T08:28:06Z</time>
      </trkpt>
      <trkpt lat="47.51648" lon="-0.61286">
        <ele>50.13</ele>
        <time>2013-11-17T08:28:14Z</time>
      </trkpt>
      <trkpt lat="47.51646" lon="-0.61262">
        <ele>49.16</ele>
        <time>2013-11-17T08:28:18Z</time>
      </trkpt>
      <trkpt lat="47.51641" lon="-0.61225">
        <ele>49.16</ele>
        <time>2013-11-17T08:28:24Z</time>
      </trkpt>
      <trkpt lat="47.51637" lon="-0.61181">
        <ele>49.65</ele>
        <time>2013-11-17T08:28:31Z</time>
      </trkpt>
      <trkpt lat="47.51635" lon="-0.61168">
        <ele>49.16</ele>
        <time>2013-11-17T08:28:34Z</time>
      </trkpt>
      <trkpt lat="47.5163" lon="-0.61144">
        <ele>49.65</ele>
        <time>2013-11-17T08:28:38Z</time>
      </trkpt>
      <trkpt lat="47.51625" lon="-0.61114">
        <ele>50.13</ele>
        <time>2013-11-17T08:28:43Z</time>
      </trkpt>
      <trkpt lat="47.51625" lon="-0.61107">
        <ele>50.13</ele>
        <time>2013-11-17T08:28:44Z</time>
      </trkpt>
      <trkpt lat="47.51623" lon="-0.61088">
        <ele>50.13</ele>
        <time>2013-11-17T08:28:47Z</time>
      </trkpt>
      <trkpt lat="47.5162" lon="-0.61057">
        <ele>50.13</ele>
        <time>2013-11-17T08:28:52Z</time>
      </trkpt>
      <trkpt lat="47.51617" lon="-0.61038">
        <ele>49.65</ele>
        <time>2013-11-17T08:28:55Z</time>
      </trkpt>
      <trkpt lat="47.51613" lon="-0.61006">
        <ele>50.61</ele>
        <time>2013-11-17T08:29:00Z</time>
      </trkpt>
      <trkpt lat="47.5161" lon="-0.60979">
        <ele>50.13</ele>
        <time>2013-11-17T08:29:04Z</time>
      </trkpt>
      <trkpt lat="47.51601" lon="-0.60985">
        <ele>50.13</ele>
        <time>2013-11-17T08:29:08Z</time>
      </trkpt>
      <trkpt lat="47.51579" lon="-0.61021">
        <ele>49.65</ele>
        <time>2013-11-17T08:29:16Z</time>
      </trkpt>
      <trkpt lat="47.51561" lon="-0.61047">
        <ele>48.68</ele>
        <time>2013-11-17T08:29:22Z</time>
      </trkpt>
      <trkpt lat="47.5153" lon="-0.61083">
        <ele>48.2</ele>
        <time>2013-11-17T08:29:30Z</time>
      </trkpt>
      <trkpt lat="47.51527" lon="-0.61088">
        <ele>47.72</ele>
        <time>2013-11-17T08:29:31Z</time>
      </trkpt>
      <trkpt lat="47.51509" lon="-0.6111">
        <ele>47.72</ele>
        <time>2013-11-17T08:29:37Z</time>
      </trkpt>
      <trkpt lat="47.51501" lon="-0.61119">
        <ele>48.2</ele>
        <time>2013-11-17T08:29:43Z</time>
      </trkpt>
      <trkpt lat="47.51485" lon="-0.6109">
        <ele>48.2</ele>
        <time>2013-11-17T08:29:51Z</time>
      </trkpt>
      <trkpt lat="47.51469" lon="-0.61065">
        <ele>48.68</ele>
        <time>2013-11-17T08:29:57Z</time>
      </trkpt>
      <trkpt lat="47.5145" lon="-0.6103">
        <ele>48.2</ele>
        <time>2013-11-17T08:30:05Z</time>
      </trkpt>
      <trkpt lat="47.51428" lon="-0.60993">
        <ele>48.2</ele>
        <time>2013-11-17T08:30:12Z</time>
      </trkpt>
      <trkpt lat="47.51416" lon="-0.60971">
        <ele>47.72</ele>
        <time>2013-11-17T08:30:16Z</time>
      </trkpt>
      <trkpt lat="47.51399" lon="-0.60947">
        <ele>48.2</ele>
        <time>2013-11-17T08:30:21Z</time>
      </trkpt>
      <trkpt lat="47.51388" lon="-0.60932">
        <ele>48.2</ele>
        <time>2013-11-17T08:30:24Z</time>
      </trkpt>
      <trkpt lat="47.51378" lon="-0.60902">
        <ele>47.24</ele>
        <time>2013-11-17T08:30:29Z</time>
      </trkpt>
      <trkpt lat="47.51381" lon="-0.60891">
        <ele>47.24</ele>
        <time>2013-11-17T08:30:32Z</time>
      </trkpt>
      <trkpt lat="47.5138" lon="-0.60867">
        <ele>47.24</ele>
        <time>2013-11-17T08:30:36Z</time>
      </trkpt>
      <trkpt lat="47.51385" lon="-0.60841">
        <ele>47.24</ele>
        <time>2013-11-17T08:30:40Z</time>
      </trkpt>
      <trkpt lat="47.51398" lon="-0.60818">
        <ele>47.72</ele>
        <time>2013-11-17T08:30:45Z</time>
      </trkpt>
      <trkpt lat="47.51402" lon="-0.60781">
        <ele>48.2</ele>
        <time>2013-11-17T08:30:51Z</time>
      </trkpt>
      <trkpt lat="47.51407" lon="-0.60712">
        <ele>49.16</ele>
        <time>2013-11-17T08:31:01Z</time>
      </trkpt>
      <trkpt lat="47.51419" lon="-0.60683">
        <ele>50.13</ele>
        <time>2013-11-17T08:31:06Z</time>
      </trkpt>
      <trkpt lat="47.5144" lon="-0.60667">
        <ele>51.09</ele>
        <time>2013-11-17T08:31:11Z</time>
      </trkpt>
      <trkpt lat="47.5148" lon="-0.60662">
        <ele>53.01</ele>
        <time>2013-11-17T08:31:20Z</time>
      </trkpt>
      <trkpt lat="47.51504" lon="-0.60655">
        <ele>54.93</ele>
        <time>2013-11-17T08:31:26Z</time>
      </trkpt>
      <trkpt lat="47.51526" lon="-0.60643">
        <ele>53.97</ele>
        <time>2013-11-17T08:31:32Z</time>
      </trkpt>
      <trkpt lat="47.51532" lon="-0.60626">
        <ele>55.41</ele>
        <time>2013-11-17T08:31:36Z</time>
      </trkpt>
      <trkpt lat="47.51524" lon="-0.60616">
        <ele>54.93</ele>
        <time>2013-11-17T08:31:39Z</time>
      </trkpt>
      <trkpt lat="47.51499" lon="-0.60585">
        <ele>55.41</ele>
        <time>2013-11-17T08:31:47Z</time>
      </trkpt>
      <trkpt lat="47.51474" lon="-0.60556">
        <ele>55.41</ele>
        <time>2013-11-17T08:31:54Z</time>
      </trkpt>
      <trkpt lat="47.51463" lon="-0.60545">
        <ele>54.93</ele>
        <time>2013-11-17T08:31:57Z</time>
      </trkpt>
      <trkpt lat="47.51455" lon="-0.60528">
        <ele>54.93</ele>
        <time>2013-11-17T08:32:00Z</time>
      </trkpt>
      <trkpt lat="47.51445" lon="-0.60515">
        <ele>53.97</ele>
        <time>2013-11-17T08:32:03Z</time>
      </trkpt>
      <trkpt lat="47.51434" lon="-0.60495">
        <ele>53.97</ele>
        <time>2013-11-17T08:32:07Z</time>
      </trkpt>
      <trkpt lat="47.51441" lon="-0.60479">
        <ele>54.93</ele>
        <time>2013-11-17T08:32:10Z</time>
      </trkpt>
      <trkpt lat="47.51444" lon="-0.60475">
        <ele>55.41</ele>
        <time>2013-11-17T08:32:11Z</time>
      </trkpt>
      <trkpt lat="47.51454" lon="-0.60463">
        <ele>54.93</ele>
        <time>2013-11-17T08:32:14Z</time>
      </trkpt>
      <trkpt lat="47.51483" lon="-0.60431">
        <ele>54.45</ele>
        <time>2013-11-17T08:32:22Z</time>
      </trkpt>
      <trkpt lat="47.51498" lon="-0.60414">
        <ele>54.93</ele>
        <time>2013-11-17T08:32:26Z</time>
      </trkpt>
      <trkpt lat="47.51541" lon="-0.60372">
        <ele>54.45</ele>
        <time>2013-11-17T08:32:37Z</time>
      </trkpt>
      <trkpt lat="47.51544" lon="-0.60368">
        <ele>54.93</ele>
        <time>2013-11-17T08:32:38Z</time>
      </trkpt>
      <trkpt lat="47.51548" lon="-0.60352">
        <ele>54.45</ele>
        <time>2013-11-17T08:32:41Z</time>
      </trkpt>
      <trkpt lat="47.51543" lon="-0.60336">
        <ele>53.97</ele>
        <time>2013-11-17T08:32:46Z</time>
      </trkpt>
      <trkpt lat="47.51544" lon="-0.60316">
        <ele>53.01</ele>
        <time>2013-11-17T08:32:51Z</time>
      </trkpt>
      <trkpt lat="47.51562" lon="-0.60292">
        <ele>51.57</ele>
        <time>2013-11-17T08:32:56Z</time>
      </trkpt>
      <trkpt lat="47.51569" lon="-0.60279">
        <ele>50.61</ele>
        <time>2013-11-17T08:32:59Z</time>
      </trkpt>
      <trkpt lat="47.5158" lon="-0.60284">
        <ele>50.61</ele>
        <time>2013-11-17T08:33:03Z</time>
      </trkpt>
      <trkpt lat="47.51586" lon="-0.60295">
        <ele>50.13</ele>
        <time>2013-11-17T08:33:06Z</time>
      </trkpt>
      <trkpt lat="47.51599" lon="-0.60316">
        <ele>50.61</ele>
        <time>2013-11-17T08:33:14Z</time>
      </trkpt>
      <trkpt lat="47.51613" lon="-0.60338">
        <ele>50.61</ele>
        <time>2013-11-17T08:33:21Z</time>
      </trkpt>
      <trkpt lat="47.51632" lon="-0.60367">
        <ele>51.09</ele>
        <time>2013-11-17T08:33:28Z</time>
      </trkpt>
      <trkpt lat="47.51653" lon="-0.60401">
        <ele>50.61</ele>
        <time>2013-11-17T08:33:36Z</time>
      </trkpt>
      <trkpt lat="47.51672" lon="-0.6043">
        <ele>50.61</ele>
        <time>2013-11-17T08:33:43Z</time>
      </trkpt>
      <trkpt lat="47.51676" lon="-0.60432">
        <ele>51.09</ele>
        <time>2013-11-17T08:33:44Z</time>
      </trkpt>
      <trkpt lat="47.51679" lon="-0.60433">
        <ele>51.09</ele>
        <time>2013-11-17T08:33:45Z</time>
      </trkpt>
      <trkpt lat="47.51694" lon="-0.60428">
        <ele>50.13</ele>
        <time>2013-11-17T08:33:49Z</time>
      </trkpt>
      <trkpt lat="47.5172" lon="-0.60394">
        <ele>49.16</ele>
        <time>2013-11-17T08:33:57Z</time>
      </trkpt>
      <trkpt lat="47.51724" lon="-0.6039">
        <ele>48.68</ele>
        <time>2013-11-17T08:33:58Z</time>
      </trkpt>
      <trkpt lat="47.51729" lon="-0.60388">
        <ele>48.2</ele>
        <time>2013-11-17T08:33:59Z</time>
      </trkpt>
      <trkpt lat="47.51754" lon="-0.6038">
        <ele>46.28</ele>
        <time>2013-11-17T08:34:03Z</time>
      </trkpt>
      <trkpt lat="47.51767" lon="-0.60376">
        <ele>45.8</ele>
        <time>2013-11-17T08:34:05Z</time>
      </trkpt>
      <trkpt lat="47.51787" lon="-0.60372">
        <ele>44.36</ele>
        <time>2013-11-17T08:34:08Z</time>
      </trkpt>
      <trkpt lat="47.51794" lon="-0.60368">
        <ele>44.36</ele>
        <time>2013-11-17T08:34:09Z</time>
      </trkpt>
      <trkpt lat="47.51801" lon="-0.60364">
        <ele>43.88</ele>
        <time>2013-11-17T08:34:10Z</time>
      </trkpt>
      <trkpt lat="47.5184" lon="-0.60335">
        <ele>42.44</ele>
        <time>2013-11-17T08:34:16Z</time>
      </trkpt>
      <trkpt lat="47.51869" lon="-0.60317">
        <ele>41.47</ele>
        <time>2013-11-17T08:34:21Z</time>
      </trkpt>
      <trkpt lat="47.51896" lon="-0.60303">
        <ele>40.99</ele>
        <time>2013-11-17T08:34:27Z</time>
      </trkpt>
      <trkpt lat="47.51916" lon="-0.60289">
        <ele>40.51</ele>
        <time>2013-11-17T08:34:32Z</time>
      </trkpt>
      <trkpt lat="47.51939" lon="-0.60265">
        <ele>40.51</ele>
        <time>2013-11-17T08:34:38Z</time>
      </trkpt>
      <trkpt lat="47.51976" lon="-0.60229">
        <ele>40.03</ele>
        <time>2013-11-17T08:34:46Z</time>
      </trkpt>
      <trkpt lat="47.52021" lon="-0.60184">
        <ele>39.07</ele>
        <time>2013-11-17T08:34:55Z</time>
      </trkpt>
      <trkpt lat="47.52061" lon="-0.60128">
        <ele>37.15</ele>
        <time>2013-11-17T08:35:04Z</time>
      </trkpt>
      <trkpt lat="47.52065" lon="-0.60122">
        <ele>37.63</ele>
        <time>2013-11-17T08:35:05Z</time>
      </trkpt>
      <trkpt lat="47.5207" lon="-0.60116">
        <ele>37.63</ele>
        <time>2013-11-17T08:35:06Z</time>
      </trkpt>
      <trkpt lat="47.5209" lon="-0.60087">
        <ele>36.67</ele>
        <time>2013-11-17T08:35:11Z</time>
      </trkpt>
      <trkpt lat="47.52102" lon="-0.60072">
        <ele>37.15</ele>
        <time>2013-11-17T08:35:14Z</time>
      </trkpt>
      <trkpt lat="47.52107" lon="-0.60068">
        <ele>36.19</ele>
        <time>2013-11-17T08:35:15Z</time>
      </trkpt>
      <trkpt lat="47.52111" lon="-0.60066">
        <ele>36.67</ele>
        <time>2013-11-17T08:35:16Z</time>
      </trkpt>
      <trkpt lat="47.52116" lon="-0.60063">
        <ele>36.67</ele>
        <time>2013-11-17T08:35:17Z</time>
      </trkpt>
      <trkpt lat="47.5212" lon="-0.60061">
        <ele>37.15</ele>
        <time>2013-11-17T08:35:18Z</time>
      </trkpt>
      <trkpt lat="47.52125" lon="-0.6006">
        <ele>37.15</ele>
        <time>2013-11-17T08:35:19Z</time>
      </trkpt>
      <trkpt lat="47.52129" lon="-0.60058">
        <ele>37.63</ele>
        <time>2013-11-17T08:35:20Z</time>
      </trkpt>
      <trkpt lat="47.52133" lon="-0.60055">
        <ele>37.63</ele>
        <time>2013-11-17T08:35:21Z</time>
      </trkpt>
      <trkpt lat="47.52158" lon="-0.60029">
        <ele>40.03</ele>
        <time>2013-11-17T08:35:27Z</time>
      </trkpt>
      <trkpt lat="47.52161" lon="-0.60025">
        <ele>40.51</ele>
        <time>2013-11-17T08:35:28Z</time>
      </trkpt>
      <trkpt lat="47.52164" lon="-0.60021">
        <ele>40.03</ele>
        <time>2013-11-17T08:35:29Z</time>
      </trkpt>
      <trkpt lat="47.52174" lon="-0.60007">
        <ele>41.47</ele>
        <time>2013-11-17T08:35:32Z</time>
      </trkpt>
      <trkpt lat="47.52193" lon="-0.5998">
        <ele>41.47</ele>
        <time>2013-11-17T08:35:38Z</time>
      </trkpt>
      <trkpt lat="47.52209" lon="-0.59957">
        <ele>40.99</ele>
        <time>2013-11-17T08:35:43Z</time>
      </trkpt>
      <trkpt lat="47.52215" lon="-0.59949">
        <ele>41.47</ele>
        <time>2013-11-17T08:35:45Z</time>
      </trkpt>
      <trkpt lat="47.52217" lon="-0.59926">
        <ele>40.51</ele>
        <time>2013-11-17T08:35:50Z</time>
      </trkpt>
      <trkpt lat="47.52215" lon="-0.59921">
        <ele>40.51</ele>
        <time>2013-11-17T08:35:51Z</time>
      </trkpt>
      <trkpt lat="47.5221" lon="-0.5991">
        <ele>40.03</ele>
        <time>2013-11-17T08:35:53Z</time>
      </trkpt>
      <trkpt lat="47.52196" lon="-0.59872">
        <ele>38.59</ele>
        <time>2013-11-17T08:35:59Z</time>
      </trkpt>
      <trkpt lat="47.52184" lon="-0.59829">
        <ele>38.11</ele>
        <time>2013-11-17T08:36:05Z</time>
      </trkpt>
      <trkpt lat="47.52178" lon="-0.59813">
        <ele>37.15</ele>
        <time>2013-11-17T08:36:07Z</time>
      </trkpt>
      <trkpt lat="47.5215" lon="-0.59771">
        <ele>34.74</ele>
        <time>2013-11-17T08:36:13Z</time>
      </trkpt>
      <trkpt lat="47.52111" lon="-0.5973">
        <ele>31.86</ele>
        <time>2013-11-17T08:36:19Z</time>
      </trkpt>
      <trkpt lat="47.5207" lon="-0.59693">
        <ele>30.9</ele>
        <time>2013-11-17T08:36:25Z</time>
      </trkpt>
      <trkpt lat="47.5206" lon="-0.59681">
        <ele>30.42</ele>
        <time>2013-11-17T08:36:27Z</time>
      </trkpt>
      <trkpt lat="47.52036" lon="-0.59643">
        <ele>29.46</ele>
        <time>2013-11-17T08:36:32Z</time>
      </trkpt>
      <trkpt lat="47.52018" lon="-0.59599">
        <ele>28.98</ele>
        <time>2013-11-17T08:36:37Z</time>
      </trkpt>
      <trkpt lat="47.51985" lon="-0.59559">
        <ele>28.98</ele>
        <time>2013-11-17T08:36:44Z</time>
      </trkpt>
      <trkpt lat="47.51968" lon="-0.59528">
        <ele>28.98</ele>
        <time>2013-11-17T08:36:48Z</time>
      </trkpt>
      <trkpt lat="47.5195" lon="-0.59491">
        <ele>28.5</ele>
        <time>2013-11-17T08:36:53Z</time>
      </trkpt>
      <trkpt lat="47.51932" lon="-0.59474">
        <ele>28.98</ele>
        <time>2013-11-17T08:36:56Z</time>
      </trkpt>
      <trkpt lat="47.51922" lon="-0.59463">
        <ele>29.46</ele>
        <time>2013-11-17T08:36:58Z</time>
      </trkpt>
      <trkpt lat="47.51908" lon="-0.59447">
        <ele>29.94</ele>
        <time>2013-11-17T08:37:01Z</time>
      </trkpt>
      <trkpt lat="47.51868" lon="-0.59403">
        <ele>30.9</ele>
        <time>2013-11-17T08:37:10Z</time>
      </trkpt>
      <trkpt lat="47.5186" lon="-0.59395">
        <ele>30.9</ele>
        <time>2013-11-17T08:37:12Z</time>
      </trkpt>
      <trkpt lat="47.5185" lon="-0.5938">
        <ele>31.86</ele>
        <time>2013-11-17T08:37:15Z</time>
      </trkpt>
      <trkpt lat="47.5183" lon="-0.59343">
        <ele>32.82</ele>
        <time>2013-11-17T08:37:22Z</time>
      </trkpt>
      <trkpt lat="47.51798" lon="-0.59315">
        <ele>34.26</ele>
        <time>2013-11-17T08:37:30Z</time>
      </trkpt>
      <trkpt lat="47.51786" lon="-0.59303">
        <ele>34.74</ele>
        <time>2013-11-17T08:37:33Z</time>
      </trkpt>
      <trkpt lat="47.51758" lon="-0.59271">
        <ele>37.63</ele>
        <time>2013-11-17T08:37:40Z</time>
      </trkpt>
      <trkpt lat="47.51754" lon="-0.59266">
        <ele>38.11</ele>
        <time>2013-11-17T08:37:41Z</time>
      </trkpt>
      <trkpt lat="47.51724" lon="-0.59221">
        <ele>40.51</ele>
        <time>2013-11-17T08:37:50Z</time>
      </trkpt>
      <trkpt lat="47.51714" lon="-0.59208">
        <ele>40.99</ele>
        <time>2013-11-17T08:37:53Z</time>
      </trkpt>
      <trkpt lat="47.51696" lon="-0.59178">
        <ele>43.4</ele>
        <time>2013-11-17T08:38:00Z</time>
      </trkpt>
      <trkpt lat="47.51684" lon="-0.59159">
        <ele>44.36</ele>
        <time>2013-11-17T08:38:05Z</time>
      </trkpt>
      <trkpt lat="47.51665" lon="-0.5913">
        <ele>45.32</ele>
        <time>2013-11-17T08:38:13Z</time>
      </trkpt>
      <trkpt lat="47.51659" lon="-0.59104">
        <ele>45.32</ele>
        <time>2013-11-17T08:38:19Z</time>
      </trkpt>
      <trkpt lat="47.51652" lon="-0.59066">
        <ele>45.8</ele>
        <time>2013-11-17T08:38:26Z</time>
      </trkpt>
      <trkpt lat="47.51647" lon="-0.59043">
        <ele>45.32</ele>
        <time>2013-11-17T08:38:30Z</time>
      </trkpt>
      <trkpt lat="47.5164" lon="-0.59005">
        <ele>45.32</ele>
        <time>2013-11-17T08:38:36Z</time>
      </trkpt>
      <trkpt lat="47.51632" lon="-0.58969">
        <ele>44.84</ele>
        <time>2013-11-17T08:38:41Z</time>
      </trkpt>
      <trkpt lat="47.51629" lon="-0.5893">
        <ele>43.88</ele>
        <time>2013-11-17T08:38:46Z</time>
      </trkpt>
      <trkpt lat="47.51626" lon="-0.58889">
        <ele>43.4</ele>
        <time>2013-11-17T08:38:51Z</time>
      </trkpt>
      <trkpt lat="47.51621" lon="-0.58835">
        <ele>42.44</ele>
        <time>2013-11-17T08:38:58Z</time>
      </trkpt>
      <trkpt lat="47.5162" lon="-0.58796">
        <ele>41.47</ele>
        <time>2013-11-17T08:39:03Z</time>
      </trkpt>
      <trkpt lat="47.51618" lon="-0.58759">
        <ele>40.03</ele>
        <time>2013-11-17T08:39:08Z</time>
      </trkpt>
      <trkpt lat="47.51629" lon="-0.58756">
        <ele>38.59</ele>
        <time>2013-11-17T08:39:13Z</time>
      </trkpt>
      <trkpt lat="47.51636" lon="-0.58762">
        <ele>38.11</ele>
        <time>2013-11-17T08:39:15Z</time>
      </trkpt>
      <trkpt lat="47.51644" lon="-0.5877">
        <ele>38.59</ele>
        <time>2013-11-17T08:39:17Z</time>
      </trkpt>
      <trkpt lat="47.51653" lon="-0.58775">
        <ele>38.59</ele>
        <time>2013-11-17T08:39:19Z</time>
      </trkpt>
      <trkpt lat="47.51693" lon="-0.58781">
        <ele>37.63</ele>
        <time>2013-11-17T08:39:26Z</time>
      </trkpt>
      <trkpt lat="47.51699" lon="-0.58782">
        <ele>37.15</ele>
        <time>2013-11-17T08:39:27Z</time>
      </trkpt>
      <trkpt lat="47.5172" lon="-0.58789">
        <ele>36.67</ele>
        <time>2013-11-17T08:39:31Z</time>
      </trkpt>
      <trkpt lat="47.51733" lon="-0.58787">
        <ele>36.67</ele>
        <time>2013-11-17T08:39:33Z</time>
      </trkpt>
      <trkpt lat="47.51775" lon="-0.58776">
        <ele>36.67</ele>
        <time>2013-11-17T08:39:39Z</time>
      </trkpt>
      <trkpt lat="47.51802" lon="-0.58774">
        <ele>36.19</ele>
        <time>2013-11-17T08:39:43Z</time>
      </trkpt>
      <trkpt lat="47.51859" lon="-0.58779">
        <ele>35.71</ele>
        <time>2013-11-17T08:39:52Z</time>
      </trkpt>
      <trkpt lat="47.51865" lon="-0.58779">
        <ele>35.71</ele>
        <time>2013-11-17T08:39:53Z</time>
      </trkpt>
      <trkpt lat="47.51909" lon="-0.58773">
        <ele>34.26</ele>
        <time>2013-11-17T08:40:00Z</time>
      </trkpt>
      <trkpt lat="47.51929" lon="-0.58763">
        <ele>34.26</ele>
        <time>2013-11-17T08:40:03Z</time>
      </trkpt>
      <trkpt lat="47.51946" lon="-0.58747">
        <ele>32.82</ele>
        <time>2013-11-17T08:40:06Z</time>
      </trkpt>
      <trkpt lat="47.51972" lon="-0.58731">
        <ele>30.9</ele>
        <time>2013-11-17T08:40:10Z</time>
      </trkpt>
      <trkpt lat="47.51978" lon="-0.58727">
        <ele>31.38</ele>
        <time>2013-11-17T08:40:11Z</time>
      </trkpt>
      <trkpt lat="47.51992" lon="-0.58705">
        <ele>29.94</ele>
        <time>2013-11-17T08:40:15Z</time>
      </trkpt>
      <trkpt lat="47.51996" lon="-0.58692">
        <ele>29.94</ele>
        <time>2013-11-17T08:40:17Z</time>
      </trkpt>
      <trkpt lat="47.52006" lon="-0.58668">
        <ele>29.94</ele>
        <time>2013-11-17T08:40:21Z</time>
      </trkpt>
      <trkpt lat="47.52034" lon="-0.58601">
        <ele>28.98</ele>
        <time>2013-11-17T08:40:31Z</time>
      </trkpt>
      <trkpt lat="47.52044" lon="-0.58594">
        <ele>27.53</ele>
        <time>2013-11-17T08:40:35Z</time>
      </trkpt>
      <trkpt lat="47.52049" lon="-0.586">
        <ele>27.53</ele>
        <time>2013-11-17T08:40:39Z</time>
      </trkpt>
      <trkpt lat="47.52065" lon="-0.58614">
        <ele>27.53</ele>
        <time>2013-11-17T08:40:45Z</time>
      </trkpt>
      <trkpt lat="47.52088" lon="-0.58632">
        <ele>27.53</ele>
        <time>2013-11-17T08:40:51Z</time>
      </trkpt>
      <trkpt lat="47.5211" lon="-0.58644">
        <ele>27.53</ele>
        <time>2013-11-17T08:40:56Z</time>
      </trkpt>
      <trkpt lat="47.52127" lon="-0.58646">
        <ele>28.02</ele>
        <time>2013-11-17T08:41:00Z</time>
      </trkpt>
      <trkpt lat="47.52141" lon="-0.58649">
        <ele>27.53</ele>
        <time>2013-11-17T08:41:03Z</time>
      </trkpt>
      <trkpt lat="47.52185" lon="-0.58676">
        <ele>26.57</ele>
        <time>2013-11-17T08:41:12Z</time>
      </trkpt>
      <trkpt lat="47.52204" lon="-0.58692">
        <ele>27.05</ele>
        <time>2013-11-17T08:41:16Z</time>
      </trkpt>
      <trkpt lat="47.52237" lon="-0.58718">
        <ele>27.53</ele>
        <time>2013-11-17T08:41:23Z</time>
      </trkpt>
      <trkpt lat="47.52264" lon="-0.5874">
        <ele>27.53</ele>
        <time>2013-11-17T08:41:29Z</time>
      </trkpt>
      <trkpt lat="47.52291" lon="-0.58769">
        <ele>26.09</ele>
        <time>2013-11-17T08:41:34Z</time>
      </trkpt>
      <trkpt lat="47.52302" lon="-0.58782">
        <ele>25.13</ele>
        <time>2013-11-17T08:41:36Z</time>
      </trkpt>
      <trkpt lat="47.52321" lon="-0.58798">
        <ele>24.17</ele>
        <time>2013-11-17T08:41:39Z</time>
      </trkpt>
      <trkpt lat="47.52347" lon="-0.58811">
        <ele>22.73</ele>
        <time>2013-11-17T08:41:43Z</time>
      </trkpt>
      <trkpt lat="47.52364" lon="-0.58826">
        <ele>22.73</ele>
        <time>2013-11-17T08:41:46Z</time>
      </trkpt>
      <trkpt lat="47.52393" lon="-0.58842">
        <ele>23.21</ele>
        <time>2013-11-17T08:41:51Z</time>
      </trkpt>
      <trkpt lat="47.52413" lon="-0.58856">
        <ele>22.73</ele>
        <time>2013-11-17T08:41:55Z</time>
      </trkpt>
      <trkpt lat="47.52433" lon="-0.58869">
        <ele>22.73</ele>
        <time>2013-11-17T08:41:59Z</time>
      </trkpt>
      <trkpt lat="47.5246" lon="-0.58878">
        <ele>22.73</ele>
        <time>2013-11-17T08:42:04Z</time>
      </trkpt>
      <trkpt lat="47.52498" lon="-0.5889">
        <ele>20.81</ele>
        <time>2013-11-17T08:42:11Z</time>
      </trkpt>
      <trkpt lat="47.52532" lon="-0.589">
        <ele>20.81</ele>
        <time>2013-11-17T08:42:18Z</time>
      </trkpt>
      <trkpt lat="47.52538" lon="-0.58899">
        <ele>20.32</ele>
        <time>2013-11-17T08:42:22Z</time>
      </trkpt>
      <trkpt lat="47.52538" lon="-0.58899">
        <ele>20.81</ele>
        <time>2013-11-17T08:42:37Z</time>
      </trkpt>
      <trkpt lat="47.52538" lon="-0.58899">
        <ele>20.81</ele>
        <time>2013-11-17T08:42:56Z</time>
      </trkpt>
      <trkpt lat="47.52539" lon="-0.58899">
        <ele>20.32</ele>
        <time>2013-11-17T08:43:11Z</time>
      </trkpt>
      <trkpt lat="47.5254" lon="-0.58899">
        <ele>20.32</ele>
        <time>2013-11-17T08:43:26Z</time>
      </trkpt>
      <trkpt lat="47.52555" lon="-0.58906">
        <ele>20.81</ele>
        <time>2013-11-17T08:43:33Z</time>
      </trkpt>
      <trkpt lat="47.52579" lon="-0.58915">
        <ele>20.81</ele>
        <time>2013-11-17T08:43:39Z</time>
      </trkpt>
      <trkpt lat="47.52601" lon="-0.58923">
        <ele>20.81</ele>
        <time>2013-11-17T08:43:44Z</time>
      </trkpt>
      <trkpt lat="47.52632" lon="-0.58933">
        <ele>20.32</ele>
        <time>2013-11-17T08:43:52Z</time>
      </trkpt>
      <trkpt lat="47.52656" lon="-0.58941">
        <ele>20.32</ele>
        <time>2013-11-17T08:43:58Z</time>
      </trkpt>
      <trkpt lat="47.52672" lon="-0.58947">
        <ele>20.32</ele>
        <time>2013-11-17T08:44:02Z</time>
      </trkpt>
      <trkpt lat="47.52704" lon="-0.58963">
        <ele>20.32</ele>
        <time>2013-11-17T08:44:09Z</time>
      </trkpt>
      <trkpt lat="47.52724" lon="-0.58973">
        <ele>19.84</ele>
        <time>2013-11-17T08:44:13Z</time>
      </trkpt>
      <trkpt lat="47.52759" lon="-0.59006">
        <ele>20.81</ele>
        <time>2013-11-17T08:44:21Z</time>
      </trkpt>
      <trkpt lat="47.52781" lon="-0.5901">
        <ele>19.84</ele>
        <time>2013-11-17T08:44:25Z</time>
      </trkpt>
      <trkpt lat="47.52786" lon="-0.59006">
        <ele>20.32</ele>
        <time>2013-11-17T08:44:26Z</time>
      </trkpt>
      <trkpt lat="47.52815" lon="-0.5898">
        <ele>20.32</ele>
        <time>2013-11-17T08:44:32Z</time>
      </trkpt>
      <trkpt lat="47.52831" lon="-0.5897">
        <ele>19.36</ele>
        <time>2013-11-17T08:44:35Z</time>
      </trkpt>
      <trkpt lat="47.52884" lon="-0.58949">
        <ele>19.84</ele>
        <time>2013-11-17T08:44:44Z</time>
      </trkpt>
      <trkpt lat="47.52895" lon="-0.58944">
        <ele>19.36</ele>
        <time>2013-11-17T08:44:46Z</time>
      </trkpt>
      <trkpt lat="47.52924" lon="-0.58934">
        <ele>18.88</ele>
        <time>2013-11-17T08:44:52Z</time>
      </trkpt>
      <trkpt lat="47.52932" lon="-0.58935">
        <ele>18.4</ele>
        <time>2013-11-17T08:44:55Z</time>
      </trkpt>
      <trkpt lat="47.52937" lon="-0.58956">
        <ele>17.92</ele>
        <time>2013-11-17T08:44:59Z</time>
      </trkpt>
      <trkpt lat="47.5294" lon="-0.58982">
        <ele>17.92</ele>
        <time>2013-11-17T08:45:03Z</time>
      </trkpt>
      <trkpt lat="47.5295" lon="-0.59046">
        <ele>18.88</ele>
        <time>2013-11-17T08:45:12Z</time>
      </trkpt>
      <trkpt lat="47.52955" lon="-0.59099">
        <ele>18.88</ele>
        <time>2013-11-17T08:45:19Z</time>
      </trkpt>
      <trkpt lat="47.52955" lon="-0.59121">
        <ele>18.88</ele>
        <time>2013-11-17T08:45:22Z</time>
      </trkpt>
      <trkpt lat="47.52964" lon="-0.59152">
        <ele>19.36</ele>
        <time>2013-11-17T08:45:27Z</time>
      </trkpt>
      <trkpt lat="47.5298" lon="-0.59167">
        <ele>19.36</ele>
        <time>2013-11-17T08:45:31Z</time>
      </trkpt>
      <trkpt lat="47.5299" lon="-0.59182">
        <ele>19.36</ele>
        <time>2013-11-17T08:45:34Z</time>
      </trkpt>
      <trkpt lat="47.53024" lon="-0.5924">
        <ele>19.36</ele>
        <time>2013-11-17T08:45:44Z</time>
      </trkpt>
      <trkpt lat="47.53045" lon="-0.59301">
        <ele>19.84</ele>
        <time>2013-11-17T08:45:53Z</time>
      </trkpt>
      <trkpt lat="47.53053" lon="-0.59328">
        <ele>20.81</ele>
        <time>2013-11-17T08:45:57Z</time>
      </trkpt>
      <trkpt lat="47.5307" lon="-0.59377">
        <ele>22.25</ele>
        <time>2013-11-17T08:46:05Z</time>
      </trkpt>
      <trkpt lat="47.53084" lon="-0.59414">
        <ele>23.69</ele>
        <time>2013-11-17T08:46:12Z</time>
      </trkpt>
      <trkpt lat="47.53092" lon="-0.59436">
        <ele>25.61</ele>
        <time>2013-11-17T08:46:16Z</time>
      </trkpt>
      <trkpt lat="47.53106" lon="-0.59478">
        <ele>28.02</ele>
        <time>2013-11-17T08:46:23Z</time>
      </trkpt>
      <trkpt lat="47.53112" lon="-0.59504">
        <ele>29.46</ele>
        <time>2013-11-17T08:46:27Z</time>
      </trkpt>
      <trkpt lat="47.53116" lon="-0.59524">
        <ele>30.9</ele>
        <time>2013-11-17T08:46:30Z</time>
      </trkpt>
      <trkpt lat="47.53118" lon="-0.59536">
        <ele>30.9</ele>
        <time>2013-11-17T08:46:32Z</time>
      </trkpt>
      <trkpt lat="47.5312" lon="-0.59555">
        <ele>32.34</ele>
        <time>2013-11-17T08:46:35Z</time>
      </trkpt>
      <trkpt lat="47.53116" lon="-0.59591">
        <ele>33.78</ele>
        <time>2013-11-17T08:46:42Z</time>
      </trkpt>
      <trkpt lat="47.53122" lon="-0.5961">
        <ele>34.26</ele>
        <time>2013-11-17T08:46:48Z</time>
      </trkpt>
      <trkpt lat="47.53128" lon="-0.59622">
        <ele>33.78</ele>
        <time>2013-11-17T08:46:52Z</time>
      </trkpt>
      <trkpt lat="47.53134" lon="-0.59631">
        <ele>33.78</ele>
        <time>2013-11-17T08:46:59Z</time>
      </trkpt>
      <trkpt lat="47.53134" lon="-0.59631">
        <ele>33.78</ele>
        <time>2013-11-17T08:47:11Z</time>
      </trkpt>
      <trkpt lat="47.53134" lon="-0.59631">
        <ele>33.78</ele>
        <time>2013-11-17T08:47:24Z</time>
      </trkpt>
      <trkpt lat="47.53134" lon="-0.59632">
        <ele>33.78</ele>
        <time>2013-11-17T08:47:38Z</time>
      </trkpt>
      <trkpt lat="47.53134" lon="-0.59632">
        <ele>33.78</ele>
        <time>2013-11-17T08:47:52Z</time>
      </trkpt>
      <trkpt lat="47.53134" lon="-0.59631">
        <ele>33.78</ele>
        <time>2013-11-17T08:48:03Z</time>
      </trkpt>
      <trkpt lat="47.53134" lon="-0.59632">
        <ele>34.26</ele>
        <time>2013-11-17T08:48:16Z</time>
      </trkpt>
      <trkpt lat="47.53134" lon="-0.59632">
        <ele>33.78</ele>
        <time>2013-11-17T08:48:18Z</time>
      </trkpt>
      <trkpt lat="47.53145" lon="-0.59635">
        <ele>32.82</ele>
        <time>2013-11-17T08:48:22Z</time>
      </trkpt>
      <trkpt lat="47.53154" lon="-0.59639">
        <ele>32.34</ele>
        <time>2013-11-17T08:48:24Z</time>
      </trkpt>
      <trkpt lat="47.53166" lon="-0.59643">
        <ele>31.38</ele>
        <time>2013-11-17T08:48:26Z</time>
      </trkpt>
      <trkpt lat="47.53174" lon="-0.59645">
        <ele>30.9</ele>
        <time>2013-11-17T08:48:27Z</time>
      </trkpt>
      <trkpt lat="47.53202" lon="-0.59663">
        <ele>28.02</ele>
        <time>2013-11-17T08:48:31Z</time>
      </trkpt>
      <trkpt lat="47.53233" lon="-0.59677">
        <ele>25.13</ele>
        <time>2013-11-17T08:48:35Z</time>
      </trkpt>
      <trkpt lat="47.53261" lon="-0.59677">
        <ele>23.69</ele>
        <time>2013-11-17T08:48:38Z</time>
      </trkpt>
      <trkpt lat="47.53303" lon="-0.59675">
        <ele>20.32</ele>
        <time>2013-11-17T08:48:43Z</time>
      </trkpt>
      <trkpt lat="47.53322" lon="-0.59673">
        <ele>18.88</ele>
        <time>2013-11-17T08:48:46Z</time>
      </trkpt>
      <trkpt lat="47.53333" lon="-0.59682">
        <ele>18.88</ele>
        <time>2013-11-17T08:48:48Z</time>
      </trkpt>
      <trkpt lat="47.53349" lon="-0.59703">
        <ele>17.44</ele>
        <time>2013-11-17T08:48:53Z</time>
      </trkpt>
      <trkpt lat="47.5335" lon="-0.59725">
        <ele>16.48</ele>
        <time>2013-11-17T08:48:57Z</time>
      </trkpt>
      <trkpt lat="47.53342" lon="-0.59781">
        <ele>16.48</ele>
        <time>2013-11-17T08:49:05Z</time>
      </trkpt>
      <trkpt lat="47.53341" lon="-0.59787">
        <ele>16.48</ele>
        <time>2013-11-17T08:49:06Z</time>
      </trkpt>
      <trkpt lat="47.53328" lon="-0.59849">
        <ele>16</ele>
        <time>2013-11-17T08:49:15Z</time>
      </trkpt>
      <trkpt lat="47.53326" lon="-0.59855">
        <ele>16</ele>
        <time>2013-11-17T08:49:16Z</time>
      </trkpt>
      <trkpt lat="47.53324" lon="-0.59862">
        <ele>16</ele>
        <time>2013-11-17T08:49:17Z</time>
      </trkpt>
      <trkpt lat="47.53323" lon="-0.59869">
        <ele>16</ele>
        <time>2013-11-17T08:49:18Z</time>
      </trkpt>
      <trkpt lat="47.53321" lon="-0.59891">
        <ele>15.52</ele>
        <time>2013-11-17T08:49:21Z</time>
      </trkpt>
      <trkpt lat="47.53319" lon="-0.59898">
        <ele>16</ele>
        <time>2013-11-17T08:49:22Z</time>
      </trkpt>
      <trkpt lat="47.53305" lon="-0.59945">
        <ele>16</ele>
        <time>2013-11-17T08:49:29Z</time>
      </trkpt>
      <trkpt lat="47.53302" lon="-0.59958">
        <ele>16.48</ele>
        <time>2013-11-17T08:49:31Z</time>
      </trkpt>
      <trkpt lat="47.53296" lon="-0.59976">
        <ele>16</ele>
        <time>2013-11-17T08:49:34Z</time>
      </trkpt>
      <trkpt lat="47.53294" lon="-0.59982">
        <ele>16</ele>
        <time>2013-11-17T08:49:35Z</time>
      </trkpt>
      <trkpt lat="47.53281" lon="-0.60017">
        <ele>16</ele>
        <time>2013-11-17T08:49:41Z</time>
      </trkpt>
      <trkpt lat="47.53274" lon="-0.60031">
        <ele>16.48</ele>
        <time>2013-11-17T08:49:44Z</time>
      </trkpt>
      <trkpt lat="47.53271" lon="-0.60036">
        <ele>16</ele>
        <time>2013-11-17T08:49:45Z</time>
      </trkpt>
      <trkpt lat="47.53269" lon="-0.60041">
        <ele>16.48</ele>
        <time>2013-11-17T08:49:46Z</time>
      </trkpt>
      <trkpt lat="47.53268" lon="-0.60046">
        <ele>16.48</ele>
        <time>2013-11-17T08:49:47Z</time>
      </trkpt>
      <trkpt lat="47.53267" lon="-0.60052">
        <ele>16.96</ele>
        <time>2013-11-17T08:49:48Z</time>
      </trkpt>
      <trkpt lat="47.53266" lon="-0.60076">
        <ele>16.96</ele>
        <time>2013-11-17T08:49:52Z</time>
      </trkpt>
      <trkpt lat="47.53263" lon="-0.60099">
        <ele>17.44</ele>
        <time>2013-11-17T08:49:56Z</time>
      </trkpt>
      <trkpt lat="47.53261" lon="-0.60117">
        <ele>17.44</ele>
        <time>2013-11-17T08:49:59Z</time>
      </trkpt>
      <trkpt lat="47.53254" lon="-0.60153">
        <ele>17.92</ele>
        <time>2013-11-17T08:50:05Z</time>
      </trkpt>
      <trkpt lat="47.53251" lon="-0.6016">
        <ele>17.92</ele>
        <time>2013-11-17T08:50:06Z</time>
      </trkpt>
      <trkpt lat="47.53244" lon="-0.60188">
        <ele>17.92</ele>
        <time>2013-11-17T08:50:10Z</time>
      </trkpt>
      <trkpt lat="47.53235" lon="-0.60221">
        <ele>17.92</ele>
        <time>2013-11-17T08:50:15Z</time>
      </trkpt>
      <trkpt lat="47.53232" lon="-0.60235">
        <ele>18.4</ele>
        <time>2013-11-17T08:50:17Z</time>
      </trkpt>
      <trkpt lat="47.53226" lon="-0.60256">
        <ele>17.92</ele>
        <time>2013-11-17T08:50:20Z</time>
      </trkpt>
      <trkpt lat="47.53214" lon="-0.60297">
        <ele>17.92</ele>
        <time>2013-11-17T08:50:26Z</time>
      </trkpt>
      <trkpt lat="47.53192" lon="-0.60345">
        <ele>17.92</ele>
        <time>2013-11-17T08:50:34Z</time>
      </trkpt>
      <trkpt lat="47.53184" lon="-0.60361">
        <ele>18.4</ele>
        <time>2013-11-17T08:50:37Z</time>
      </trkpt>
      <trkpt lat="47.53179" lon="-0.60374">
        <ele>18.4</ele>
        <time>2013-11-17T08:50:39Z</time>
      </trkpt>
      <trkpt lat="47.5316" lon="-0.6042">
        <ele>18.4</ele>
        <time>2013-11-17T08:50:46Z</time>
      </trkpt>
      <trkpt lat="47.5315" lon="-0.60445">
        <ele>18.4</ele>
        <time>2013-11-17T08:50:50Z</time>
      </trkpt>
      <trkpt lat="47.53137" lon="-0.60485">
        <ele>18.88</ele>
        <time>2013-11-17T08:50:57Z</time>
      </trkpt>
      <trkpt lat="47.53125" lon="-0.60522">
        <ele>18.88</ele>
        <time>2013-11-17T08:51:03Z</time>
      </trkpt>
      <trkpt lat="47.53119" lon="-0.60546">
        <ele>18.4</ele>
        <time>2013-11-17T08:51:07Z</time>
      </trkpt>
      <trkpt lat="47.53108" lon="-0.6061">
        <ele>18.4</ele>
        <time>2013-11-17T08:51:16Z</time>
      </trkpt>
      <trkpt lat="47.53101" lon="-0.60648">
        <ele>18.4</ele>
        <time>2013-11-17T08:51:21Z</time>
      </trkpt>
      <trkpt lat="47.53093" lon="-0.60682">
        <ele>17.92</ele>
        <time>2013-11-17T08:51:26Z</time>
      </trkpt>
      <trkpt lat="47.53088" lon="-0.60721">
        <ele>17.92</ele>
        <time>2013-11-17T08:51:32Z</time>
      </trkpt>
      <trkpt lat="47.53082" lon="-0.60756">
        <ele>18.4</ele>
        <time>2013-11-17T08:51:38Z</time>
      </trkpt>
      <trkpt lat="47.53081" lon="-0.60763">
        <ele>18.88</ele>
        <time>2013-11-17T08:51:39Z</time>
      </trkpt>
      <trkpt lat="47.53076" lon="-0.60792">
        <ele>18.88</ele>
        <time>2013-11-17T08:51:43Z</time>
      </trkpt>
      <trkpt lat="47.53073" lon="-0.60814">
        <ele>18.88</ele>
        <time>2013-11-17T08:51:46Z</time>
      </trkpt>
      <trkpt lat="47.53073" lon="-0.60843">
        <ele>18.4</ele>
        <time>2013-11-17T08:51:50Z</time>
      </trkpt>
      <trkpt lat="47.53074" lon="-0.6087">
        <ele>18.88</ele>
        <time>2013-11-17T08:51:54Z</time>
      </trkpt>
      <trkpt lat="47.53079" lon="-0.60903">
        <ele>18.4</ele>
        <time>2013-11-17T08:51:59Z</time>
      </trkpt>
      <trkpt lat="47.5308" lon="-0.60923">
        <ele>18.4</ele>
        <time>2013-11-17T08:52:02Z</time>
      </trkpt>
      <trkpt lat="47.53083" lon="-0.60943">
        <ele>18.88</ele>
        <time>2013-11-17T08:52:05Z</time>
      </trkpt>
      <trkpt lat="47.53085" lon="-0.60971">
        <ele>18.88</ele>
        <time>2013-11-17T08:52:09Z</time>
      </trkpt>
      <trkpt lat="47.53086" lon="-0.60987">
        <ele>18.88</ele>
        <time>2013-11-17T08:52:11Z</time>
      </trkpt>
      <trkpt lat="47.53092" lon="-0.61016">
        <ele>19.36</ele>
        <time>2013-11-17T08:52:15Z</time>
      </trkpt>
      <trkpt lat="47.53098" lon="-0.61038">
        <ele>19.84</ele>
        <time>2013-11-17T08:52:18Z</time>
      </trkpt>
      <trkpt lat="47.53102" lon="-0.61051">
        <ele>18.88</ele>
        <time>2013-11-17T08:52:20Z</time>
      </trkpt>
      <trkpt lat="47.5311" lon="-0.61086">
        <ele>18.88</ele>
        <time>2013-11-17T08:52:25Z</time>
      </trkpt>
      <trkpt lat="47.53127" lon="-0.61128">
        <ele>18.4</ele>
        <time>2013-11-17T08:52:32Z</time>
      </trkpt>
      <trkpt lat="47.53136" lon="-0.61147">
        <ele>19.36</ele>
        <time>2013-11-17T08:52:35Z</time>
      </trkpt>
      <trkpt lat="47.53161" lon="-0.61195">
        <ele>18.4</ele>
        <time>2013-11-17T08:52:43Z</time>
      </trkpt>
      <trkpt lat="47.53169" lon="-0.61211">
        <ele>18.88</ele>
        <time>2013-11-17T08:52:46Z</time>
      </trkpt>
      <trkpt lat="47.5318" lon="-0.61234">
        <ele>18.4</ele>
        <time>2013-11-17T08:52:50Z</time>
      </trkpt>
      <trkpt lat="47.53194" lon="-0.6126">
        <ele>17.92</ele>
        <time>2013-11-17T08:52:55Z</time>
      </trkpt>
      <trkpt lat="47.53211" lon="-0.61279">
        <ele>18.4</ele>
        <time>2013-11-17T08:52:59Z</time>
      </trkpt>
      <trkpt lat="47.53231" lon="-0.61308">
        <ele>19.36</ele>
        <time>2013-11-17T08:53:04Z</time>
      </trkpt>
      <trkpt lat="47.53238" lon="-0.61316">
        <ele>18.88</ele>
        <time>2013-11-17T08:53:06Z</time>
      </trkpt>
      <trkpt lat="47.53262" lon="-0.61351">
        <ele>18.88</ele>
        <time>2013-11-17T08:53:13Z</time>
      </trkpt>
      <trkpt lat="47.53264" lon="-0.61355">
        <ele>18.88</ele>
        <time>2013-11-17T08:53:14Z</time>
      </trkpt>
      <trkpt lat="47.53288" lon="-0.61387">
        <ele>18.4</ele>
        <time>2013-11-17T08:53:20Z</time>
      </trkpt>
      <trkpt lat="47.53313" lon="-0.61415">
        <ele>18.88</ele>
        <time>2013-11-17T08:53:25Z</time>
      </trkpt>
      <trkpt lat="47.53343" lon="-0.61446">
        <ele>18.88</ele>
        <time>2013-11-17T08:53:32Z</time>
      </trkpt>
      <trkpt lat="47.53361" lon="-0.61467">
        <ele>19.84</ele>
        <time>2013-11-17T08:53:37Z</time>
      </trkpt>
      <trkpt lat="47.53387" lon="-0.61486">
        <ele>19.36</ele>
        <time>2013-11-17T08:53:43Z</time>
      </trkpt>
      <trkpt lat="47.53394" lon="-0.61493">
        <ele>18.4</ele>
        <time>2013-11-17T08:53:45Z</time>
      </trkpt>
      <trkpt lat="47.53422" lon="-0.61517">
        <ele>19.36</ele>
        <time>2013-11-17T08:53:51Z</time>
      </trkpt>
      <trkpt lat="47.53456" lon="-0.61549">
        <ele>20.32</ele>
        <time>2013-11-17T08:53:59Z</time>
      </trkpt>
      <trkpt lat="47.53472" lon="-0.61565">
        <ele>19.36</ele>
        <time>2013-11-17T08:54:03Z</time>
      </trkpt>
      <trkpt lat="47.53491" lon="-0.61578">
        <ele>18.88</ele>
        <time>2013-11-17T08:54:07Z</time>
      </trkpt>
      <trkpt lat="47.53509" lon="-0.61585">
        <ele>18.4</ele>
        <time>2013-11-17T08:54:11Z</time>
      </trkpt>
      <trkpt lat="47.53519" lon="-0.61586">
        <ele>17.92</ele>
        <time>2013-11-17T08:54:13Z</time>
      </trkpt>
      <trkpt lat="47.53539" lon="-0.61597">
        <ele>18.4</ele>
        <time>2013-11-17T08:54:17Z</time>
      </trkpt>
      <trkpt lat="47.53576" lon="-0.61604">
        <ele>17.92</ele>
        <time>2013-11-17T08:54:24Z</time>
      </trkpt>
      <trkpt lat="47.53616" lon="-0.61606">
        <ele>18.4</ele>
        <time>2013-11-17T08:54:32Z</time>
      </trkpt>
      <trkpt lat="47.53647" lon="-0.61606">
        <ele>18.4</ele>
        <time>2013-11-17T08:54:38Z</time>
      </trkpt>
      <trkpt lat="47.53657" lon="-0.61603">
        <ele>18.88</ele>
        <time>2013-11-17T08:54:40Z</time>
      </trkpt>
      <trkpt lat="47.53706" lon="-0.61594">
        <ele>17.92</ele>
        <time>2013-11-17T08:54:50Z</time>
      </trkpt>
      <trkpt lat="47.53726" lon="-0.61589">
        <ele>18.4</ele>
        <time>2013-11-17T08:54:54Z</time>
      </trkpt>
      <trkpt lat="47.53755" lon="-0.6158">
        <ele>17.92</ele>
        <time>2013-11-17T08:55:01Z</time>
      </trkpt>
      <trkpt lat="47.53781" lon="-0.61571">
        <ele>17.92</ele>
        <time>2013-11-17T08:55:09Z</time>
      </trkpt>
      <trkpt lat="47.53799" lon="-0.61564">
        <ele>17.92</ele>
        <time>2013-11-17T08:55:15Z</time>
      </trkpt>
      <trkpt lat="47.53817" lon="-0.61557">
        <ele>17.92</ele>
        <time>2013-11-17T08:55:22Z</time>
      </trkpt>
      <trkpt lat="47.53831" lon="-0.61551">
        <ele>17.92</ele>
        <time>2013-11-17T08:55:28Z</time>
      </trkpt>
      <trkpt lat="47.53851" lon="-0.61543">
        <ele>17.44</ele>
        <time>2013-11-17T08:55:34Z</time>
      </trkpt>
      <trkpt lat="47.53871" lon="-0.61536">
        <ele>17.44</ele>
        <time>2013-11-17T08:55:41Z</time>
      </trkpt>
      <trkpt lat="47.53892" lon="-0.61523">
        <ele>17.92</ele>
        <time>2013-11-17T08:55:49Z</time>
      </trkpt>
      <trkpt lat="47.53916" lon="-0.6151">
        <ele>18.4</ele>
        <time>2013-11-17T08:55:57Z</time>
      </trkpt>
      <trkpt lat="47.53935" lon="-0.61496">
        <ele>18.4</ele>
        <time>2013-11-17T08:56:03Z</time>
      </trkpt>
      <trkpt lat="47.53953" lon="-0.61485">
        <ele>17.92</ele>
        <time>2013-11-17T08:56:09Z</time>
      </trkpt>
      <trkpt lat="47.53974" lon="-0.61472">
        <ele>18.4</ele>
        <time>2013-11-17T08:56:16Z</time>
      </trkpt>
      <trkpt lat="47.53997" lon="-0.61451">
        <ele>18.88</ele>
        <time>2013-11-17T08:56:24Z</time>
      </trkpt>
      <trkpt lat="47.54013" lon="-0.6145">
        <ele>18.4</ele>
        <time>2013-11-17T08:56:29Z</time>
      </trkpt>
      <trkpt lat="47.54019" lon="-0.61477">
        <ele>19.36</ele>
        <time>2013-11-17T08:56:35Z</time>
      </trkpt>
      <trkpt lat="47.54025" lon="-0.61517">
        <ele>19.36</ele>
        <time>2013-11-17T08:56:43Z</time>
      </trkpt>
      <trkpt lat="47.54027" lon="-0.61546">
        <ele>20.32</ele>
        <time>2013-11-17T08:56:50Z</time>
      </trkpt>
      <trkpt lat="47.54026" lon="-0.61557">
        <ele>20.32</ele>
        <time>2013-11-17T08:56:55Z</time>
      </trkpt>
      <trkpt lat="47.54025" lon="-0.61565">
        <ele>20.81</ele>
        <time>2013-11-17T08:57:00Z</time>
      </trkpt>
      <trkpt lat="47.54025" lon="-0.61574">
        <ele>21.29</ele>
        <time>2013-11-17T08:57:07Z</time>
      </trkpt>
      <trkpt lat="47.54023" lon="-0.61585">
        <ele>21.29</ele>
        <time>2013-11-17T08:57:13Z</time>
      </trkpt>
      <trkpt lat="47.54019" lon="-0.61587">
        <ele>21.29</ele>
        <time>2013-11-17T08:57:14Z</time>
      </trkpt>
      <trkpt lat="47.53999" lon="-0.6158">
        <ele>21.29</ele>
        <time>2013-11-17T08:57:21Z</time>
      </trkpt>
      <trkpt lat="47.53988" lon="-0.61564">
        <ele>22.25</ele>
        <time>2013-11-17T08:57:28Z</time>
      </trkpt>
      <trkpt lat="47.53987" lon="-0.61562">
        <ele>21.77</ele>
        <time>2013-11-17T08:57:33Z</time>
      </trkpt>
      <trkpt lat="47.53985" lon="-0.61556">
        <ele>22.25</ele>
        <time>2013-11-17T08:57:35Z</time>
      </trkpt>
      <trkpt lat="47.5399" lon="-0.61528">
        <ele>21.77</ele>
        <time>2013-11-17T08:57:41Z</time>
      </trkpt>
      <trkpt lat="47.53996" lon="-0.61474">
        <ele>22.73</ele>
        <time>2013-11-17T08:57:50Z</time>
      </trkpt>
      <trkpt lat="47.53999" lon="-0.61413">
        <ele>24.65</ele>
        <time>2013-11-17T08:57:59Z</time>
      </trkpt>
      <trkpt lat="47.54003" lon="-0.61348">
        <ele>24.65</ele>
        <time>2013-11-17T08:58:07Z</time>
      </trkpt>
      <trkpt lat="47.54006" lon="-0.61273">
        <ele>23.69</ele>
        <time>2013-11-17T08:58:15Z</time>
      </trkpt>
      <trkpt lat="47.5401" lon="-0.61173">
        <ele>22.25</ele>
        <time>2013-11-17T08:58:24Z</time>
      </trkpt>
      <trkpt lat="47.54016" lon="-0.61087">
        <ele>22.25</ele>
        <time>2013-11-17T08:58:32Z</time>
      </trkpt>
      <trkpt lat="47.54026" lon="-0.61048">
        <ele>22.25</ele>
        <time>2013-11-17T08:58:36Z</time>
      </trkpt>
      <trkpt lat="47.54038" lon="-0.61024">
        <ele>21.77</ele>
        <time>2013-11-17T08:58:39Z</time>
      </trkpt>
      <trkpt lat="47.54074" lon="-0.60977">
        <ele>21.77</ele>
        <time>2013-11-17T08:58:47Z</time>
      </trkpt>
      <trkpt lat="47.5408" lon="-0.60972">
        <ele>22.25</ele>
        <time>2013-11-17T08:58:48Z</time>
      </trkpt>
      <trkpt lat="47.54128" lon="-0.60944">
        <ele>21.77</ele>
        <time>2013-11-17T08:58:57Z</time>
      </trkpt>
      <trkpt lat="47.54136" lon="-0.60917">
        <ele>21.29</ele>
        <time>2013-11-17T08:59:01Z</time>
      </trkpt>
      <trkpt lat="47.54125" lon="-0.60888">
        <ele>21.77</ele>
        <time>2013-11-17T08:59:05Z</time>
      </trkpt>
      <trkpt lat="47.54117" lon="-0.60857">
        <ele>22.25</ele>
        <time>2013-11-17T08:59:09Z</time>
      </trkpt>
      <trkpt lat="47.54123" lon="-0.60838">
        <ele>22.25</ele>
        <time>2013-11-17T08:59:13Z</time>
      </trkpt>
      <trkpt lat="47.54141" lon="-0.60826">
        <ele>21.29</ele>
        <time>2013-11-17T08:59:17Z</time>
      </trkpt>
      <trkpt lat="47.54166" lon="-0.60803">
        <ele>22.73</ele>
        <time>2013-11-17T08:59:22Z</time>
      </trkpt>
      <trkpt lat="47.54175" lon="-0.60792">
        <ele>23.21</ele>
        <time>2013-11-17T08:59:24Z</time>
      </trkpt>
      <trkpt lat="47.54191" lon="-0.60757">
        <ele>22.73</ele>
        <time>2013-11-17T08:59:29Z</time>
      </trkpt>
      <trkpt lat="47.54196" lon="-0.60742">
        <ele>22.73</ele>
        <time>2013-11-17T08:59:31Z</time>
      </trkpt>
      <trkpt lat="47.54225" lon="-0.60702">
        <ele>23.21</ele>
        <time>2013-11-17T08:59:38Z</time>
      </trkpt>
      <trkpt lat="47.54252" lon="-0.60671">
        <ele>24.17</ele>
        <time>2013-11-17T08:59:45Z</time>
      </trkpt>
      <trkpt lat="47.54268" lon="-0.60652">
        <ele>25.61</ele>
        <time>2013-11-17T08:59:49Z</time>
      </trkpt>
      <trkpt lat="47.54301" lon="-0.60596">
        <ele>26.09</ele>
        <time>2013-11-17T08:59:59Z</time>
      </trkpt>
      <trkpt lat="47.54337" lon="-0.60529">
        <ele>25.13</ele>
        <time>2013-11-17T09:00:10Z</time>
      </trkpt>
      <trkpt lat="47.54365" lon="-0.60478">
        <ele>25.61</ele>
        <time>2013-11-17T09:00:18Z</time>
      </trkpt>
      <trkpt lat="47.544" lon="-0.60439">
        <ele>24.65</ele>
        <time>2013-11-17T09:00:26Z</time>
      </trkpt>
      <trkpt lat="47.5444" lon="-0.60397">
        <ele>25.61</ele>
        <time>2013-11-17T09:00:35Z</time>
      </trkpt>
      <trkpt lat="47.54473" lon="-0.60368">
        <ele>25.61</ele>
        <time>2013-11-17T09:00:42Z</time>
      </trkpt>
      <trkpt lat="47.54517" lon="-0.60344">
        <ele>26.09</ele>
        <time>2013-11-17T09:00:51Z</time>
      </trkpt>
      <trkpt lat="47.54564" lon="-0.60323">
        <ele>26.09</ele>
        <time>2013-11-17T09:01:00Z</time>
      </trkpt>
      <trkpt lat="47.54582" lon="-0.60311">
        <ele>26.09</ele>
        <time>2013-11-17T09:01:03Z</time>
      </trkpt>
      <trkpt lat="47.54622" lon="-0.60263">
        <ele>24.65</ele>
        <time>2013-11-17T09:01:11Z</time>
      </trkpt>
      <trkpt lat="47.54636" lon="-0.60246">
        <ele>24.17</ele>
        <time>2013-11-17T09:01:14Z</time>
      </trkpt>
      <trkpt lat="47.54648" lon="-0.60228">
        <ele>25.61</ele>
        <time>2013-11-17T09:01:17Z</time>
      </trkpt>
      <trkpt lat="47.54654" lon="-0.60197">
        <ele>25.61</ele>
        <time>2013-11-17T09:01:21Z</time>
      </trkpt>
      <trkpt lat="47.54652" lon="-0.60189">
        <ele>26.09</ele>
        <time>2013-11-17T09:01:22Z</time>
      </trkpt>
      <trkpt lat="47.54641" lon="-0.6016">
        <ele>27.05</ele>
        <time>2013-11-17T09:01:26Z</time>
      </trkpt>
      <trkpt lat="47.54634" lon="-0.60137">
        <ele>28.5</ele>
        <time>2013-11-17T09:01:29Z</time>
      </trkpt>
      <trkpt lat="47.54628" lon="-0.60106">
        <ele>28.98</ele>
        <time>2013-11-17T09:01:33Z</time>
      </trkpt>
      <trkpt lat="47.54616" lon="-0.60046">
        <ele>29.46</ele>
        <time>2013-11-17T09:01:41Z</time>
      </trkpt>
      <trkpt lat="47.54612" lon="-0.6003">
        <ele>29.46</ele>
        <time>2013-11-17T09:01:43Z</time>
      </trkpt>
      <trkpt lat="47.54606" lon="-0.60015">
        <ele>29.46</ele>
        <time>2013-11-17T09:01:45Z</time>
      </trkpt>
      <trkpt lat="47.546" lon="-0.59991">
        <ele>29.46</ele>
        <time>2013-11-17T09:01:48Z</time>
      </trkpt>
      <trkpt lat="47.54593" lon="-0.59942">
        <ele>29.46</ele>
        <time>2013-11-17T09:01:54Z</time>
      </trkpt>
      <trkpt lat="47.54597" lon="-0.59871">
        <ele>28.98</ele>
        <time>2013-11-17T09:02:03Z</time>
      </trkpt>
      <trkpt lat="47.54612" lon="-0.59819">
        <ele>28.5</ele>
        <time>2013-11-17T09:02:10Z</time>
      </trkpt>
      <trkpt lat="47.54621" lon="-0.59797">
        <ele>28.98</ele>
        <time>2013-11-17T09:02:13Z</time>
      </trkpt>
      <trkpt lat="47.54637" lon="-0.59762">
        <ele>28.98</ele>
        <time>2013-11-17T09:02:18Z</time>
      </trkpt>
      <trkpt lat="47.54645" lon="-0.59713">
        <ele>28.98</ele>
        <time>2013-11-17T09:02:24Z</time>
      </trkpt>
      <trkpt lat="47.54645" lon="-0.59705">
        <ele>28.98</ele>
        <time>2013-11-17T09:02:25Z</time>
      </trkpt>
      <trkpt lat="47.54643" lon="-0.59687">
        <ele>28.02</ele>
        <time>2013-11-17T09:02:27Z</time>
      </trkpt>
      <trkpt lat="47.54631" lon="-0.59645">
        <ele>28.02</ele>
        <time>2013-11-17T09:02:32Z</time>
      </trkpt>
      <trkpt lat="47.54628" lon="-0.59613">
        <ele>28.5</ele>
        <time>2013-11-17T09:02:36Z</time>
      </trkpt>
      <trkpt lat="47.54642" lon="-0.59599">
        <ele>28.5</ele>
        <time>2013-11-17T09:02:39Z</time>
      </trkpt>
      <trkpt lat="47.54647" lon="-0.59595">
        <ele>28.02</ele>
        <time>2013-11-17T09:02:40Z</time>
      </trkpt>
      <trkpt lat="47.5467" lon="-0.5957">
        <ele>28.02</ele>
        <time>2013-11-17T09:02:45Z</time>
      </trkpt>
      <trkpt lat="47.54675" lon="-0.59566">
        <ele>28.02</ele>
        <time>2013-11-17T09:02:46Z</time>
      </trkpt>
      <trkpt lat="47.54721" lon="-0.59529">
        <ele>28.5</ele>
        <time>2013-11-17T09:02:55Z</time>
      </trkpt>
      <trkpt lat="47.5477" lon="-0.59499">
        <ele>28.98</ele>
        <time>2013-11-17T09:03:04Z</time>
      </trkpt>
      <trkpt lat="47.54808" lon="-0.59475">
        <ele>28.98</ele>
        <time>2013-11-17T09:03:11Z</time>
      </trkpt>
      <trkpt lat="47.5485" lon="-0.59451">
        <ele>28.98</ele>
        <time>2013-11-17T09:03:19Z</time>
      </trkpt>
      <trkpt lat="47.54875" lon="-0.59434">
        <ele>28.98</ele>
        <time>2013-11-17T09:03:24Z</time>
      </trkpt>
      <trkpt lat="47.54888" lon="-0.59422">
        <ele>28.98</ele>
        <time>2013-11-17T09:03:27Z</time>
      </trkpt>
      <trkpt lat="47.54891" lon="-0.59417">
        <ele>28.5</ele>
        <time>2013-11-17T09:03:28Z</time>
      </trkpt>
      <trkpt lat="47.54894" lon="-0.59412">
        <ele>29.46</ele>
        <time>2013-11-17T09:03:29Z</time>
      </trkpt>
      <trkpt lat="47.54898" lon="-0.59409">
        <ele>28.98</ele>
        <time>2013-11-17T09:03:30Z</time>
      </trkpt>
      <trkpt lat="47.54902" lon="-0.59406">
        <ele>29.46</ele>
        <time>2013-11-17T09:03:31Z</time>
      </trkpt>
      <trkpt lat="47.54906" lon="-0.59403">
        <ele>28.98</ele>
        <time>2013-11-17T09:03:32Z</time>
      </trkpt>
      <trkpt lat="47.54915" lon="-0.59398">
        <ele>29.94</ele>
        <time>2013-11-17T09:03:34Z</time>
      </trkpt>
      <trkpt lat="47.54933" lon="-0.59387">
        <ele>29.46</ele>
        <time>2013-11-17T09:03:38Z</time>
      </trkpt>
      <trkpt lat="47.54937" lon="-0.59384">
        <ele>29.46</ele>
        <time>2013-11-17T09:03:39Z</time>
      </trkpt>
      <trkpt lat="47.5495" lon="-0.59378">
        <ele>29.94</ele>
        <time>2013-11-17T09:03:42Z</time>
      </trkpt>
      <trkpt lat="47.54971" lon="-0.59364">
        <ele>30.42</ele>
        <time>2013-11-17T09:03:47Z</time>
      </trkpt>
      <trkpt lat="47.54975" lon="-0.59361">
        <ele>29.94</ele>
        <time>2013-11-17T09:03:48Z</time>
      </trkpt>
      <trkpt lat="47.54979" lon="-0.59359">
        <ele>30.42</ele>
        <time>2013-11-17T09:03:49Z</time>
      </trkpt>
      <trkpt lat="47.54992" lon="-0.59354">
        <ele>30.9</ele>
        <time>2013-11-17T09:03:52Z</time>
      </trkpt>
      <trkpt lat="47.5501" lon="-0.59343">
        <ele>30.42</ele>
        <time>2013-11-17T09:03:57Z</time>
      </trkpt>
      <trkpt lat="47.55033" lon="-0.59331">
        <ele>31.38</ele>
        <time>2013-11-17T09:04:03Z</time>
      </trkpt>
      <trkpt lat="47.55053" lon="-0.59322">
        <ele>30.9</ele>
        <time>2013-11-17T09:04:08Z</time>
      </trkpt>
      <trkpt lat="47.55057" lon="-0.5932">
        <ele>31.38</ele>
        <time>2013-11-17T09:04:09Z</time>
      </trkpt>
      <trkpt lat="47.55061" lon="-0.59318">
        <ele>31.38</ele>
        <time>2013-11-17T09:04:10Z</time>
      </trkpt>
      <trkpt lat="47.55091" lon="-0.59303">
        <ele>31.38</ele>
        <time>2013-11-17T09:04:17Z</time>
      </trkpt>
      <trkpt lat="47.55095" lon="-0.59301">
        <ele>31.86</ele>
        <time>2013-11-17T09:04:18Z</time>
      </trkpt>
      <trkpt lat="47.55098" lon="-0.59299">
        <ele>31.86</ele>
        <time>2013-11-17T09:04:19Z</time>
      </trkpt>
      <trkpt lat="47.55102" lon="-0.59296">
        <ele>32.34</ele>
        <time>2013-11-17T09:04:20Z</time>
      </trkpt>
      <trkpt lat="47.55105" lon="-0.59294">
        <ele>32.34</ele>
        <time>2013-11-17T09:04:21Z</time>
      </trkpt>
      <trkpt lat="47.55109" lon="-0.59292">
        <ele>32.82</ele>
        <time>2013-11-17T09:04:22Z</time>
      </trkpt>
      <trkpt lat="47.55138" lon="-0.59278">
        <ele>32.82</ele>
        <time>2013-11-17T09:04:29Z</time>
      </trkpt>
      <trkpt lat="47.55161" lon="-0.59266">
        <ele>33.78</ele>
        <time>2013-11-17T09:04:35Z</time>
      </trkpt>
      <trkpt lat="47.55193" lon="-0.59251">
        <ele>33.3</ele>
        <time>2013-11-17T09:04:43Z</time>
      </trkpt>
      <trkpt lat="47.55232" lon="-0.59231">
        <ele>33.3</ele>
        <time>2013-11-17T09:04:52Z</time>
      </trkpt>
      <trkpt lat="47.55236" lon="-0.59229">
        <ele>33.78</ele>
        <time>2013-11-17T09:04:53Z</time>
      </trkpt>
      <trkpt lat="47.5524" lon="-0.59226">
        <ele>33.78</ele>
        <time>2013-11-17T09:04:54Z</time>
      </trkpt>
      <trkpt lat="47.5527" lon="-0.59212">
        <ele>34.26</ele>
        <time>2013-11-17T09:05:01Z</time>
      </trkpt>
      <trkpt lat="47.55308" lon="-0.59192">
        <ele>34.74</ele>
        <time>2013-11-17T09:05:10Z</time>
      </trkpt>
      <trkpt lat="47.55344" lon="-0.59174">
        <ele>34.74</ele>
        <time>2013-11-17T09:05:18Z</time>
      </trkpt>
      <trkpt lat="47.5537" lon="-0.59162">
        <ele>34.74</ele>
        <time>2013-11-17T09:05:24Z</time>
      </trkpt>
      <trkpt lat="47.55375" lon="-0.5916">
        <ele>34.74</ele>
        <time>2013-11-17T09:05:25Z</time>
      </trkpt>
      <trkpt lat="47.55405" lon="-0.59145">
        <ele>35.23</ele>
        <time>2013-11-17T09:05:32Z</time>
      </trkpt>
      <trkpt lat="47.55423" lon="-0.59138">
        <ele>34.74</ele>
        <time>2013-11-17T09:05:36Z</time>
      </trkpt>
      <trkpt lat="47.55427" lon="-0.59138">
        <ele>34.74</ele>
        <time>2013-11-17T09:05:37Z</time>
      </trkpt>
      <trkpt lat="47.55431" lon="-0.59137">
        <ele>35.71</ele>
        <time>2013-11-17T09:05:38Z</time>
      </trkpt>
      <trkpt lat="47.55457" lon="-0.5913">
        <ele>35.23</ele>
        <time>2013-11-17T09:05:44Z</time>
      </trkpt>
      <trkpt lat="47.55461" lon="-0.59128">
        <ele>35.23</ele>
        <time>2013-11-17T09:05:45Z</time>
      </trkpt>
      <trkpt lat="47.55484" lon="-0.59116">
        <ele>35.71</ele>
        <time>2013-11-17T09:05:51Z</time>
      </trkpt>
      <trkpt lat="47.55487" lon="-0.59113">
        <ele>35.23</ele>
        <time>2013-11-17T09:05:52Z</time>
      </trkpt>
      <trkpt lat="47.55491" lon="-0.59111">
        <ele>35.23</ele>
        <time>2013-11-17T09:05:53Z</time>
      </trkpt>
      <trkpt lat="47.55494" lon="-0.5911">
        <ele>35.23</ele>
        <time>2013-11-17T09:05:54Z</time>
      </trkpt>
      <trkpt lat="47.55498" lon="-0.59109">
        <ele>35.23</ele>
        <time>2013-11-17T09:05:55Z</time>
      </trkpt>
      <trkpt lat="47.5552" lon="-0.59097">
        <ele>35.71</ele>
        <time>2013-11-17T09:06:01Z</time>
      </trkpt>
      <trkpt lat="47.5554" lon="-0.59082">
        <ele>35.71</ele>
        <time>2013-11-17T09:06:07Z</time>
      </trkpt>
      <trkpt lat="47.55554" lon="-0.59065">
        <ele>35.23</ele>
        <time>2013-11-17T09:06:13Z</time>
      </trkpt>
      <trkpt lat="47.55565" lon="-0.59053">
        <ele>35.71</ele>
        <time>2013-11-17T09:06:18Z</time>
      </trkpt>
      <trkpt lat="47.55584" lon="-0.59034">
        <ele>35.71</ele>
        <time>2013-11-17T09:06:25Z</time>
      </trkpt>
      <trkpt lat="47.55597" lon="-0.59019">
        <ele>35.71</ele>
        <time>2013-11-17T09:06:31Z</time>
      </trkpt>
      <trkpt lat="47.55599" lon="-0.59016">
        <ele>35.71</ele>
        <time>2013-11-17T09:06:32Z</time>
      </trkpt>
      <trkpt lat="47.55601" lon="-0.59014">
        <ele>35.71</ele>
        <time>2013-11-17T09:06:33Z</time>
      </trkpt>
      <trkpt lat="47.55616" lon="-0.58994">
        <ele>36.19</ele>
        <time>2013-11-17T09:06:40Z</time>
      </trkpt>
      <trkpt lat="47.55631" lon="-0.58979">
        <ele>36.67</ele>
        <time>2013-11-17T09:06:46Z</time>
      </trkpt>
      <trkpt lat="47.55635" lon="-0.58979">
        <ele>36.67</ele>
        <time>2013-11-17T09:06:47Z</time>
      </trkpt>
      <trkpt lat="47.55638" lon="-0.58979">
        <ele>37.15</ele>
        <time>2013-11-17T09:06:48Z</time>
      </trkpt>
      <trkpt lat="47.55641" lon="-0.5898">
        <ele>36.67</ele>
        <time>2013-11-17T09:06:49Z</time>
      </trkpt>
      <trkpt lat="47.55644" lon="-0.5898">
        <ele>36.67</ele>
        <time>2013-11-17T09:06:50Z</time>
      </trkpt>
      <trkpt lat="47.55646" lon="-0.58982">
        <ele>36.67</ele>
        <time>2013-11-17T09:06:51Z</time>
      </trkpt>
      <trkpt lat="47.55649" lon="-0.58983">
        <ele>36.67</ele>
        <time>2013-11-17T09:06:52Z</time>
      </trkpt>
      <trkpt lat="47.55652" lon="-0.58985">
        <ele>36.67</ele>
        <time>2013-11-17T09:06:53Z</time>
      </trkpt>
      <trkpt lat="47.55655" lon="-0.58986">
        <ele>37.15</ele>
        <time>2013-11-17T09:06:54Z</time>
      </trkpt>
      <trkpt lat="47.55669" lon="-0.58991">
        <ele>37.15</ele>
        <time>2013-11-17T09:07:00Z</time>
      </trkpt>
      <trkpt lat="47.55687" lon="-0.58997">
        <ele>37.15</ele>
        <time>2013-11-17T09:07:06Z</time>
      </trkpt>
      <trkpt lat="47.55706" lon="-0.59005">
        <ele>38.11</ele>
        <time>2013-11-17T09:07:12Z</time>
      </trkpt>
      <trkpt lat="47.55722" lon="-0.59012">
        <ele>38.11</ele>
        <time>2013-11-17T09:07:18Z</time>
      </trkpt>
      <trkpt lat="47.55734" lon="-0.59018">
        <ele>37.63</ele>
        <time>2013-11-17T09:07:23Z</time>
      </trkpt>
      <trkpt lat="47.55749" lon="-0.59028">
        <ele>38.59</ele>
        <time>2013-11-17T09:07:29Z</time>
      </trkpt>
      <trkpt lat="47.55767" lon="-0.59037">
        <ele>38.59</ele>
        <time>2013-11-17T09:07:35Z</time>
      </trkpt>
      <trkpt lat="47.55785" lon="-0.59046">
        <ele>38.11</ele>
        <time>2013-11-17T09:07:41Z</time>
      </trkpt>
      <trkpt lat="47.55806" lon="-0.59052">
        <ele>38.59</ele>
        <time>2013-11-17T09:07:49Z</time>
      </trkpt>
      <trkpt lat="47.55826" lon="-0.59059">
        <ele>39.55</ele>
        <time>2013-11-17T09:07:57Z</time>
      </trkpt>
      <trkpt lat="47.55846" lon="-0.59066">
        <ele>40.03</ele>
        <time>2013-11-17T09:08:05Z</time>
      </trkpt>
      <trkpt lat="47.55868" lon="-0.59073">
        <ele>40.03</ele>
        <time>2013-11-17T09:08:12Z</time>
      </trkpt>
      <trkpt lat="47.55902" lon="-0.59083">
        <ele>40.03</ele>
        <time>2013-11-17T09:08:22Z</time>
      </trkpt>
      <trkpt lat="47.55925" lon="-0.59089">
        <ele>39.55</ele>
        <time>2013-11-17T09:08:28Z</time>
      </trkpt>
      <trkpt lat="47.55929" lon="-0.5909">
        <ele>39.07</ele>
        <time>2013-11-17T09:08:29Z</time>
      </trkpt>
      <trkpt lat="47.55961" lon="-0.59099">
        <ele>39.07</ele>
        <time>2013-11-17T09:08:38Z</time>
      </trkpt>
      <trkpt lat="47.55983" lon="-0.59107">
        <ele>38.11</ele>
        <time>2013-11-17T09:08:45Z</time>
      </trkpt>
      <trkpt lat="47.56005" lon="-0.59111">
        <ele>38.59</ele>
        <time>2013-11-17T09:08:51Z</time>
      </trkpt>
      <trkpt lat="47.56036" lon="-0.59119">
        <ele>39.07</ele>
        <time>2013-11-17T09:09:00Z</time>
      </trkpt>
      <trkpt lat="47.56057" lon="-0.59121">
        <ele>39.55</ele>
        <time>2013-11-17T09:09:06Z</time>
      </trkpt>
      <trkpt lat="47.56085" lon="-0.5912">
        <ele>39.55</ele>
        <time>2013-11-17T09:09:14Z</time>
      </trkpt>
      <trkpt lat="47.56115" lon="-0.59119">
        <ele>39.55</ele>
        <time>2013-11-17T09:09:22Z</time>
      </trkpt>
      <trkpt lat="47.56149" lon="-0.59118">
        <ele>40.51</ele>
        <time>2013-11-17T09:09:31Z</time>
      </trkpt>
      <trkpt lat="47.56175" lon="-0.59118">
        <ele>40.99</ele>
        <time>2013-11-17T09:09:38Z</time>
      </trkpt>
      <trkpt lat="47.56212" lon="-0.59116">
        <ele>41.47</ele>
        <time>2013-11-17T09:09:47Z</time>
      </trkpt>
      <trkpt lat="47.56242" lon="-0.59115">
        <ele>41.95</ele>
        <time>2013-11-17T09:09:55Z</time>
      </trkpt>
      <trkpt lat="47.56245" lon="-0.59114">
        <ele>42.44</ele>
        <time>2013-11-17T09:09:59Z</time>
      </trkpt>
      <trkpt lat="47.56246" lon="-0.59114">
        <ele>41.95</ele>
        <time>2013-11-17T09:10:00Z</time>
      </trkpt>
      <trkpt lat="47.56246" lon="-0.59112">
        <ele>40.99</ele>
        <time>2013-11-17T09:10:03Z</time>
      </trkpt>
      <trkpt lat="47.56247" lon="-0.59111">
        <ele>41.47</ele>
        <time>2013-11-17T09:10:11Z</time>
      </trkpt>
      <trkpt lat="47.56247" lon="-0.59111">
        <ele>40.99</ele>
        <time>2013-11-17T09:10:26Z</time>
      </trkpt>
      <trkpt lat="47.56247" lon="-0.59111">
        <ele>41.47</ele>
        <time>2013-11-17T09:10:40Z</time>
      </trkpt>
      <trkpt lat="47.56247" lon="-0.59111">
        <ele>41.47</ele>
        <time>2013-11-17T09:10:56Z</time>
      </trkpt>
      <trkpt lat="47.56247" lon="-0.59111">
        <ele>40.99</ele>
        <time>2013-11-17T09:11:12Z</time>
      </trkpt>
      <trkpt lat="47.56247" lon="-0.59111">
        <ele>40.99</ele>
        <time>2013-11-17T09:11:27Z</time>
      </trkpt>
      <trkpt lat="47.56247" lon="-0.59111">
        <ele>40.99</ele>
        <time>2013-11-17T09:11:44Z</time>
      </trkpt>
      <trkpt lat="47.56247" lon="-0.59111">
        <ele>40.99</ele>
        <time>2013-11-17T09:12:01Z</time>
      </trkpt>
      <trkpt lat="47.56248" lon="-0.59111">
        <ele>40.51</ele>
        <time>2013-11-17T09:12:18Z</time>
      </trkpt>
      <trkpt lat="47.56248" lon="-0.59111">
        <ele>40.99</ele>
        <time>2013-11-17T09:12:32Z</time>
      </trkpt>
      <trkpt lat="47.56248" lon="-0.59111">
        <ele>40.99</ele>
        <time>2013-11-17T09:12:46Z</time>
      </trkpt>
      <trkpt lat="47.56248" lon="-0.59111">
        <ele>40.51</ele>
        <time>2013-11-17T09:13:01Z</time>
      </trkpt>
      <trkpt lat="47.56248" lon="-0.59111">
        <ele>40.51</ele>
        <time>2013-11-17T09:13:18Z</time>
      </trkpt>
      <trkpt lat="47.56248" lon="-0.59113">
        <ele>40.51</ele>
        <time>2013-11-17T09:13:35Z</time>
      </trkpt>
      <trkpt lat="47.56251" lon="-0.59114">
        <ele>40.99</ele>
        <time>2013-11-17T09:13:44Z</time>
      </trkpt>
      <trkpt lat="47.56251" lon="-0.59114">
        <ele>40.99</ele>
        <time>2013-11-17T09:13:54Z</time>
      </trkpt>
      <trkpt lat="47.56252" lon="-0.59113">
        <ele>40.99</ele>
        <time>2013-11-17T09:14:00Z</time>
      </trkpt>
      <trkpt lat="47.56253" lon="-0.59111">
        <ele>41.47</ele>
        <time>2013-11-17T09:14:06Z</time>
      </trkpt>
      <trkpt lat="47.56253" lon="-0.59111">
        <ele>40.99</ele>
        <time>2013-11-17T09:14:07Z</time>
      </trkpt>
      <trkpt lat="47.56254" lon="-0.59097">
        <ele>41.95</ele>
        <time>2013-11-17T09:14:13Z</time>
      </trkpt>
      <trkpt lat="47.56253" lon="-0.59071">
        <ele>41.47</ele>
        <time>2013-11-17T09:14:20Z</time>
      </trkpt>
      <trkpt lat="47.56253" lon="-0.59031">
        <ele>41.95</ele>
        <time>2013-11-17T09:14:29Z</time>
      </trkpt>
      <trkpt lat="47.56253" lon="-0.58996">
        <ele>41.95</ele>
        <time>2013-11-17T09:14:36Z</time>
      </trkpt>
      <trkpt lat="47.56253" lon="-0.58954">
        <ele>42.44</ele>
        <time>2013-11-17T09:14:43Z</time>
      </trkpt>
      <trkpt lat="47.56253" lon="-0.58941">
        <ele>41.95</ele>
        <time>2013-11-17T09:14:45Z</time>
      </trkpt>
      <trkpt lat="47.56253" lon="-0.58922">
        <ele>41.47</ele>
        <time>2013-11-17T09:14:48Z</time>
      </trkpt>
      <trkpt lat="47.56252" lon="-0.58871">
        <ele>41.95</ele>
        <time>2013-11-17T09:14:56Z</time>
      </trkpt>
      <trkpt lat="47.56252" lon="-0.58845">
        <ele>41.95</ele>
        <time>2013-11-17T09:15:00Z</time>
      </trkpt>
      <trkpt lat="47.56251" lon="-0.588">
        <ele>41.95</ele>
        <time>2013-11-17T09:15:07Z</time>
      </trkpt>
      <trkpt lat="47.56252" lon="-0.58772">
        <ele>41.95</ele>
        <time>2013-11-17T09:15:11Z</time>
      </trkpt>
      <trkpt lat="47.56251" lon="-0.58706">
        <ele>41.95</ele>
        <time>2013-11-17T09:15:20Z</time>
      </trkpt>
      <trkpt lat="47.5625" lon="-0.58648">
        <ele>41.95</ele>
        <time>2013-11-17T09:15:28Z</time>
      </trkpt>
      <trkpt lat="47.5625" lon="-0.58598">
        <ele>42.44</ele>
        <time>2013-11-17T09:15:35Z</time>
      </trkpt>
      <trkpt lat="47.56249" lon="-0.58549">
        <ele>41.95</ele>
        <time>2013-11-17T09:15:43Z</time>
      </trkpt>
      <trkpt lat="47.56249" lon="-0.58545">
        <ele>41.95</ele>
        <time>2013-11-17T09:15:44Z</time>
      </trkpt>
      <trkpt lat="47.56248" lon="-0.5853">
        <ele>41.95</ele>
        <time>2013-11-17T09:15:49Z</time>
      </trkpt>
      <trkpt lat="47.56249" lon="-0.58508">
        <ele>42.44</ele>
        <time>2013-11-17T09:15:53Z</time>
      </trkpt>
      <trkpt lat="47.56248" lon="-0.58489">
        <ele>41.95</ele>
        <time>2013-11-17T09:15:56Z</time>
      </trkpt>
      <trkpt lat="47.56248" lon="-0.58437">
        <ele>41.95</ele>
        <time>2013-11-17T09:16:04Z</time>
      </trkpt>
      <trkpt lat="47.56247" lon="-0.58415">
        <ele>41.95</ele>
        <time>2013-11-17T09:16:07Z</time>
      </trkpt>
      <trkpt lat="47.56246" lon="-0.58357">
        <ele>41.95</ele>
        <time>2013-11-17T09:16:15Z</time>
      </trkpt>
      <trkpt lat="47.56246" lon="-0.58349">
        <ele>42.44</ele>
        <time>2013-11-17T09:16:16Z</time>
      </trkpt>
      <trkpt lat="47.56246" lon="-0.58334">
        <ele>42.44</ele>
        <time>2013-11-17T09:16:18Z</time>
      </trkpt>
      <trkpt lat="47.56246" lon="-0.58291">
        <ele>42.44</ele>
        <time>2013-11-17T09:16:24Z</time>
      </trkpt>
      <trkpt lat="47.56246" lon="-0.58254">
        <ele>42.44</ele>
        <time>2013-11-17T09:16:29Z</time>
      </trkpt>
      <trkpt lat="47.56257" lon="-0.58233">
        <ele>42.92</ele>
        <time>2013-11-17T09:16:33Z</time>
      </trkpt>
      <trkpt lat="47.56262" lon="-0.58232">
        <ele>43.4</ele>
        <time>2013-11-17T09:16:34Z</time>
      </trkpt>
      <trkpt lat="47.56315" lon="-0.58212">
        <ele>43.4</ele>
        <time>2013-11-17T09:16:45Z</time>
      </trkpt>
      <trkpt lat="47.56366" lon="-0.58193">
        <ele>44.84</ele>
        <time>2013-11-17T09:16:56Z</time>
      </trkpt>
      <trkpt lat="47.56407" lon="-0.58178">
        <ele>45.8</ele>
        <time>2013-11-17T09:17:05Z</time>
      </trkpt>
      <trkpt lat="47.56412" lon="-0.58175">
        <ele>46.28</ele>
        <time>2013-11-17T09:17:06Z</time>
      </trkpt>
      <trkpt lat="47.56449" lon="-0.58144">
        <ele>47.24</ele>
        <time>2013-11-17T09:17:16Z</time>
      </trkpt>
      <trkpt lat="47.56478" lon="-0.58113">
        <ele>48.2</ele>
        <time>2013-11-17T09:17:24Z</time>
      </trkpt>
      <trkpt lat="47.56499" lon="-0.58088">
        <ele>48.68</ele>
        <time>2013-11-17T09:17:30Z</time>
      </trkpt>
      <trkpt lat="47.56528" lon="-0.58057">
        <ele>49.65</ele>
        <time>2013-11-17T09:17:38Z</time>
      </trkpt>
      <trkpt lat="47.5654" lon="-0.58047">
        <ele>49.65</ele>
        <time>2013-11-17T09:17:41Z</time>
      </trkpt>
      <trkpt lat="47.56584" lon="-0.58026">
        <ele>50.13</ele>
        <time>2013-11-17T09:17:51Z</time>
      </trkpt>
      <trkpt lat="47.56621" lon="-0.58009">
        <ele>50.61</ele>
        <time>2013-11-17T09:17:59Z</time>
      </trkpt>
      <trkpt lat="47.56663" lon="-0.57986">
        <ele>49.65</ele>
        <time>2013-11-17T09:18:08Z</time>
      </trkpt>
      <trkpt lat="47.56701" lon="-0.57965">
        <ele>50.13</ele>
        <time>2013-11-17T09:18:16Z</time>
      </trkpt>
      <trkpt lat="47.56739" lon="-0.57944">
        <ele>50.13</ele>
        <time>2013-11-17T09:18:24Z</time>
      </trkpt>
      <trkpt lat="47.56775" lon="-0.57924">
        <ele>49.16</ele>
        <time>2013-11-17T09:18:33Z</time>
      </trkpt>
      <trkpt lat="47.56779" lon="-0.57922">
        <ele>49.16</ele>
        <time>2013-11-17T09:18:35Z</time>
      </trkpt>
      <trkpt lat="47.568" lon="-0.5792">
        <ele>48.68</ele>
        <time>2013-11-17T09:18:42Z</time>
      </trkpt>
      <trkpt lat="47.56804" lon="-0.57918">
        <ele>49.16</ele>
        <time>2013-11-17T09:18:43Z</time>
      </trkpt>
      <trkpt lat="47.56828" lon="-0.57906">
        <ele>48.2</ele>
        <time>2013-11-17T09:18:49Z</time>
      </trkpt>
      <trkpt lat="47.56844" lon="-0.57899">
        <ele>48.2</ele>
        <time>2013-11-17T09:18:53Z</time>
      </trkpt>
      <trkpt lat="47.56861" lon="-0.57891">
        <ele>48.2</ele>
        <time>2013-11-17T09:18:57Z</time>
      </trkpt>
      <trkpt lat="47.56895" lon="-0.57873">
        <ele>47.72</ele>
        <time>2013-11-17T09:19:05Z</time>
      </trkpt>
      <trkpt lat="47.56934" lon="-0.57853">
        <ele>48.68</ele>
        <time>2013-11-17T09:19:13Z</time>
      </trkpt>
      <trkpt lat="47.56948" lon="-0.57845">
        <ele>49.65</ele>
        <time>2013-11-17T09:19:16Z</time>
      </trkpt>
      <trkpt lat="47.5699" lon="-0.57811">
        <ele>50.61</ele>
        <time>2013-11-17T09:19:26Z</time>
      </trkpt>
      <trkpt lat="47.57023" lon="-0.57781">
        <ele>50.61</ele>
        <time>2013-11-17T09:19:34Z</time>
      </trkpt>
      <trkpt lat="47.5705" lon="-0.57759">
        <ele>52.53</ele>
        <time>2013-11-17T09:19:41Z</time>
      </trkpt>
      <trkpt lat="47.57081" lon="-0.57743">
        <ele>53.49</ele>
        <time>2013-11-17T09:19:49Z</time>
      </trkpt>
      <trkpt lat="47.5712" lon="-0.57728">
        <ele>53.01</ele>
        <time>2013-11-17T09:19:58Z</time>
      </trkpt>
      <trkpt lat="47.57136" lon="-0.57721">
        <ele>53.01</ele>
        <time>2013-11-17T09:20:02Z</time>
      </trkpt>
      <trkpt lat="47.57162" lon="-0.57712">
        <ele>53.01</ele>
        <time>2013-11-17T09:20:08Z</time>
      </trkpt>
      <trkpt lat="47.57179" lon="-0.57717">
        <ele>53.01</ele>
        <time>2013-11-17T09:20:12Z</time>
      </trkpt>
      <trkpt lat="47.57195" lon="-0.5773">
        <ele>52.53</ele>
        <time>2013-11-17T09:20:16Z</time>
      </trkpt>
      <trkpt lat="47.57206" lon="-0.57737">
        <ele>53.01</ele>
        <time>2013-11-17T09:20:19Z</time>
      </trkpt>
      <trkpt lat="47.57229" lon="-0.57749">
        <ele>52.53</ele>
        <time>2013-11-17T09:20:25Z</time>
      </trkpt>
      <trkpt lat="47.57248" lon="-0.57756">
        <ele>53.01</ele>
        <time>2013-11-17T09:20:30Z</time>
      </trkpt>
      <trkpt lat="47.57271" lon="-0.5774">
        <ele>53.49</ele>
        <time>2013-11-17T09:20:36Z</time>
      </trkpt>
      <trkpt lat="47.57275" lon="-0.57728">
        <ele>53.01</ele>
        <time>2013-11-17T09:20:38Z</time>
      </trkpt>
      <trkpt lat="47.57286" lon="-0.5767">
        <ele>52.53</ele>
        <time>2013-11-17T09:20:47Z</time>
      </trkpt>
      <trkpt lat="47.57294" lon="-0.57628">
        <ele>52.53</ele>
        <time>2013-11-17T09:20:53Z</time>
      </trkpt>
      <trkpt lat="47.57313" lon="-0.57581">
        <ele>52.53</ele>
        <time>2013-11-17T09:21:00Z</time>
      </trkpt>
      <trkpt lat="47.57334" lon="-0.57536">
        <ele>52.05</ele>
        <time>2013-11-17T09:21:07Z</time>
      </trkpt>
      <trkpt lat="47.57348" lon="-0.5748">
        <ele>52.05</ele>
        <time>2013-11-17T09:21:15Z</time>
      </trkpt>
      <trkpt lat="47.57348" lon="-0.57465">
        <ele>52.05</ele>
        <time>2013-11-17T09:21:17Z</time>
      </trkpt>
      <trkpt lat="47.57346" lon="-0.57437">
        <ele>51.57</ele>
        <time>2013-11-17T09:21:21Z</time>
      </trkpt>
      <trkpt lat="47.57347" lon="-0.57395">
        <ele>51.57</ele>
        <time>2013-11-17T09:21:27Z</time>
      </trkpt>
      <trkpt lat="47.57355" lon="-0.57385">
        <ele>52.05</ele>
        <time>2013-11-17T09:21:29Z</time>
      </trkpt>
      <trkpt lat="47.57364" lon="-0.57377">
        <ele>52.05</ele>
        <time>2013-11-17T09:21:31Z</time>
      </trkpt>
      <trkpt lat="47.57406" lon="-0.5735">
        <ele>52.53</ele>
        <time>2013-11-17T09:21:40Z</time>
      </trkpt>
      <trkpt lat="47.57454" lon="-0.57332">
        <ele>53.01</ele>
        <time>2013-11-17T09:21:50Z</time>
      </trkpt>
      <trkpt lat="47.57491" lon="-0.57302">
        <ele>53.01</ele>
        <time>2013-11-17T09:21:58Z</time>
      </trkpt>
      <trkpt lat="47.57501" lon="-0.57294">
        <ele>53.49</ele>
        <time>2013-11-17T09:22:00Z</time>
      </trkpt>
      <trkpt lat="47.57521" lon="-0.57286">
        <ele>53.49</ele>
        <time>2013-11-17T09:22:04Z</time>
      </trkpt>
      <trkpt lat="47.57532" lon="-0.57285">
        <ele>53.01</ele>
        <time>2013-11-17T09:22:06Z</time>
      </trkpt>
      <trkpt lat="47.57571" lon="-0.57264">
        <ele>53.49</ele>
        <time>2013-11-17T09:22:14Z</time>
      </trkpt>
      <trkpt lat="47.57589" lon="-0.57248">
        <ele>53.97</ele>
        <time>2013-11-17T09:22:18Z</time>
      </trkpt>
      <trkpt lat="47.57615" lon="-0.57219">
        <ele>53.97</ele>
        <time>2013-11-17T09:22:24Z</time>
      </trkpt>
      <trkpt lat="47.57639" lon="-0.57195">
        <ele>53.97</ele>
        <time>2013-11-17T09:22:30Z</time>
      </trkpt>
      <trkpt lat="47.57664" lon="-0.57195">
        <ele>54.93</ele>
        <time>2013-11-17T09:22:35Z</time>
      </trkpt>
      <trkpt lat="47.57704" lon="-0.57224">
        <ele>55.41</ele>
        <time>2013-11-17T09:22:44Z</time>
      </trkpt>
      <trkpt lat="47.57721" lon="-0.57236">
        <ele>55.89</ele>
        <time>2013-11-17T09:22:48Z</time>
      </trkpt>
      <trkpt lat="47.57739" lon="-0.57244">
        <ele>55.89</ele>
        <time>2013-11-17T09:22:52Z</time>
      </trkpt>
      <trkpt lat="47.57749" lon="-0.57246">
        <ele>56.37</ele>
        <time>2013-11-17T09:22:54Z</time>
      </trkpt>
      <trkpt lat="47.57773" lon="-0.57244">
        <ele>57.34</ele>
        <time>2013-11-17T09:22:59Z</time>
      </trkpt>
      <trkpt lat="47.57817" lon="-0.57221">
        <ele>57.82</ele>
        <time>2013-11-17T09:23:09Z</time>
      </trkpt>
      <trkpt lat="47.57855" lon="-0.57208">
        <ele>58.78</ele>
        <time>2013-11-17T09:23:18Z</time>
      </trkpt>
      <trkpt lat="47.57881" lon="-0.57205">
        <ele>59.74</ele>
        <time>2013-11-17T09:23:24Z</time>
      </trkpt>
      <trkpt lat="47.579" lon="-0.57211">
        <ele>60.22</ele>
        <time>2013-11-17T09:23:28Z</time>
      </trkpt>
      <trkpt lat="47.57942" lon="-0.57237">
        <ele>59.74</ele>
        <time>2013-11-17T09:23:37Z</time>
      </trkpt>
      <trkpt lat="47.57966" lon="-0.57239">
        <ele>59.74</ele>
        <time>2013-11-17T09:23:42Z</time>
      </trkpt>
      <trkpt lat="47.57984" lon="-0.57241">
        <ele>60.22</ele>
        <time>2013-11-17T09:23:46Z</time>
      </trkpt>
      <trkpt lat="47.58016" lon="-0.57245">
        <ele>60.22</ele>
        <time>2013-11-17T09:23:53Z</time>
      </trkpt>
      <trkpt lat="47.58021" lon="-0.57246">
        <ele>60.22</ele>
        <time>2013-11-17T09:23:54Z</time>
      </trkpt>
      <trkpt lat="47.58034" lon="-0.57244">
        <ele>60.22</ele>
        <time>2013-11-17T09:23:57Z</time>
      </trkpt>
      <trkpt lat="47.58043" lon="-0.5724">
        <ele>60.7</ele>
        <time>2013-11-17T09:23:59Z</time>
      </trkpt>
      <trkpt lat="47.58063" lon="-0.57226">
        <ele>61.18</ele>
        <time>2013-11-17T09:24:04Z</time>
      </trkpt>
      <trkpt lat="47.58095" lon="-0.57209">
        <ele>61.18</ele>
        <time>2013-11-17T09:24:12Z</time>
      </trkpt>
      <trkpt lat="47.58115" lon="-0.57198">
        <ele>60.7</ele>
        <time>2013-11-17T09:24:17Z</time>
      </trkpt>
      <trkpt lat="47.58132" lon="-0.57195">
        <ele>61.18</ele>
        <time>2013-11-17T09:24:21Z</time>
      </trkpt>
      <trkpt lat="47.58156" lon="-0.57197">
        <ele>61.18</ele>
        <time>2013-11-17T09:24:27Z</time>
      </trkpt>
      <trkpt lat="47.58166" lon="-0.57207">
        <ele>61.18</ele>
        <time>2013-11-17T09:24:30Z</time>
      </trkpt>
      <trkpt lat="47.58184" lon="-0.57231">
        <ele>61.18</ele>
        <time>2013-11-17T09:24:36Z</time>
      </trkpt>
      <trkpt lat="47.58199" lon="-0.57275">
        <ele>61.18</ele>
        <time>2013-11-17T09:24:44Z</time>
      </trkpt>
      <trkpt lat="47.58201" lon="-0.5728">
        <ele>60.7</ele>
        <time>2013-11-17T09:24:45Z</time>
      </trkpt>
      <trkpt lat="47.58214" lon="-0.57313">
        <ele>61.66</ele>
        <time>2013-11-17T09:24:51Z</time>
      </trkpt>
      <trkpt lat="47.58216" lon="-0.57319">
        <ele>61.18</ele>
        <time>2013-11-17T09:24:52Z</time>
      </trkpt>
      <trkpt lat="47.58235" lon="-0.57354">
        <ele>61.18</ele>
        <time>2013-11-17T09:24:59Z</time>
      </trkpt>
      <trkpt lat="47.58248" lon="-0.57384">
        <ele>61.18</ele>
        <time>2013-11-17T09:25:05Z</time>
      </trkpt>
      <trkpt lat="47.58258" lon="-0.57423">
        <ele>61.18</ele>
        <time>2013-11-17T09:25:12Z</time>
      </trkpt>
      <trkpt lat="47.58269" lon="-0.57461">
        <ele>60.7</ele>
        <time>2013-11-17T09:25:19Z</time>
      </trkpt>
      <trkpt lat="47.58274" lon="-0.57478">
        <ele>61.66</ele>
        <time>2013-11-17T09:25:22Z</time>
      </trkpt>
      <trkpt lat="47.58285" lon="-0.57519">
        <ele>61.18</ele>
        <time>2013-11-17T09:25:29Z</time>
      </trkpt>
      <trkpt lat="47.58286" lon="-0.57525">
        <ele>61.18</ele>
        <time>2013-11-17T09:25:30Z</time>
      </trkpt>
      <trkpt lat="47.58293" lon="-0.57548">
        <ele>60.7</ele>
        <time>2013-11-17T09:25:34Z</time>
      </trkpt>
      <trkpt lat="47.58297" lon="-0.57566">
        <ele>61.18</ele>
        <time>2013-11-17T09:25:37Z</time>
      </trkpt>
      <trkpt lat="47.58301" lon="-0.57585">
        <ele>60.7</ele>
        <time>2013-11-17T09:25:40Z</time>
      </trkpt>
      <trkpt lat="47.58306" lon="-0.5761">
        <ele>60.7</ele>
        <time>2013-11-17T09:25:44Z</time>
      </trkpt>
      <trkpt lat="47.58313" lon="-0.57644">
        <ele>60.7</ele>
        <time>2013-11-17T09:25:50Z</time>
      </trkpt>
      <trkpt lat="47.58325" lon="-0.57673">
        <ele>60.7</ele>
        <time>2013-11-17T09:25:56Z</time>
      </trkpt>
      <trkpt lat="47.58332" lon="-0.57681">
        <ele>60.7</ele>
        <time>2013-11-17T09:25:58Z</time>
      </trkpt>
      <trkpt lat="47.58342" lon="-0.57692">
        <ele>60.22</ele>
        <time>2013-11-17T09:26:01Z</time>
      </trkpt>
      <trkpt lat="47.58362" lon="-0.57704">
        <ele>59.74</ele>
        <time>2013-11-17T09:26:06Z</time>
      </trkpt>
      <trkpt lat="47.58376" lon="-0.57706">
        <ele>59.26</ele>
        <time>2013-11-17T09:26:09Z</time>
      </trkpt>
      <trkpt lat="47.58419" lon="-0.57704">
        <ele>58.78</ele>
        <time>2013-11-17T09:26:18Z</time>
      </trkpt>
      <trkpt lat="47.58454" lon="-0.57707">
        <ele>57.34</ele>
        <time>2013-11-17T09:26:25Z</time>
      </trkpt>
      <trkpt lat="47.58475" lon="-0.57708">
        <ele>56.37</ele>
        <time>2013-11-17T09:26:29Z</time>
      </trkpt>
      <trkpt lat="47.5852" lon="-0.57708">
        <ele>54.93</ele>
        <time>2013-11-17T09:26:37Z</time>
      </trkpt>
      <trkpt lat="47.58545" lon="-0.57705">
        <ele>53.49</ele>
        <time>2013-11-17T09:26:41Z</time>
      </trkpt>
      <trkpt lat="47.58557" lon="-0.57705">
        <ele>53.49</ele>
        <time>2013-11-17T09:26:43Z</time>
      </trkpt>
      <trkpt lat="47.58584" lon="-0.57713">
        <ele>52.53</ele>
        <time>2013-11-17T09:26:48Z</time>
      </trkpt>
      <trkpt lat="47.58607" lon="-0.57719">
        <ele>51.57</ele>
        <time>2013-11-17T09:26:53Z</time>
      </trkpt>
      <trkpt lat="47.58617" lon="-0.5772">
        <ele>51.57</ele>
        <time>2013-11-17T09:26:55Z</time>
      </trkpt>
      <trkpt lat="47.58635" lon="-0.57717">
        <ele>50.61</ele>
        <time>2013-11-17T09:27:00Z</time>
      </trkpt>
      <trkpt lat="47.58646" lon="-0.57714">
        <ele>50.61</ele>
        <time>2013-11-17T09:27:04Z</time>
      </trkpt>
      <trkpt lat="47.58663" lon="-0.57711">
        <ele>50.13</ele>
        <time>2013-11-17T09:27:11Z</time>
      </trkpt>
      <trkpt lat="47.58672" lon="-0.5771">
        <ele>49.65</ele>
        <time>2013-11-17T09:27:15Z</time>
      </trkpt>
      <trkpt lat="47.58687" lon="-0.57706">
        <ele>49.16</ele>
        <time>2013-11-17T09:27:20Z</time>
      </trkpt>
      <trkpt lat="47.58693" lon="-0.57708">
        <ele>48.68</ele>
        <time>2013-11-17T09:27:26Z</time>
      </trkpt>
      <trkpt lat="47.58693" lon="-0.57708">
        <ele>48.68</ele>
        <time>2013-11-17T09:27:35Z</time>
      </trkpt>
      <trkpt lat="47.58693" lon="-0.57708">
        <ele>48.68</ele>
        <time>2013-11-17T09:27:41Z</time>
      </trkpt>
      <trkpt lat="47.58704" lon="-0.57705">
        <ele>48.2</ele>
        <time>2013-11-17T09:27:46Z</time>
      </trkpt>
      <trkpt lat="47.58726" lon="-0.57703">
        <ele>47.24</ele>
        <time>2013-11-17T09:27:51Z</time>
      </trkpt>
      <trkpt lat="47.5874" lon="-0.57704">
        <ele>47.24</ele>
        <time>2013-11-17T09:27:54Z</time>
      </trkpt>
      <trkpt lat="47.58774" lon="-0.57711">
        <ele>45.8</ele>
        <time>2013-11-17T09:28:01Z</time>
      </trkpt>
      <trkpt lat="47.588" lon="-0.57721">
        <ele>44.36</ele>
        <time>2013-11-17T09:28:06Z</time>
      </trkpt>
      <trkpt lat="47.58821" lon="-0.57722">
        <ele>42.92</ele>
        <time>2013-11-17T09:28:11Z</time>
      </trkpt>
      <trkpt lat="47.58824" lon="-0.57709">
        <ele>42.92</ele>
        <time>2013-11-17T09:28:14Z</time>
      </trkpt>
      <trkpt lat="47.58824" lon="-0.57704">
        <ele>42.92</ele>
        <time>2013-11-17T09:28:15Z</time>
      </trkpt>
      <trkpt lat="47.58826" lon="-0.57678">
        <ele>43.4</ele>
        <time>2013-11-17T09:28:20Z</time>
      </trkpt>
      <trkpt lat="47.58834" lon="-0.57626">
        <ele>43.4</ele>
        <time>2013-11-17T09:28:28Z</time>
      </trkpt>
      <trkpt lat="47.58843" lon="-0.57575">
        <ele>43.88</ele>
        <time>2013-11-17T09:28:36Z</time>
      </trkpt>
      <trkpt lat="47.58847" lon="-0.57544">
        <ele>43.88</ele>
        <time>2013-11-17T09:28:41Z</time>
      </trkpt>
      <trkpt lat="47.58848" lon="-0.57525">
        <ele>43.88</ele>
        <time>2013-11-17T09:28:44Z</time>
      </trkpt>
      <trkpt lat="47.5885" lon="-0.57501">
        <ele>43.88</ele>
        <time>2013-11-17T09:28:48Z</time>
      </trkpt>
      <trkpt lat="47.58852" lon="-0.57451">
        <ele>44.36</ele>
        <time>2013-11-17T09:28:57Z</time>
      </trkpt>
      <trkpt lat="47.58849" lon="-0.57422">
        <ele>43.88</ele>
        <time>2013-11-17T09:29:04Z</time>
      </trkpt>
      <trkpt lat="47.58846" lon="-0.57391">
        <ele>43.88</ele>
        <time>2013-11-17T09:29:12Z</time>
      </trkpt>
      <trkpt lat="47.58846" lon="-0.5738">
        <ele>43.88</ele>
        <time>2013-11-17T09:29:17Z</time>
      </trkpt>
      <trkpt lat="47.58844" lon="-0.57377">
        <ele>43.88</ele>
        <time>2013-11-17T09:29:24Z</time>
      </trkpt>
      <trkpt lat="47.58844" lon="-0.57377">
        <ele>43.88</ele>
        <time>2013-11-17T09:29:28Z</time>
      </trkpt>
      <trkpt lat="47.58844" lon="-0.57373">
        <ele>42.92</ele>
        <time>2013-11-17T09:29:33Z</time>
      </trkpt>
      <trkpt lat="47.58845" lon="-0.57372">
        <ele>43.88</ele>
        <time>2013-11-17T09:29:39Z</time>
      </trkpt>
      <trkpt lat="47.58845" lon="-0.57372">
        <ele>42.92</ele>
        <time>2013-11-17T09:29:47Z</time>
      </trkpt>
      <trkpt lat="47.58844" lon="-0.5737">
        <ele>43.4</ele>
        <time>2013-11-17T09:29:58Z</time>
      </trkpt>
      <trkpt lat="47.58843" lon="-0.57337">
        <ele>43.88</ele>
        <time>2013-11-17T09:30:04Z</time>
      </trkpt>
      <trkpt lat="47.58842" lon="-0.57324">
        <ele>42.92</ele>
        <time>2013-11-17T09:30:06Z</time>
      </trkpt>
      <trkpt lat="47.58833" lon="-0.57265">
        <ele>42.44</ele>
        <time>2013-11-17T09:30:16Z</time>
      </trkpt>
      <trkpt lat="47.5883" lon="-0.57232">
        <ele>42.44</ele>
        <time>2013-11-17T09:30:22Z</time>
      </trkpt>
      <trkpt lat="47.58832" lon="-0.57198">
        <ele>41.95</ele>
        <time>2013-11-17T09:30:28Z</time>
      </trkpt>
      <trkpt lat="47.58836" lon="-0.5718">
        <ele>41.47</ele>
        <time>2013-11-17T09:30:31Z</time>
      </trkpt>
      <trkpt lat="47.58843" lon="-0.57155">
        <ele>41.47</ele>
        <time>2013-11-17T09:30:36Z</time>
      </trkpt>
      <trkpt lat="47.58856" lon="-0.57154">
        <ele>41.95</ele>
        <time>2013-11-17T09:30:40Z</time>
      </trkpt>
      <trkpt lat="47.5888" lon="-0.57163">
        <ele>41.47</ele>
        <time>2013-11-17T09:30:48Z</time>
      </trkpt>
      <trkpt lat="47.58883" lon="-0.57165">
        <ele>41.47</ele>
        <time>2013-11-17T09:30:53Z</time>
      </trkpt>
      <trkpt lat="47.58883" lon="-0.57165">
        <ele>41.47</ele>
        <time>2013-11-17T09:31:00Z</time>
      </trkpt>
      <trkpt lat="47.58893" lon="-0.57167">
        <ele>40.99</ele>
        <time>2013-11-17T09:31:05Z</time>
      </trkpt>
      <trkpt lat="47.58918" lon="-0.57175">
        <ele>40.99</ele>
        <time>2013-11-17T09:31:13Z</time>
      </trkpt>
      <trkpt lat="47.58945" lon="-0.57184">
        <ele>40.99</ele>
        <time>2013-11-17T09:31:20Z</time>
      </trkpt>
      <trkpt lat="47.58966" lon="-0.57193">
        <ele>40.99</ele>
        <time>2013-11-17T09:31:25Z</time>
      </trkpt>
      <trkpt lat="47.58983" lon="-0.57202">
        <ele>40.99</ele>
        <time>2013-11-17T09:31:29Z</time>
      </trkpt>
      <trkpt lat="47.58996" lon="-0.57207">
        <ele>40.99</ele>
        <time>2013-11-17T09:31:32Z</time>
      </trkpt>
      <trkpt lat="47.59015" lon="-0.57211">
        <ele>40.99</ele>
        <time>2013-11-17T09:31:36Z</time>
      </trkpt>
      <trkpt lat="47.59039" lon="-0.57202">
        <ele>40.51</ele>
        <time>2013-11-17T09:31:41Z</time>
      </trkpt>
      <trkpt lat="47.59077" lon="-0.57181">
        <ele>40.99</ele>
        <time>2013-11-17T09:31:50Z</time>
      </trkpt>
      <trkpt lat="47.59117" lon="-0.5716">
        <ele>40.03</ele>
        <time>2013-11-17T09:31:59Z</time>
      </trkpt>
      <trkpt lat="47.59152" lon="-0.5714">
        <ele>40.99</ele>
        <time>2013-11-17T09:32:07Z</time>
      </trkpt>
      <trkpt lat="47.59156" lon="-0.57137">
        <ele>40.99</ele>
        <time>2013-11-17T09:32:08Z</time>
      </trkpt>
      <trkpt lat="47.5917" lon="-0.57129">
        <ele>40.51</ele>
        <time>2013-11-17T09:32:11Z</time>
      </trkpt>
      <trkpt lat="47.59184" lon="-0.57124">
        <ele>40.03</ele>
        <time>2013-11-17T09:32:14Z</time>
      </trkpt>
      <trkpt lat="47.59205" lon="-0.57138">
        <ele>39.55</ele>
        <time>2013-11-17T09:32:19Z</time>
      </trkpt>
      <trkpt lat="47.5921" lon="-0.57151">
        <ele>39.55</ele>
        <time>2013-11-17T09:32:21Z</time>
      </trkpt>
      <trkpt lat="47.59226" lon="-0.57209">
        <ele>40.03</ele>
        <time>2013-11-17T09:32:30Z</time>
      </trkpt>
      <trkpt lat="47.59244" lon="-0.57228">
        <ele>40.03</ele>
        <time>2013-11-17T09:32:35Z</time>
      </trkpt>
      <trkpt lat="47.59249" lon="-0.57225">
        <ele>40.51</ele>
        <time>2013-11-17T09:32:36Z</time>
      </trkpt>
      <trkpt lat="47.59304" lon="-0.57198">
        <ele>40.03</ele>
        <time>2013-11-17T09:32:47Z</time>
      </trkpt>
      <trkpt lat="47.59324" lon="-0.5719">
        <ele>40.03</ele>
        <time>2013-11-17T09:32:51Z</time>
      </trkpt>
      <trkpt lat="47.59344" lon="-0.57185">
        <ele>39.55</ele>
        <time>2013-11-17T09:32:55Z</time>
      </trkpt>
      <trkpt lat="47.59369" lon="-0.57181">
        <ele>40.03</ele>
        <time>2013-11-17T09:33:00Z</time>
      </trkpt>
      <trkpt lat="47.59428" lon="-0.57175">
        <ele>40.03</ele>
        <time>2013-11-17T09:33:11Z</time>
      </trkpt>
      <trkpt lat="47.59464" lon="-0.5717">
        <ele>39.07</ele>
        <time>2013-11-17T09:33:18Z</time>
      </trkpt>
      <trkpt lat="47.59484" lon="-0.57172">
        <ele>39.55</ele>
        <time>2013-11-17T09:33:22Z</time>
      </trkpt>
      <trkpt lat="47.59505" lon="-0.57174">
        <ele>39.07</ele>
        <time>2013-11-17T09:33:26Z</time>
      </trkpt>
      <trkpt lat="47.59541" lon="-0.57176">
        <ele>39.07</ele>
        <time>2013-11-17T09:33:33Z</time>
      </trkpt>
      <trkpt lat="47.59556" lon="-0.57179">
        <ele>38.59</ele>
        <time>2013-11-17T09:33:36Z</time>
      </trkpt>
      <trkpt lat="47.59592" lon="-0.57198">
        <ele>39.07</ele>
        <time>2013-11-17T09:33:44Z</time>
      </trkpt>
      <trkpt lat="47.59597" lon="-0.572">
        <ele>38.59</ele>
        <time>2013-11-17T09:33:45Z</time>
      </trkpt>
      <trkpt lat="47.59638" lon="-0.57212">
        <ele>38.11</ele>
        <time>2013-11-17T09:33:54Z</time>
      </trkpt>
      <trkpt lat="47.59675" lon="-0.57208">
        <ele>37.63</ele>
        <time>2013-11-17T09:34:02Z</time>
      </trkpt>
      <trkpt lat="47.59704" lon="-0.57203">
        <ele>37.63</ele>
        <time>2013-11-17T09:34:08Z</time>
      </trkpt>
      <trkpt lat="47.59749" lon="-0.57198">
        <ele>37.15</ele>
        <time>2013-11-17T09:34:18Z</time>
      </trkpt>
      <trkpt lat="47.59777" lon="-0.57196">
        <ele>37.15</ele>
        <time>2013-11-17T09:34:25Z</time>
      </trkpt>
      <trkpt lat="47.59793" lon="-0.57194">
        <ele>37.63</ele>
        <time>2013-11-17T09:34:30Z</time>
      </trkpt>
      <trkpt lat="47.59793" lon="-0.57175">
        <ele>37.63</ele>
        <time>2013-11-17T09:34:35Z</time>
      </trkpt>
      <trkpt lat="47.5979" lon="-0.57168">
        <ele>37.63</ele>
        <time>2013-11-17T09:34:37Z</time>
      </trkpt>
      <trkpt lat="47.5977" lon="-0.57131">
        <ele>37.63</ele>
        <time>2013-11-17T09:34:47Z</time>
      </trkpt>
      <trkpt lat="47.59776" lon="-0.57109">
        <ele>37.15</ele>
        <time>2013-11-17T09:34:52Z</time>
      </trkpt>
      <trkpt lat="47.59806" lon="-0.57091">
        <ele>36.67</ele>
        <time>2013-11-17T09:35:01Z</time>
      </trkpt>
      <trkpt lat="47.59827" lon="-0.57068">
        <ele>36.67</ele>
        <time>2013-11-17T09:35:08Z</time>
      </trkpt>
      <trkpt lat="47.59839" lon="-0.5704">
        <ele>35.71</ele>
        <time>2013-11-17T09:35:14Z</time>
      </trkpt>
      <trkpt lat="47.59848" lon="-0.5702">
        <ele>35.71</ele>
        <time>2013-11-17T09:35:18Z</time>
      </trkpt>
      <trkpt lat="47.59868" lon="-0.57001">
        <ele>35.71</ele>
        <time>2013-11-17T09:35:24Z</time>
      </trkpt>
      <trkpt lat="47.59893" lon="-0.56982">
        <ele>35.71</ele>
        <time>2013-11-17T09:35:32Z</time>
      </trkpt>
      <trkpt lat="47.59909" lon="-0.5697">
        <ele>35.71</ele>
        <time>2013-11-17T09:35:40Z</time>
      </trkpt>
      <trkpt lat="47.59927" lon="-0.56959">
        <ele>35.71</ele>
        <time>2013-11-17T09:35:47Z</time>
      </trkpt>
      <trkpt lat="47.59945" lon="-0.56947">
        <ele>36.19</ele>
        <time>2013-11-17T09:35:55Z</time>
      </trkpt>
      <trkpt lat="47.59962" lon="-0.5693">
        <ele>36.19</ele>
        <time>2013-11-17T09:36:04Z</time>
      </trkpt>
      <trkpt lat="47.59971" lon="-0.5693">
        <ele>35.71</ele>
        <time>2013-11-17T09:36:10Z</time>
      </trkpt>
      <trkpt lat="47.59971" lon="-0.56929">
        <ele>36.19</ele>
        <time>2013-11-17T09:36:18Z</time>
      </trkpt>
      <trkpt lat="47.59971" lon="-0.56926">
        <ele>36.19</ele>
        <time>2013-11-17T09:36:20Z</time>
      </trkpt>
      <trkpt lat="47.59978" lon="-0.56905">
        <ele>36.19</ele>
        <time>2013-11-17T09:36:26Z</time>
      </trkpt>
      <trkpt lat="47.59988" lon="-0.56886">
        <ele>35.71</ele>
        <time>2013-11-17T09:36:31Z</time>
      </trkpt>
      <trkpt lat="47.6" lon="-0.56855">
        <ele>36.19</ele>
        <time>2013-11-17T09:36:38Z</time>
      </trkpt>
      <trkpt lat="47.60008" lon="-0.56828">
        <ele>36.19</ele>
        <time>2013-11-17T09:36:44Z</time>
      </trkpt>
      <trkpt lat="47.60014" lon="-0.56806">
        <ele>37.15</ele>
        <time>2013-11-17T09:36:50Z</time>
      </trkpt>
      <trkpt lat="47.60022" lon="-0.56783">
        <ele>36.67</ele>
        <time>2013-11-17T09:36:56Z</time>
      </trkpt>
      <trkpt lat="47.60027" lon="-0.56758">
        <ele>35.71</ele>
        <time>2013-11-17T09:37:02Z</time>
      </trkpt>
      <trkpt lat="47.60026" lon="-0.56727">
        <ele>37.63</ele>
        <time>2013-11-17T09:37:08Z</time>
      </trkpt>
      <trkpt lat="47.60023" lon="-0.56685">
        <ele>38.11</ele>
        <time>2013-11-17T09:37:16Z</time>
      </trkpt>
      <trkpt lat="47.60019" lon="-0.56656">
        <ele>37.63</ele>
        <time>2013-11-17T09:37:22Z</time>
      </trkpt>
      <trkpt lat="47.60015" lon="-0.56629">
        <ele>37.63</ele>
        <time>2013-11-17T09:37:28Z</time>
      </trkpt>
      <trkpt lat="47.60008" lon="-0.56593">
        <ele>38.11</ele>
        <time>2013-11-17T09:37:37Z</time>
      </trkpt>
      <trkpt lat="47.60001" lon="-0.5656">
        <ele>39.07</ele>
        <time>2013-11-17T09:37:43Z</time>
      </trkpt>
      <trkpt lat="47.59991" lon="-0.5652">
        <ele>39.55</ele>
        <time>2013-11-17T09:37:51Z</time>
      </trkpt>
      <trkpt lat="47.59983" lon="-0.56484">
        <ele>40.03</ele>
        <time>2013-11-17T09:37:58Z</time>
      </trkpt>
      <trkpt lat="47.59971" lon="-0.5646">
        <ele>40.51</ele>
        <time>2013-11-17T09:38:04Z</time>
      </trkpt>
      <trkpt lat="47.59943" lon="-0.56452">
        <ele>40.99</ele>
        <time>2013-11-17T09:38:11Z</time>
      </trkpt>
      <trkpt lat="47.5993" lon="-0.56434">
        <ele>41.47</ele>
        <time>2013-11-17T09:38:16Z</time>
      </trkpt>
      <trkpt lat="47.59924" lon="-0.56406">
        <ele>41.47</ele>
        <time>2013-11-17T09:38:22Z</time>
      </trkpt>
      <trkpt lat="47.59917" lon="-0.56377">
        <ele>42.44</ele>
        <time>2013-11-17T09:38:29Z</time>
      </trkpt>
      <trkpt lat="47.59909" lon="-0.56349">
        <ele>41.95</ele>
        <time>2013-11-17T09:38:35Z</time>
      </trkpt>
      <trkpt lat="47.59897" lon="-0.56315">
        <ele>42.44</ele>
        <time>2013-11-17T09:38:42Z</time>
      </trkpt>
      <trkpt lat="47.59883" lon="-0.56272">
        <ele>42.92</ele>
        <time>2013-11-17T09:38:50Z</time>
      </trkpt>
      <trkpt lat="47.59867" lon="-0.56233">
        <ele>42.44</ele>
        <time>2013-11-17T09:38:58Z</time>
      </trkpt>
      <trkpt lat="47.5985" lon="-0.56221">
        <ele>43.4</ele>
        <time>2013-11-17T09:39:03Z</time>
      </trkpt>
      <trkpt lat="47.59838" lon="-0.56205">
        <ele>43.88</ele>
        <time>2013-11-17T09:39:08Z</time>
      </trkpt>
      <trkpt lat="47.59825" lon="-0.56171">
        <ele>44.36</ele>
        <time>2013-11-17T09:39:15Z</time>
      </trkpt>
      <trkpt lat="47.59817" lon="-0.56141">
        <ele>45.32</ele>
        <time>2013-11-17T09:39:21Z</time>
      </trkpt>
      <trkpt lat="47.59809" lon="-0.56113">
        <ele>45.32</ele>
        <time>2013-11-17T09:39:28Z</time>
      </trkpt>
      <trkpt lat="47.59801" lon="-0.5608">
        <ele>46.28</ele>
        <time>2013-11-17T09:39:36Z</time>
      </trkpt>
      <trkpt lat="47.59794" lon="-0.56046">
        <ele>48.2</ele>
        <time>2013-11-17T09:39:45Z</time>
      </trkpt>
      <trkpt lat="47.59788" lon="-0.56023">
        <ele>49.65</ele>
        <time>2013-11-17T09:39:52Z</time>
      </trkpt>
      <trkpt lat="47.59785" lon="-0.56003">
        <ele>50.61</ele>
        <time>2013-11-17T09:39:58Z</time>
      </trkpt>
      <trkpt lat="47.59779" lon="-0.55971">
        <ele>52.05</ele>
        <time>2013-11-17T09:40:08Z</time>
      </trkpt>
      <trkpt lat="47.59776" lon="-0.55957">
        <ele>54.45</ele>
        <time>2013-11-17T09:40:13Z</time>
      </trkpt>
      <trkpt lat="47.59768" lon="-0.5594">
        <ele>54.93</ele>
        <time>2013-11-17T09:40:20Z</time>
      </trkpt>
      <trkpt lat="47.59761" lon="-0.55918">
        <ele>55.89</ele>
        <time>2013-11-17T09:40:28Z</time>
      </trkpt>
      <trkpt lat="47.59756" lon="-0.5589">
        <ele>56.37</ele>
        <time>2013-11-17T09:40:38Z</time>
      </trkpt>
      <trkpt lat="47.59756" lon="-0.55881">
        <ele>56.37</ele>
        <time>2013-11-17T09:40:44Z</time>
      </trkpt>
      <trkpt lat="47.59756" lon="-0.55881">
        <ele>56.37</ele>
        <time>2013-11-17T09:40:49Z</time>
      </trkpt>
      <trkpt lat="47.59757" lon="-0.55876">
        <ele>56.37</ele>
        <time>2013-11-17T09:40:52Z</time>
      </trkpt>
      <trkpt lat="47.59765" lon="-0.55864">
        <ele>56.37</ele>
        <time>2013-11-17T09:41:00Z</time>
      </trkpt>
      <trkpt lat="47.59765" lon="-0.55864">
        <ele>56.37</ele>
        <time>2013-11-17T09:41:06Z</time>
      </trkpt>
      <trkpt lat="47.59765" lon="-0.55864">
        <ele>55.89</ele>
        <time>2013-11-17T09:41:20Z</time>
      </trkpt>
      <trkpt lat="47.59765" lon="-0.55864">
        <ele>56.37</ele>
        <time>2013-11-17T09:41:34Z</time>
      </trkpt>
      <trkpt lat="47.59765" lon="-0.55864">
        <ele>55.89</ele>
        <time>2013-11-17T09:41:51Z</time>
      </trkpt>
      <trkpt lat="47.59765" lon="-0.55863">
        <ele>55.89</ele>
        <time>2013-11-17T09:42:02Z</time>
      </trkpt>
      <trkpt lat="47.59765" lon="-0.55863">
        <ele>55.89</ele>
        <time>2013-11-17T09:42:18Z</time>
      </trkpt>
      <trkpt lat="47.59765" lon="-0.55863">
        <ele>55.89</ele>
        <time>2013-11-17T09:42:34Z</time>
      </trkpt>
      <trkpt lat="47.59765" lon="-0.55863">
        <ele>55.89</ele>
        <time>2013-11-17T09:42:45Z</time>
      </trkpt>
      <trkpt lat="47.59765" lon="-0.55863">
        <ele>55.89</ele>
        <time>2013-11-17T09:42:57Z</time>
      </trkpt>
      <trkpt lat="47.59765" lon="-0.55863">
        <ele>55.41</ele>
        <time>2013-11-17T09:43:10Z</time>
      </trkpt>
      <trkpt lat="47.59765" lon="-0.55863">
        <ele>55.89</ele>
        <time>2013-11-17T09:43:26Z</time>
      </trkpt>
      <trkpt lat="47.59765" lon="-0.55863">
        <ele>55.89</ele>
        <time>2013-11-17T09:43:36Z</time>
      </trkpt>
      <trkpt lat="47.59765" lon="-0.55863">
        <ele>55.41</ele>
        <time>2013-11-17T09:43:42Z</time>
      </trkpt>
      <trkpt lat="47.59774" lon="-0.55859">
        <ele>55.89</ele>
        <time>2013-11-17T09:43:49Z</time>
      </trkpt>
      <trkpt lat="47.59775" lon="-0.55859">
        <ele>56.37</ele>
        <time>2013-11-17T09:43:50Z</time>
      </trkpt>
      <trkpt lat="47.59782" lon="-0.55852">
        <ele>56.37</ele>
        <time>2013-11-17T09:43:54Z</time>
      </trkpt>
      <trkpt lat="47.59786" lon="-0.55845">
        <ele>56.37</ele>
        <time>2013-11-17T09:43:56Z</time>
      </trkpt>
      <trkpt lat="47.5978" lon="-0.55816">
        <ele>55.41</ele>
        <time>2013-11-17T09:44:02Z</time>
      </trkpt>
      <trkpt lat="47.59776" lon="-0.55793">
        <ele>54.45</ele>
        <time>2013-11-17T09:44:06Z</time>
      </trkpt>
      <trkpt lat="47.59769" lon="-0.55744">
        <ele>51.57</ele>
        <time>2013-11-17T09:44:14Z</time>
      </trkpt>
      <trkpt lat="47.59768" lon="-0.55732">
        <ele>51.57</ele>
        <time>2013-11-17T09:44:17Z</time>
      </trkpt>
      <trkpt lat="47.59764" lon="-0.55708">
        <ele>50.13</ele>
        <time>2013-11-17T09:44:21Z</time>
      </trkpt>
      <trkpt lat="47.59761" lon="-0.55689">
        <ele>48.68</ele>
        <time>2013-11-17T09:44:23Z</time>
      </trkpt>
      <trkpt lat="47.59758" lon="-0.55668">
        <ele>47.72</ele>
        <time>2013-11-17T09:44:25Z</time>
      </trkpt>
      <trkpt lat="47.59752" lon="-0.55601">
        <ele>44.84</ele>
        <time>2013-11-17T09:44:31Z</time>
      </trkpt>
      <trkpt lat="47.5975" lon="-0.55565">
        <ele>43.4</ele>
        <time>2013-11-17T09:44:34Z</time>
      </trkpt>
      <trkpt lat="47.59749" lon="-0.55553">
        <ele>42.92</ele>
        <time>2013-11-17T09:44:35Z</time>
      </trkpt>
      <trkpt lat="47.59749" lon="-0.55474">
        <ele>40.99</ele>
        <time>2013-11-17T09:44:42Z</time>
      </trkpt>
      <trkpt lat="47.59747" lon="-0.55441">
        <ele>39.07</ele>
        <time>2013-11-17T09:44:46Z</time>
      </trkpt>
      <trkpt lat="47.59734" lon="-0.55419">
        <ele>38.59</ele>
        <time>2013-11-17T09:44:51Z</time>
      </trkpt>
      <trkpt lat="47.59723" lon="-0.55416">
        <ele>38.59</ele>
        <time>2013-11-17T09:44:55Z</time>
      </trkpt>
      <trkpt lat="47.597" lon="-0.55412">
        <ele>38.11</ele>
        <time>2013-11-17T09:45:01Z</time>
      </trkpt>
      <trkpt lat="47.59677" lon="-0.55411">
        <ele>38.11</ele>
        <time>2013-11-17T09:45:07Z</time>
      </trkpt>
      <trkpt lat="47.59665" lon="-0.55404">
        <ele>37.63</ele>
        <time>2013-11-17T09:45:11Z</time>
      </trkpt>
      <trkpt lat="47.59661" lon="-0.55393">
        <ele>37.63</ele>
        <time>2013-11-17T09:45:13Z</time>
      </trkpt>
      <trkpt lat="47.59658" lon="-0.5538">
        <ele>37.15</ele>
        <time>2013-11-17T09:45:15Z</time>
      </trkpt>
      <trkpt lat="47.59653" lon="-0.5533">
        <ele>36.67</ele>
        <time>2013-11-17T09:45:23Z</time>
      </trkpt>
      <trkpt lat="47.59652" lon="-0.55324">
        <ele>36.67</ele>
        <time>2013-11-17T09:45:24Z</time>
      </trkpt>
      <trkpt lat="47.59641" lon="-0.55278">
        <ele>37.15</ele>
        <time>2013-11-17T09:45:31Z</time>
      </trkpt>
      <trkpt lat="47.59634" lon="-0.5526">
        <ele>37.15</ele>
        <time>2013-11-17T09:45:34Z</time>
      </trkpt>
      <trkpt lat="47.59611" lon="-0.55213">
        <ele>36.19</ele>
        <time>2013-11-17T09:45:42Z</time>
      </trkpt>
      <trkpt lat="47.59587" lon="-0.55167">
        <ele>36.19</ele>
        <time>2013-11-17T09:45:50Z</time>
      </trkpt>
      <trkpt lat="47.59573" lon="-0.55146">
        <ele>36.19</ele>
        <time>2013-11-17T09:45:54Z</time>
      </trkpt>
      <trkpt lat="47.59547" lon="-0.55109">
        <ele>36.19</ele>
        <time>2013-11-17T09:46:01Z</time>
      </trkpt>
      <trkpt lat="47.59533" lon="-0.55084">
        <ele>36.19</ele>
        <time>2013-11-17T09:46:05Z</time>
      </trkpt>
      <trkpt lat="47.59521" lon="-0.55057">
        <ele>36.19</ele>
        <time>2013-11-17T09:46:09Z</time>
      </trkpt>
      <trkpt lat="47.595" lon="-0.55006">
        <ele>34.74</ele>
        <time>2013-11-17T09:46:17Z</time>
      </trkpt>
      <trkpt lat="47.59504" lon="-0.54983">
        <ele>34.74</ele>
        <time>2013-11-17T09:46:22Z</time>
      </trkpt>
      <trkpt lat="47.59499" lon="-0.54943">
        <ele>34.26</ele>
        <time>2013-11-17T09:46:29Z</time>
      </trkpt>
      <trkpt lat="47.59494" lon="-0.54913">
        <ele>34.26</ele>
        <time>2013-11-17T09:46:34Z</time>
      </trkpt>
      <trkpt lat="47.59503" lon="-0.54893">
        <ele>34.26</ele>
        <time>2013-11-17T09:46:38Z</time>
      </trkpt>
      <trkpt lat="47.59512" lon="-0.54875">
        <ele>34.26</ele>
        <time>2013-11-17T09:46:42Z</time>
      </trkpt>
      <trkpt lat="47.59507" lon="-0.54846">
        <ele>34.26</ele>
        <time>2013-11-17T09:46:47Z</time>
      </trkpt>
      <trkpt lat="47.59502" lon="-0.54823">
        <ele>33.3</ele>
        <time>2013-11-17T09:46:51Z</time>
      </trkpt>
      <trkpt lat="47.59489" lon="-0.54777">
        <ele>32.82</ele>
        <time>2013-11-17T09:46:59Z</time>
      </trkpt>
      <trkpt lat="47.59483" lon="-0.54759">
        <ele>32.34</ele>
        <time>2013-11-17T09:47:04Z</time>
      </trkpt>
      <trkpt lat="47.59483" lon="-0.54758">
        <ele>32.34</ele>
        <time>2013-11-17T09:47:10Z</time>
      </trkpt>
      <trkpt lat="47.59481" lon="-0.54746">
        <ele>32.34</ele>
        <time>2013-11-17T09:47:16Z</time>
      </trkpt>
      <trkpt lat="47.5948" lon="-0.54741">
        <ele>32.34</ele>
        <time>2013-11-17T09:47:23Z</time>
      </trkpt>
      <trkpt lat="47.5948" lon="-0.5474">
        <ele>32.34</ele>
        <time>2013-11-17T09:47:33Z</time>
      </trkpt>
      <trkpt lat="47.59472" lon="-0.54725">
        <ele>32.34</ele>
        <time>2013-11-17T09:47:39Z</time>
      </trkpt>
      <trkpt lat="47.59458" lon="-0.54687">
        <ele>31.86</ele>
        <time>2013-11-17T09:47:47Z</time>
      </trkpt>
      <trkpt lat="47.59442" lon="-0.54646">
        <ele>31.38</ele>
        <time>2013-11-17T09:47:55Z</time>
      </trkpt>
      <trkpt lat="47.59439" lon="-0.54642">
        <ele>31.86</ele>
        <time>2013-11-17T09:47:56Z</time>
      </trkpt>
      <trkpt lat="47.59431" lon="-0.54621">
        <ele>31.38</ele>
        <time>2013-11-17T09:48:00Z</time>
      </trkpt>
      <trkpt lat="47.59415" lon="-0.54583">
        <ele>31.38</ele>
        <time>2013-11-17T09:48:07Z</time>
      </trkpt>
      <trkpt lat="47.5941" lon="-0.54573">
        <ele>31.38</ele>
        <time>2013-11-17T09:48:09Z</time>
      </trkpt>
      <trkpt lat="47.59401" lon="-0.54552">
        <ele>31.38</ele>
        <time>2013-11-17T09:48:13Z</time>
      </trkpt>
      <trkpt lat="47.59388" lon="-0.54505">
        <ele>30.42</ele>
        <time>2013-11-17T09:48:20Z</time>
      </trkpt>
      <trkpt lat="47.59387" lon="-0.54499">
        <ele>30.42</ele>
        <time>2013-11-17T09:48:21Z</time>
      </trkpt>
      <trkpt lat="47.59383" lon="-0.54478">
        <ele>30.42</ele>
        <time>2013-11-17T09:48:24Z</time>
      </trkpt>
      <trkpt lat="47.59376" lon="-0.54459">
        <ele>29.94</ele>
        <time>2013-11-17T09:48:27Z</time>
      </trkpt>
      <trkpt lat="47.59359" lon="-0.54431">
        <ele>29.46</ele>
        <time>2013-11-17T09:48:34Z</time>
      </trkpt>
      <trkpt lat="47.5936" lon="-0.54423">
        <ele>29.46</ele>
        <time>2013-11-17T09:48:36Z</time>
      </trkpt>
      <trkpt lat="47.59365" lon="-0.54394">
        <ele>29.46</ele>
        <time>2013-11-17T09:48:43Z</time>
      </trkpt>
      <trkpt lat="47.59373" lon="-0.5435">
        <ele>29.46</ele>
        <time>2013-11-17T09:48:52Z</time>
      </trkpt>
      <trkpt lat="47.59377" lon="-0.54323">
        <ele>29.46</ele>
        <time>2013-11-17T09:48:57Z</time>
      </trkpt>
      <trkpt lat="47.59385" lon="-0.54266">
        <ele>28.5</ele>
        <time>2013-11-17T09:49:07Z</time>
      </trkpt>
      <trkpt lat="47.59386" lon="-0.54242">
        <ele>28.98</ele>
        <time>2013-11-17T09:49:11Z</time>
      </trkpt>
      <trkpt lat="47.59386" lon="-0.54218">
        <ele>28.98</ele>
        <time>2013-11-17T09:49:15Z</time>
      </trkpt>
      <trkpt lat="47.59384" lon="-0.54206">
        <ele>28.5</ele>
        <time>2013-11-17T09:49:17Z</time>
      </trkpt>
      <trkpt lat="47.59382" lon="-0.54188">
        <ele>28.5</ele>
        <time>2013-11-17T09:49:20Z</time>
      </trkpt>
      <trkpt lat="47.59378" lon="-0.54154">
        <ele>20.81</ele>
        <time>2013-11-17T09:49:25Z</time>
      </trkpt>
      <trkpt lat="47.59377" lon="-0.54147">
        <ele>29.94</ele>
        <time>2013-11-17T09:49:26Z</time>
      </trkpt>
      <trkpt lat="47.59381" lon="-0.54095">
        <ele>28.98</ele>
        <time>2013-11-17T09:49:33Z</time>
      </trkpt>
      <trkpt lat="47.59385" lon="-0.5408">
        <ele>28.5</ele>
        <time>2013-11-17T09:49:35Z</time>
      </trkpt>
      <trkpt lat="47.5939" lon="-0.54067">
        <ele>28.02</ele>
        <time>2013-11-17T09:49:37Z</time>
      </trkpt>
      <trkpt lat="47.59414" lon="-0.54017">
        <ele>28.5</ele>
        <time>2013-11-17T09:49:45Z</time>
      </trkpt>
      <trkpt lat="47.59429" lon="-0.53953">
        <ele>29.46</ele>
        <time>2013-11-17T09:49:54Z</time>
      </trkpt>
      <trkpt lat="47.5943" lon="-0.53891">
        <ele>28.98</ele>
        <time>2013-11-17T09:50:02Z</time>
      </trkpt>
      <trkpt lat="47.59426" lon="-0.53814">
        <ele>29.94</ele>
        <time>2013-11-17T09:50:12Z</time>
      </trkpt>
      <trkpt lat="47.59424" lon="-0.53765">
        <ele>29.46</ele>
        <time>2013-11-17T09:50:19Z</time>
      </trkpt>
      <trkpt lat="47.5942" lon="-0.53713">
        <ele>29.94</ele>
        <time>2013-11-17T09:50:26Z</time>
      </trkpt>
      <trkpt lat="47.59409" lon="-0.5369">
        <ele>28.98</ele>
        <time>2013-11-17T09:50:30Z</time>
      </trkpt>
      <trkpt lat="47.59399" lon="-0.5369">
        <ele>28.98</ele>
        <time>2013-11-17T09:50:32Z</time>
      </trkpt>
      <trkpt lat="47.59344" lon="-0.53697">
        <ele>28.98</ele>
        <time>2013-11-17T09:50:42Z</time>
      </trkpt>
      <trkpt lat="47.59285" lon="-0.53693">
        <ele>28.02</ele>
        <time>2013-11-17T09:50:52Z</time>
      </trkpt>
      <trkpt lat="47.59247" lon="-0.53686">
        <ele>28.02</ele>
        <time>2013-11-17T09:50:59Z</time>
      </trkpt>
      <trkpt lat="47.59236" lon="-0.53685">
        <ele>27.53</ele>
        <time>2013-11-17T09:51:01Z</time>
      </trkpt>
      <trkpt lat="47.59221" lon="-0.53669">
        <ele>27.53</ele>
        <time>2013-11-17T09:51:05Z</time>
      </trkpt>
      <trkpt lat="47.59219" lon="-0.53661">
        <ele>27.53</ele>
        <time>2013-11-17T09:51:06Z</time>
      </trkpt>
      <trkpt lat="47.59214" lon="-0.53647">
        <ele>27.05</ele>
        <time>2013-11-17T09:51:08Z</time>
      </trkpt>
      <trkpt lat="47.5921" lon="-0.53611">
        <ele>27.05</ele>
        <time>2013-11-17T09:51:13Z</time>
      </trkpt>
      <trkpt lat="47.59212" lon="-0.53583">
        <ele>27.05</ele>
        <time>2013-11-17T09:51:17Z</time>
      </trkpt>
      <trkpt lat="47.59205" lon="-0.53548">
        <ele>26.57</ele>
        <time>2013-11-17T09:51:23Z</time>
      </trkpt>
      <trkpt lat="47.59197" lon="-0.53536">
        <ele>26.57</ele>
        <time>2013-11-17T09:51:26Z</time>
      </trkpt>
      <trkpt lat="47.59186" lon="-0.53525">
        <ele>27.05</ele>
        <time>2013-11-17T09:51:30Z</time>
      </trkpt>
      <trkpt lat="47.59169" lon="-0.53507">
        <ele>27.05</ele>
        <time>2013-11-17T09:51:36Z</time>
      </trkpt>
      <trkpt lat="47.59163" lon="-0.53501">
        <ele>27.05</ele>
        <time>2013-11-17T09:51:38Z</time>
      </trkpt>
      <trkpt lat="47.5914" lon="-0.53472">
        <ele>27.53</ele>
        <time>2013-11-17T09:51:46Z</time>
      </trkpt>
      <trkpt lat="47.59122" lon="-0.53441">
        <ele>27.53</ele>
        <time>2013-11-17T09:51:54Z</time>
      </trkpt>
      <trkpt lat="47.59102" lon="-0.53412">
        <ele>28.5</ele>
        <time>2013-11-17T09:52:02Z</time>
      </trkpt>
      <trkpt lat="47.59085" lon="-0.53392">
        <ele>27.53</ele>
        <time>2013-11-17T09:52:08Z</time>
      </trkpt>
      <trkpt lat="47.59069" lon="-0.5338">
        <ele>27.05</ele>
        <time>2013-11-17T09:52:13Z</time>
      </trkpt>
      <trkpt lat="47.59037" lon="-0.53364">
        <ele>26.57</ele>
        <time>2013-11-17T09:52:21Z</time>
      </trkpt>
      <trkpt lat="47.59032" lon="-0.53363">
        <ele>26.09</ele>
        <time>2013-11-17T09:52:22Z</time>
      </trkpt>
      <trkpt lat="47.59003" lon="-0.53345">
        <ele>24.65</ele>
        <time>2013-11-17T09:52:28Z</time>
      </trkpt>
      <trkpt lat="47.58967" lon="-0.53307">
        <ele>22.73</ele>
        <time>2013-11-17T09:52:36Z</time>
      </trkpt>
      <trkpt lat="47.58958" lon="-0.53295">
        <ele>22.25</ele>
        <time>2013-11-17T09:52:38Z</time>
      </trkpt>
      <trkpt lat="47.58937" lon="-0.53262">
        <ele>21.29</ele>
        <time>2013-11-17T09:52:43Z</time>
      </trkpt>
      <trkpt lat="47.58898" lon="-0.53227">
        <ele>19.36</ele>
        <time>2013-11-17T09:52:51Z</time>
      </trkpt>
      <trkpt lat="47.58879" lon="-0.53226">
        <ele>19.36</ele>
        <time>2013-11-17T09:52:55Z</time>
      </trkpt>
      <trkpt lat="47.58869" lon="-0.53229">
        <ele>19.84</ele>
        <time>2013-11-17T09:52:57Z</time>
      </trkpt>
      <trkpt lat="47.58851" lon="-0.53217">
        <ele>18.88</ele>
        <time>2013-11-17T09:53:02Z</time>
      </trkpt>
      <trkpt lat="47.58832" lon="-0.53184">
        <ele>19.84</ele>
        <time>2013-11-17T09:53:10Z</time>
      </trkpt>
      <trkpt lat="47.58813" lon="-0.53151">
        <ele>19.36</ele>
        <time>2013-11-17T09:53:18Z</time>
      </trkpt>
      <trkpt lat="47.58798" lon="-0.53121">
        <ele>18.88</ele>
        <time>2013-11-17T09:53:25Z</time>
      </trkpt>
      <trkpt lat="47.58788" lon="-0.53098">
        <ele>18.88</ele>
        <time>2013-11-17T09:53:30Z</time>
      </trkpt>
      <trkpt lat="47.58778" lon="-0.53058">
        <ele>18.88</ele>
        <time>2013-11-17T09:53:37Z</time>
      </trkpt>
      <trkpt lat="47.58777" lon="-0.53052">
        <ele>18.4</ele>
        <time>2013-11-17T09:53:38Z</time>
      </trkpt>
      <trkpt lat="47.58773" lon="-0.53041">
        <ele>18.4</ele>
        <time>2013-11-17T09:53:40Z</time>
      </trkpt>
      <trkpt lat="47.5876" lon="-0.53017">
        <ele>18.4</ele>
        <time>2013-11-17T09:53:45Z</time>
      </trkpt>
      <trkpt lat="47.58753" lon="-0.5301">
        <ele>18.4</ele>
        <time>2013-11-17T09:53:47Z</time>
      </trkpt>
      <trkpt lat="47.5874" lon="-0.53004">
        <ele>17.92</ele>
        <time>2013-11-17T09:53:50Z</time>
      </trkpt>
      <trkpt lat="47.58704" lon="-0.52998">
        <ele>18.4</ele>
        <time>2013-11-17T09:53:58Z</time>
      </trkpt>
      <trkpt lat="47.58687" lon="-0.52979">
        <ele>17.92</ele>
        <time>2013-11-17T09:54:03Z</time>
      </trkpt>
      <trkpt lat="47.58685" lon="-0.52974">
        <ele>17.92</ele>
        <time>2013-11-17T09:54:04Z</time>
      </trkpt>
      <trkpt lat="47.58682" lon="-0.52961">
        <ele>17.92</ele>
        <time>2013-11-17T09:54:06Z</time>
      </trkpt>
      <trkpt lat="47.58676" lon="-0.52942">
        <ele>17.92</ele>
        <time>2013-11-17T09:54:09Z</time>
      </trkpt>
      <trkpt lat="47.58658" lon="-0.52921">
        <ele>17.92</ele>
        <time>2013-11-17T09:54:14Z</time>
      </trkpt>
      <trkpt lat="47.58644" lon="-0.52924">
        <ele>17.92</ele>
        <time>2013-11-17T09:54:17Z</time>
      </trkpt>
      <trkpt lat="47.58601" lon="-0.52942">
        <ele>17.92</ele>
        <time>2013-11-17T09:54:26Z</time>
      </trkpt>
      <trkpt lat="47.58591" lon="-0.52945">
        <ele>18.4</ele>
        <time>2013-11-17T09:54:28Z</time>
      </trkpt>
      <trkpt lat="47.58566" lon="-0.52954">
        <ele>17.44</ele>
        <time>2013-11-17T09:54:33Z</time>
      </trkpt>
      <trkpt lat="47.5852" lon="-0.52962">
        <ele>17.44</ele>
        <time>2013-11-17T09:54:42Z</time>
      </trkpt>
      <trkpt lat="47.58483" lon="-0.52969">
        <ele>17.92</ele>
        <time>2013-11-17T09:54:49Z</time>
      </trkpt>
      <trkpt lat="47.58442" lon="-0.52979">
        <ele>17.92</ele>
        <time>2013-11-17T09:54:57Z</time>
      </trkpt>
      <trkpt lat="47.58403" lon="-0.52987">
        <ele>17.92</ele>
        <time>2013-11-17T09:55:04Z</time>
      </trkpt>
      <trkpt lat="47.58363" lon="-0.5299">
        <ele>17.92</ele>
        <time>2013-11-17T09:55:11Z</time>
      </trkpt>
      <trkpt lat="47.58307" lon="-0.52992">
        <ele>17.44</ele>
        <time>2013-11-17T09:55:21Z</time>
      </trkpt>
      <trkpt lat="47.58255" lon="-0.52984">
        <ele>17.44</ele>
        <time>2013-11-17T09:55:30Z</time>
      </trkpt>
      <trkpt lat="47.582" lon="-0.52966">
        <ele>16.96</ele>
        <time>2013-11-17T09:55:40Z</time>
      </trkpt>
      <trkpt lat="47.58149" lon="-0.52954">
        <ele>17.44</ele>
        <time>2013-11-17T09:55:49Z</time>
      </trkpt>
      <trkpt lat="47.58109" lon="-0.52947">
        <ele>16.96</ele>
        <time>2013-11-17T09:55:56Z</time>
      </trkpt>
      <trkpt lat="47.58057" lon="-0.52946">
        <ele>16.96</ele>
        <time>2013-11-17T09:56:05Z</time>
      </trkpt>
      <trkpt lat="47.5804" lon="-0.52946">
        <ele>17.44</ele>
        <time>2013-11-17T09:56:08Z</time>
      </trkpt>
      <trkpt lat="47.57994" lon="-0.52939">
        <ele>16.96</ele>
        <time>2013-11-17T09:56:16Z</time>
      </trkpt>
      <trkpt lat="47.57983" lon="-0.52938">
        <ele>17.44</ele>
        <time>2013-11-17T09:56:18Z</time>
      </trkpt>
      <trkpt lat="47.57932" lon="-0.52938">
        <ele>16.96</ele>
        <time>2013-11-17T09:56:27Z</time>
      </trkpt>
      <trkpt lat="47.57881" lon="-0.52936">
        <ele>16.96</ele>
        <time>2013-11-17T09:56:36Z</time>
      </trkpt>
      <trkpt lat="47.57847" lon="-0.52932">
        <ele>16.48</ele>
        <time>2013-11-17T09:56:42Z</time>
      </trkpt>
      <trkpt lat="47.57836" lon="-0.52931">
        <ele>17.44</ele>
        <time>2013-11-17T09:56:44Z</time>
      </trkpt>
      <trkpt lat="47.57808" lon="-0.52928">
        <ele>17.44</ele>
        <time>2013-11-17T09:56:49Z</time>
      </trkpt>
      <trkpt lat="47.57774" lon="-0.52943">
        <ele>17.44</ele>
        <time>2013-11-17T09:56:55Z</time>
      </trkpt>
      <trkpt lat="47.57764" lon="-0.52953">
        <ele>16.96</ele>
        <time>2013-11-17T09:56:57Z</time>
      </trkpt>
      <trkpt lat="47.57722" lon="-0.53012">
        <ele>16.96</ele>
        <time>2013-11-17T09:57:07Z</time>
      </trkpt>
      <trkpt lat="47.57692" lon="-0.53063">
        <ele>16.48</ele>
        <time>2013-11-17T09:57:15Z</time>
      </trkpt>
      <trkpt lat="47.57671" lon="-0.53108">
        <ele>16.96</ele>
        <time>2013-11-17T09:57:22Z</time>
      </trkpt>
      <trkpt lat="47.57667" lon="-0.53114">
        <ele>16.96</ele>
        <time>2013-11-17T09:57:23Z</time>
      </trkpt>
      <trkpt lat="47.57634" lon="-0.53145">
        <ele>16.96</ele>
        <time>2013-11-17T09:57:30Z</time>
      </trkpt>
      <trkpt lat="47.57599" lon="-0.53175">
        <ele>16.96</ele>
        <time>2013-11-17T09:57:37Z</time>
      </trkpt>
      <trkpt lat="47.57574" lon="-0.53199">
        <ele>16.48</ele>
        <time>2013-11-17T09:57:42Z</time>
      </trkpt>
      <trkpt lat="47.57552" lon="-0.53229">
        <ele>16</ele>
        <time>2013-11-17T09:57:47Z</time>
      </trkpt>
      <trkpt lat="47.57533" lon="-0.53284">
        <ele>16</ele>
        <time>2013-11-17T09:57:54Z</time>
      </trkpt>
      <trkpt lat="47.57524" lon="-0.53343">
        <ele>16.48</ele>
        <time>2013-11-17T09:58:01Z</time>
      </trkpt>
      <trkpt lat="47.57524" lon="-0.53369">
        <ele>16.96</ele>
        <time>2013-11-17T09:58:04Z</time>
      </trkpt>
      <trkpt lat="47.57523" lon="-0.53385">
        <ele>16.96</ele>
        <time>2013-11-17T09:58:06Z</time>
      </trkpt>
      <trkpt lat="47.57505" lon="-0.534">
        <ele>16.48</ele>
        <time>2013-11-17T09:58:10Z</time>
      </trkpt>
      <trkpt lat="47.57469" lon="-0.53407">
        <ele>16.48</ele>
        <time>2013-11-17T09:58:17Z</time>
      </trkpt>
      <trkpt lat="47.57451" lon="-0.53412">
        <ele>16.96</ele>
        <time>2013-11-17T09:58:21Z</time>
      </trkpt>
      <trkpt lat="47.57436" lon="-0.53416">
        <ele>17.44</ele>
        <time>2013-11-17T09:58:24Z</time>
      </trkpt>
      <trkpt lat="47.5739" lon="-0.5343">
        <ele>16.96</ele>
        <time>2013-11-17T09:58:33Z</time>
      </trkpt>
      <trkpt lat="47.57361" lon="-0.53448">
        <ele>16.48</ele>
        <time>2013-11-17T09:58:39Z</time>
      </trkpt>
      <trkpt lat="47.57318" lon="-0.53483">
        <ele>16.96</ele>
        <time>2013-11-17T09:58:48Z</time>
      </trkpt>
      <trkpt lat="47.57292" lon="-0.53525">
        <ele>16.48</ele>
        <time>2013-11-17T09:58:55Z</time>
      </trkpt>
      <trkpt lat="47.57291" lon="-0.53541">
        <ele>16.96</ele>
        <time>2013-11-17T09:58:57Z</time>
      </trkpt>
      <trkpt lat="47.5728" lon="-0.53616">
        <ele>17.44</ele>
        <time>2013-11-17T09:59:07Z</time>
      </trkpt>
      <trkpt lat="47.5727" lon="-0.53677">
        <ele>17.92</ele>
        <time>2013-11-17T09:59:15Z</time>
      </trkpt>
      <trkpt lat="47.57263" lon="-0.53731">
        <ele>18.4</ele>
        <time>2013-11-17T09:59:22Z</time>
      </trkpt>
      <trkpt lat="47.57265" lon="-0.53796">
        <ele>18.4</ele>
        <time>2013-11-17T09:59:30Z</time>
      </trkpt>
      <trkpt lat="47.57266" lon="-0.53811">
        <ele>17.92</ele>
        <time>2013-11-17T09:59:32Z</time>
      </trkpt>
      <trkpt lat="47.57257" lon="-0.53835">
        <ele>17.44</ele>
        <time>2013-11-17T09:59:36Z</time>
      </trkpt>
      <trkpt lat="47.57241" lon="-0.5384">
        <ele>16.96</ele>
        <time>2013-11-17T09:59:39Z</time>
      </trkpt>
      <trkpt lat="47.5719" lon="-0.53843">
        <ele>16.48</ele>
        <time>2013-11-17T09:59:48Z</time>
      </trkpt>
      <trkpt lat="47.5718" lon="-0.53846">
        <ele>16</ele>
        <time>2013-11-17T09:59:50Z</time>
      </trkpt>
      <trkpt lat="47.5717" lon="-0.53849">
        <ele>15.04</ele>
        <time>2013-11-17T09:59:52Z</time>
      </trkpt>
      <trkpt lat="47.57138" lon="-0.53868">
        <ele>16.48</ele>
        <time>2013-11-17T09:59:59Z</time>
      </trkpt>
      <trkpt lat="47.57128" lon="-0.53873">
        <ele>16.48</ele>
        <time>2013-11-17T10:00:01Z</time>
      </trkpt>
      <trkpt lat="47.57104" lon="-0.53889">
        <ele>16.48</ele>
        <time>2013-11-17T10:00:06Z</time>
      </trkpt>
      <trkpt lat="47.5706" lon="-0.53917">
        <ele>16.48</ele>
        <time>2013-11-17T10:00:15Z</time>
      </trkpt>
      <trkpt lat="47.57044" lon="-0.53929">
        <ele>16</ele>
        <time>2013-11-17T10:00:19Z</time>
      </trkpt>
      <trkpt lat="47.57035" lon="-0.5395">
        <ele>16.48</ele>
        <time>2013-11-17T10:00:23Z</time>
      </trkpt>
      <trkpt lat="47.57034" lon="-0.53975">
        <ele>16.96</ele>
        <time>2013-11-17T10:00:27Z</time>
      </trkpt>
      <trkpt lat="47.57013" lon="-0.54011">
        <ele>16.48</ele>
        <time>2013-11-17T10:00:34Z</time>
      </trkpt>
      <trkpt lat="47.57003" lon="-0.54024">
        <ele>16.96</ele>
        <time>2013-11-17T10:00:37Z</time>
      </trkpt>
      <trkpt lat="47.56969" lon="-0.54066">
        <ele>16.96</ele>
        <time>2013-11-17T10:00:46Z</time>
      </trkpt>
      <trkpt lat="47.56965" lon="-0.5407">
        <ele>16</ele>
        <time>2013-11-17T10:00:47Z</time>
      </trkpt>
      <trkpt lat="47.56951" lon="-0.54079">
        <ele>16.96</ele>
        <time>2013-11-17T10:00:50Z</time>
      </trkpt>
      <trkpt lat="47.56916" lon="-0.54094">
        <ele>16.96</ele>
        <time>2013-11-17T10:00:57Z</time>
      </trkpt>
      <trkpt lat="47.56889" lon="-0.54106">
        <ele>16.96</ele>
        <time>2013-11-17T10:01:03Z</time>
      </trkpt>
      <trkpt lat="47.56857" lon="-0.54121">
        <ele>16.48</ele>
        <time>2013-11-17T10:01:12Z</time>
      </trkpt>
      <trkpt lat="47.56838" lon="-0.54131">
        <ele>16</ele>
        <time>2013-11-17T10:01:18Z</time>
      </trkpt>
      <trkpt lat="47.56807" lon="-0.54148">
        <ele>16.48</ele>
        <time>2013-11-17T10:01:26Z</time>
      </trkpt>
      <trkpt lat="47.56787" lon="-0.54162">
        <ele>16.48</ele>
        <time>2013-11-17T10:01:31Z</time>
      </trkpt>
      <trkpt lat="47.56758" lon="-0.54181">
        <ele>16.48</ele>
        <time>2013-11-17T10:01:38Z</time>
      </trkpt>
      <trkpt lat="47.56719" lon="-0.54202">
        <ele>15.52</ele>
        <time>2013-11-17T10:01:47Z</time>
      </trkpt>
      <trkpt lat="47.56695" lon="-0.54231">
        <ele>16</ele>
        <time>2013-11-17T10:01:54Z</time>
      </trkpt>
      <trkpt lat="47.56689" lon="-0.54241">
        <ele>16</ele>
        <time>2013-11-17T10:01:56Z</time>
      </trkpt>
      <trkpt lat="47.56662" lon="-0.54276">
        <ele>16</ele>
        <time>2013-11-17T10:02:04Z</time>
      </trkpt>
      <trkpt lat="47.56624" lon="-0.54289">
        <ele>16</ele>
        <time>2013-11-17T10:02:13Z</time>
      </trkpt>
      <trkpt lat="47.56593" lon="-0.543">
        <ele>16.48</ele>
        <time>2013-11-17T10:02:21Z</time>
      </trkpt>
      <trkpt lat="47.56581" lon="-0.54302">
        <ele>16</ele>
        <time>2013-11-17T10:02:24Z</time>
      </trkpt>
      <trkpt lat="47.56555" lon="-0.54312">
        <ele>16.48</ele>
        <time>2013-11-17T10:02:31Z</time>
      </trkpt>
      <trkpt lat="47.56522" lon="-0.54323">
        <ele>16</ele>
        <time>2013-11-17T10:02:39Z</time>
      </trkpt>
      <trkpt lat="47.56497" lon="-0.54332">
        <ele>16</ele>
        <time>2013-11-17T10:02:45Z</time>
      </trkpt>
      <trkpt lat="47.56489" lon="-0.54337">
        <ele>15.52</ele>
        <time>2013-11-17T10:02:47Z</time>
      </trkpt>
      <trkpt lat="47.5645" lon="-0.54354">
        <ele>15.52</ele>
        <time>2013-11-17T10:02:56Z</time>
      </trkpt>
      <trkpt lat="47.56422" lon="-0.54362">
        <ele>15.52</ele>
        <time>2013-11-17T10:03:03Z</time>
      </trkpt>
      <trkpt lat="47.56406" lon="-0.54371">
        <ele>15.52</ele>
        <time>2013-11-17T10:03:08Z</time>
      </trkpt>
      <trkpt lat="47.56402" lon="-0.54394">
        <ele>15.52</ele>
        <time>2013-11-17T10:03:13Z</time>
      </trkpt>
      <trkpt lat="47.56409" lon="-0.54441">
        <ele>16.48</ele>
        <time>2013-11-17T10:03:22Z</time>
      </trkpt>
      <trkpt lat="47.56418" lon="-0.54488">
        <ele>17.44</ele>
        <time>2013-11-17T10:03:31Z</time>
      </trkpt>
      <trkpt lat="47.5642" lon="-0.54537">
        <ele>17.44</ele>
        <time>2013-11-17T10:03:41Z</time>
      </trkpt>
      <trkpt lat="47.56421" lon="-0.54562">
        <ele>18.88</ele>
        <time>2013-11-17T10:03:47Z</time>
      </trkpt>
      <trkpt lat="47.56416" lon="-0.54567">
        <ele>18.88</ele>
        <time>2013-11-17T10:03:52Z</time>
      </trkpt>
      <trkpt lat="47.56416" lon="-0.54567">
        <ele>19.36</ele>
        <time>2013-11-17T10:03:55Z</time>
      </trkpt>
      <trkpt lat="47.5641" lon="-0.54567">
        <ele>19.36</ele>
        <time>2013-11-17T10:03:59Z</time>
      </trkpt>
      <trkpt lat="47.56387" lon="-0.5457">
        <ele>19.36</ele>
        <time>2013-11-17T10:04:06Z</time>
      </trkpt>
      <trkpt lat="47.56359" lon="-0.54572">
        <ele>19.36</ele>
        <time>2013-11-17T10:04:14Z</time>
      </trkpt>
      <trkpt lat="47.56322" lon="-0.54576">
        <ele>19.84</ele>
        <time>2013-11-17T10:04:24Z</time>
      </trkpt>
      <trkpt lat="47.56314" lon="-0.54576">
        <ele>19.84</ele>
        <time>2013-11-17T10:04:26Z</time>
      </trkpt>
      <trkpt lat="47.56305" lon="-0.54577">
        <ele>19.36</ele>
        <time>2013-11-17T10:04:28Z</time>
      </trkpt>
      <trkpt lat="47.56273" lon="-0.54578">
        <ele>18.88</ele>
        <time>2013-11-17T10:04:35Z</time>
      </trkpt>
      <trkpt lat="47.56229" lon="-0.54585">
        <ele>18.88</ele>
        <time>2013-11-17T10:04:45Z</time>
      </trkpt>
      <trkpt lat="47.56216" lon="-0.54588">
        <ele>18.4</ele>
        <time>2013-11-17T10:04:48Z</time>
      </trkpt>
      <trkpt lat="47.56204" lon="-0.54594">
        <ele>18.4</ele>
        <time>2013-11-17T10:04:51Z</time>
      </trkpt>
      <trkpt lat="47.56176" lon="-0.54616">
        <ele>18.4</ele>
        <time>2013-11-17T10:04:57Z</time>
      </trkpt>
      <trkpt lat="47.5615" lon="-0.54637">
        <ele>18.4</ele>
        <time>2013-11-17T10:05:03Z</time>
      </trkpt>
      <trkpt lat="47.56117" lon="-0.54666">
        <ele>18.88</ele>
        <time>2013-11-17T10:05:11Z</time>
      </trkpt>
      <trkpt lat="47.56114" lon="-0.54687">
        <ele>18.88</ele>
        <time>2013-11-17T10:05:15Z</time>
      </trkpt>
      <trkpt lat="47.56132" lon="-0.5474">
        <ele>20.32</ele>
        <time>2013-11-17T10:05:25Z</time>
      </trkpt>
      <trkpt lat="47.56147" lon="-0.54769">
        <ele>22.25</ele>
        <time>2013-11-17T10:05:32Z</time>
      </trkpt>
      <trkpt lat="47.56158" lon="-0.54787">
        <ele>23.21</ele>
        <time>2013-11-17T10:05:38Z</time>
      </trkpt>
      <trkpt lat="47.5616" lon="-0.5479">
        <ele>23.21</ele>
        <time>2013-11-17T10:05:39Z</time>
      </trkpt>
      <trkpt lat="47.56166" lon="-0.54812">
        <ele>24.17</ele>
        <time>2013-11-17T10:05:46Z</time>
      </trkpt>
      <trkpt lat="47.56172" lon="-0.54823">
        <ele>25.13</ele>
        <time>2013-11-17T10:05:50Z</time>
      </trkpt>
      <trkpt lat="47.5618" lon="-0.54836">
        <ele>27.53</ele>
        <time>2013-11-17T10:05:57Z</time>
      </trkpt>
      <trkpt lat="47.56185" lon="-0.54842">
        <ele>28.02</ele>
        <time>2013-11-17T10:06:01Z</time>
      </trkpt>
      <trkpt lat="47.56191" lon="-0.54849">
        <ele>28.98</ele>
        <time>2013-11-17T10:06:05Z</time>
      </trkpt>
      <trkpt lat="47.562" lon="-0.54866">
        <ele>30.9</ele>
        <time>2013-11-17T10:06:13Z</time>
      </trkpt>
      <trkpt lat="47.56207" lon="-0.5488">
        <ele>32.34</ele>
        <time>2013-11-17T10:06:21Z</time>
      </trkpt>
      <trkpt lat="47.56214" lon="-0.549">
        <ele>34.74</ele>
        <time>2013-11-17T10:06:29Z</time>
      </trkpt>
      <trkpt lat="47.56217" lon="-0.54915">
        <ele>35.71</ele>
        <time>2013-11-17T10:06:36Z</time>
      </trkpt>
      <trkpt lat="47.56219" lon="-0.54932">
        <ele>37.15</ele>
        <time>2013-11-17T10:06:42Z</time>
      </trkpt>
      <trkpt lat="47.5622" lon="-0.54943">
        <ele>38.59</ele>
        <time>2013-11-17T10:06:46Z</time>
      </trkpt>
      <trkpt lat="47.56219" lon="-0.54955">
        <ele>40.03</ele>
        <time>2013-11-17T10:06:52Z</time>
      </trkpt>
      <trkpt lat="47.56219" lon="-0.54957">
        <ele>39.55</ele>
        <time>2013-11-17T10:06:58Z</time>
      </trkpt>
      <trkpt lat="47.56219" lon="-0.54957">
        <ele>40.03</ele>
        <time>2013-11-17T10:07:15Z</time>
      </trkpt>
      <trkpt lat="47.56219" lon="-0.54965">
        <ele>40.99</ele>
        <time>2013-11-17T10:07:22Z</time>
      </trkpt>
      <trkpt lat="47.56219" lon="-0.5497">
        <ele>41.95</ele>
        <time>2013-11-17T10:07:28Z</time>
      </trkpt>
      <trkpt lat="47.56215" lon="-0.54976">
        <ele>42.44</ele>
        <time>2013-11-17T10:07:34Z</time>
      </trkpt>
      <trkpt lat="47.56212" lon="-0.54979">
        <ele>42.92</ele>
        <time>2013-11-17T10:07:42Z</time>
      </trkpt>
      <trkpt lat="47.56212" lon="-0.54979">
        <ele>42.44</ele>
        <time>2013-11-17T10:07:54Z</time>
      </trkpt>
      <trkpt lat="47.56212" lon="-0.54979">
        <ele>42.44</ele>
        <time>2013-11-17T10:08:14Z</time>
      </trkpt>
      <trkpt lat="47.56212" lon="-0.5498">
        <ele>42.92</ele>
        <time>2013-11-17T10:08:20Z</time>
      </trkpt>
      <trkpt lat="47.56212" lon="-0.5498">
        <ele>42.92</ele>
        <time>2013-11-17T10:08:40Z</time>
      </trkpt>
      <trkpt lat="47.56212" lon="-0.5498">
        <ele>42.92</ele>
        <time>2013-11-17T10:08:49Z</time>
      </trkpt>
      <trkpt lat="47.56212" lon="-0.5498">
        <ele>42.92</ele>
        <time>2013-11-17T10:09:03Z</time>
      </trkpt>
      <trkpt lat="47.56211" lon="-0.5498">
        <ele>43.4</ele>
        <time>2013-11-17T10:09:16Z</time>
      </trkpt>
      <trkpt lat="47.56209" lon="-0.54983">
        <ele>43.4</ele>
        <time>2013-11-17T10:09:22Z</time>
      </trkpt>
      <trkpt lat="47.56208" lon="-0.54984">
        <ele>42.92</ele>
        <time>2013-11-17T10:09:23Z</time>
      </trkpt>
      <trkpt lat="47.56195" lon="-0.54999">
        <ele>44.36</ele>
        <time>2013-11-17T10:09:32Z</time>
      </trkpt>
      <trkpt lat="47.56177" lon="-0.55016">
        <ele>45.8</ele>
        <time>2013-11-17T10:09:41Z</time>
      </trkpt>
      <trkpt lat="47.56165" lon="-0.55034">
        <ele>46.28</ele>
        <time>2013-11-17T10:09:49Z</time>
      </trkpt>
      <trkpt lat="47.56154" lon="-0.55054">
        <ele>46.76</ele>
        <time>2013-11-17T10:09:57Z</time>
      </trkpt>
      <trkpt lat="47.56141" lon="-0.5508">
        <ele>47.24</ele>
        <time>2013-11-17T10:10:05Z</time>
      </trkpt>
      <trkpt lat="47.56126" lon="-0.55111">
        <ele>48.2</ele>
        <time>2013-11-17T10:10:14Z</time>
      </trkpt>
      <trkpt lat="47.56111" lon="-0.55145">
        <ele>49.16</ele>
        <time>2013-11-17T10:10:24Z</time>
      </trkpt>
      <trkpt lat="47.56097" lon="-0.55173">
        <ele>49.65</ele>
        <time>2013-11-17T10:10:33Z</time>
      </trkpt>
      <trkpt lat="47.56087" lon="-0.55193">
        <ele>50.13</ele>
        <time>2013-11-17T10:10:40Z</time>
      </trkpt>
      <trkpt lat="47.56077" lon="-0.55216">
        <ele>50.13</ele>
        <time>2013-11-17T10:10:48Z</time>
      </trkpt>
      <trkpt lat="47.56071" lon="-0.55234">
        <ele>51.57</ele>
        <time>2013-11-17T10:10:55Z</time>
      </trkpt>
      <trkpt lat="47.56076" lon="-0.55247">
        <ele>51.57</ele>
        <time>2013-11-17T10:11:01Z</time>
      </trkpt>
      <trkpt lat="47.56087" lon="-0.55261">
        <ele>52.05</ele>
        <time>2013-11-17T10:11:10Z</time>
      </trkpt>
      <trkpt lat="47.56095" lon="-0.5528">
        <ele>52.05</ele>
        <time>2013-11-17T10:11:19Z</time>
      </trkpt>
      <trkpt lat="47.56104" lon="-0.55305">
        <ele>52.53</ele>
        <time>2013-11-17T10:11:28Z</time>
      </trkpt>
      <trkpt lat="47.56109" lon="-0.55318">
        <ele>52.53</ele>
        <time>2013-11-17T10:11:33Z</time>
      </trkpt>
      <trkpt lat="47.56112" lon="-0.55325">
        <ele>53.01</ele>
        <time>2013-11-17T10:11:39Z</time>
      </trkpt>
      <trkpt lat="47.56111" lon="-0.55324">
        <ele>52.53</ele>
        <time>2013-11-17T10:11:45Z</time>
      </trkpt>
      <trkpt lat="47.56106" lon="-0.55313">
        <ele>53.01</ele>
        <time>2013-11-17T10:11:51Z</time>
      </trkpt>
      <trkpt lat="47.56095" lon="-0.55284">
        <ele>52.53</ele>
        <time>2013-11-17T10:11:59Z</time>
      </trkpt>
      <trkpt lat="47.56091" lon="-0.55275">
        <ele>52.05</ele>
        <time>2013-11-17T10:12:02Z</time>
      </trkpt>
      <trkpt lat="47.56094" lon="-0.55273">
        <ele>51.57</ele>
        <time>2013-11-17T10:12:06Z</time>
      </trkpt>
      <trkpt lat="47.56095" lon="-0.55283">
        <ele>52.05</ele>
        <time>2013-11-17T10:12:10Z</time>
      </trkpt>
      <trkpt lat="47.56107" lon="-0.55312">
        <ele>52.53</ele>
        <time>2013-11-17T10:12:19Z</time>
      </trkpt>
      <trkpt lat="47.56121" lon="-0.55345">
        <ele>52.53</ele>
        <time>2013-11-17T10:12:26Z</time>
      </trkpt>
      <trkpt lat="47.56126" lon="-0.5536">
        <ele>53.49</ele>
        <time>2013-11-17T10:12:29Z</time>
      </trkpt>
      <trkpt lat="47.56147" lon="-0.55418">
        <ele>54.45</ele>
        <time>2013-11-17T10:12:39Z</time>
      </trkpt>
      <trkpt lat="47.56168" lon="-0.55471">
        <ele>53.97</ele>
        <time>2013-11-17T10:12:48Z</time>
      </trkpt>
      <trkpt lat="47.56197" lon="-0.5552">
        <ele>53.97</ele>
        <time>2013-11-17T10:12:57Z</time>
      </trkpt>
      <trkpt lat="47.56211" lon="-0.5554">
        <ele>53.97</ele>
        <time>2013-11-17T10:13:01Z</time>
      </trkpt>
      <trkpt lat="47.56236" lon="-0.55577">
        <ele>53.97</ele>
        <time>2013-11-17T10:13:08Z</time>
      </trkpt>
      <trkpt lat="47.56272" lon="-0.55613">
        <ele>53.01</ele>
        <time>2013-11-17T10:13:17Z</time>
      </trkpt>
      <trkpt lat="47.56287" lon="-0.55624">
        <ele>52.05</ele>
        <time>2013-11-17T10:13:20Z</time>
      </trkpt>
      <trkpt lat="47.56302" lon="-0.5564">
        <ele>50.61</ele>
        <time>2013-11-17T10:13:23Z</time>
      </trkpt>
      <trkpt lat="47.56328" lon="-0.55678">
        <ele>47.24</ele>
        <time>2013-11-17T10:13:29Z</time>
      </trkpt>
      <trkpt lat="47.56335" lon="-0.5569">
        <ele>46.28</ele>
        <time>2013-11-17T10:13:33Z</time>
      </trkpt>
      <trkpt lat="47.56336" lon="-0.5569">
        <ele>46.28</ele>
        <time>2013-11-17T10:13:40Z</time>
      </trkpt>
      <trkpt lat="47.56336" lon="-0.5569">
        <ele>45.8</ele>
        <time>2013-11-17T10:13:56Z</time>
      </trkpt>
      <trkpt lat="47.56336" lon="-0.5569">
        <ele>46.28</ele>
        <time>2013-11-17T10:14:07Z</time>
      </trkpt>
      <trkpt lat="47.56336" lon="-0.5569">
        <ele>45.8</ele>
        <time>2013-11-17T10:14:19Z</time>
      </trkpt>
      <trkpt lat="47.56336" lon="-0.5569">
        <ele>46.28</ele>
        <time>2013-11-17T10:14:32Z</time>
      </trkpt>
      <trkpt lat="47.56336" lon="-0.5569">
        <ele>46.28</ele>
        <time>2013-11-17T10:14:36Z</time>
      </trkpt>
      <trkpt lat="47.56346" lon="-0.55689">
        <ele>45.32</ele>
        <time>2013-11-17T10:14:42Z</time>
      </trkpt>
      <trkpt lat="47.56353" lon="-0.55684">
        <ele>45.32</ele>
        <time>2013-11-17T10:14:46Z</time>
      </trkpt>
      <trkpt lat="47.56369" lon="-0.55679">
        <ele>45.8</ele>
        <time>2013-11-17T10:14:53Z</time>
      </trkpt>
      <trkpt lat="47.56383" lon="-0.5567">
        <ele>46.28</ele>
        <time>2013-11-17T10:14:59Z</time>
      </trkpt>
      <trkpt lat="47.56385" lon="-0.55669">
        <ele>45.32</ele>
        <time>2013-11-17T10:15:00Z</time>
      </trkpt>
      <trkpt lat="47.56406" lon="-0.5566">
        <ele>45.8</ele>
        <time>2013-11-17T10:15:09Z</time>
      </trkpt>
      <trkpt lat="47.5644" lon="-0.55647">
        <ele>46.76</ele>
        <time>2013-11-17T10:15:19Z</time>
      </trkpt>
      <trkpt lat="47.56479" lon="-0.55624">
        <ele>48.68</ele>
        <time>2013-11-17T10:15:30Z</time>
      </trkpt>
      <trkpt lat="47.56512" lon="-0.55605">
        <ele>50.61</ele>
        <time>2013-11-17T10:15:39Z</time>
      </trkpt>
      <trkpt lat="47.56526" lon="-0.55596">
        <ele>50.61</ele>
        <time>2013-11-17T10:15:43Z</time>
      </trkpt>
      <trkpt lat="47.56549" lon="-0.55585">
        <ele>52.05</ele>
        <time>2013-11-17T10:15:48Z</time>
      </trkpt>
      <trkpt lat="47.56553" lon="-0.55582">
        <ele>52.53</ele>
        <time>2013-11-17T10:15:49Z</time>
      </trkpt>
      <trkpt lat="47.56577" lon="-0.55569">
        <ele>53.97</ele>
        <time>2013-11-17T10:15:56Z</time>
      </trkpt>
      <trkpt lat="47.56589" lon="-0.55577">
        <ele>54.45</ele>
        <time>2013-11-17T10:16:00Z</time>
      </trkpt>
      <trkpt lat="47.56599" lon="-0.55613">
        <ele>54.93</ele>
        <time>2013-11-17T10:16:07Z</time>
      </trkpt>
      <trkpt lat="47.56608" lon="-0.55664">
        <ele>54.93</ele>
        <time>2013-11-17T10:16:16Z</time>
      </trkpt>
      <trkpt lat="47.56613" lon="-0.55688">
        <ele>54.93</ele>
        <time>2013-11-17T10:16:20Z</time>
      </trkpt>
      <trkpt lat="47.56617" lon="-0.55705">
        <ele>54.93</ele>
        <time>2013-11-17T10:16:23Z</time>
      </trkpt>
      <trkpt lat="47.56621" lon="-0.55717">
        <ele>54.93</ele>
        <time>2013-11-17T10:16:25Z</time>
      </trkpt>
      <trkpt lat="47.56634" lon="-0.55753">
        <ele>54.45</ele>
        <time>2013-11-17T10:16:31Z</time>
      </trkpt>
      <trkpt lat="47.56653" lon="-0.55807">
        <ele>53.49</ele>
        <time>2013-11-17T10:16:39Z</time>
      </trkpt>
      <trkpt lat="47.56685" lon="-0.5586">
        <ele>50.13</ele>
        <time>2013-11-17T10:16:45Z</time>
      </trkpt>
      <trkpt lat="47.56699" lon="-0.55883">
        <ele>46.76</ele>
        <time>2013-11-17T10:16:47Z</time>
      </trkpt>
      <trkpt lat="47.56706" lon="-0.55896">
        <ele>46.76</ele>
        <time>2013-11-17T10:16:48Z</time>
      </trkpt>
      <trkpt lat="47.56723" lon="-0.55923">
        <ele>42.92</ele>
        <time>2013-11-17T10:16:50Z</time>
      </trkpt>
      <trkpt lat="47.56732" lon="-0.55936">
        <ele>41.47</ele>
        <time>2013-11-17T10:16:51Z</time>
      </trkpt>
      <trkpt lat="47.56774" lon="-0.55983">
        <ele>36.67</ele>
        <time>2013-11-17T10:16:55Z</time>
      </trkpt>
      <trkpt lat="47.5678" lon="-0.55999">
        <ele>36.67</ele>
        <time>2013-11-17T10:16:56Z</time>
      </trkpt>
      <trkpt lat="47.56788" lon="-0.56032">
        <ele>35.23</ele>
        <time>2013-11-17T10:16:58Z</time>
      </trkpt>
      <trkpt lat="47.56821" lon="-0.56121">
        <ele>36.67</ele>
        <time>2013-11-17T10:17:05Z</time>
      </trkpt>
      <trkpt lat="47.56846" lon="-0.56172">
        <ele>38.11</ele>
        <time>2013-11-17T10:17:11Z</time>
      </trkpt>
      <trkpt lat="47.56869" lon="-0.56217">
        <ele>40.51</ele>
        <time>2013-11-17T10:17:18Z</time>
      </trkpt>
      <trkpt lat="47.56879" lon="-0.56234">
        <ele>41.95</ele>
        <time>2013-11-17T10:17:21Z</time>
      </trkpt>
      <trkpt lat="47.56899" lon="-0.56264">
        <ele>43.88</ele>
        <time>2013-11-17T10:17:28Z</time>
      </trkpt>
      <trkpt lat="47.5692" lon="-0.5627">
        <ele>45.32</ele>
        <time>2013-11-17T10:17:34Z</time>
      </trkpt>
      <trkpt lat="47.56936" lon="-0.56276">
        <ele>47.24</ele>
        <time>2013-11-17T10:17:40Z</time>
      </trkpt>
      <trkpt lat="47.56941" lon="-0.56281">
        <ele>47.24</ele>
        <time>2013-11-17T10:17:43Z</time>
      </trkpt>
      <trkpt lat="47.56941" lon="-0.563">
        <ele>48.2</ele>
        <time>2013-11-17T10:17:49Z</time>
      </trkpt>
      <trkpt lat="47.5694" lon="-0.56303">
        <ele>47.72</ele>
        <time>2013-11-17T10:17:50Z</time>
      </trkpt>
      <trkpt lat="47.56938" lon="-0.56342">
        <ele>48.2</ele>
        <time>2013-11-17T10:17:59Z</time>
      </trkpt>
      <trkpt lat="47.56938" lon="-0.56375">
        <ele>49.16</ele>
        <time>2013-11-17T10:18:06Z</time>
      </trkpt>
      <trkpt lat="47.56937" lon="-0.56418">
        <ele>49.16</ele>
        <time>2013-11-17T10:18:15Z</time>
      </trkpt>
      <trkpt lat="47.56937" lon="-0.56428">
        <ele>49.65</ele>
        <time>2013-11-17T10:18:17Z</time>
      </trkpt>
      <trkpt lat="47.56929" lon="-0.56439">
        <ele>49.16</ele>
        <time>2013-11-17T10:18:21Z</time>
      </trkpt>
      <trkpt lat="47.56915" lon="-0.5645">
        <ele>49.65</ele>
        <time>2013-11-17T10:18:29Z</time>
      </trkpt>
      <trkpt lat="47.56909" lon="-0.56456">
        <ele>50.13</ele>
        <time>2013-11-17T10:18:33Z</time>
      </trkpt>
      <trkpt lat="47.56893" lon="-0.56474">
        <ele>51.09</ele>
        <time>2013-11-17T10:18:41Z</time>
      </trkpt>
      <trkpt lat="47.56878" lon="-0.5649">
        <ele>51.57</ele>
        <time>2013-11-17T10:18:49Z</time>
      </trkpt>
      <trkpt lat="47.56873" lon="-0.56496">
        <ele>51.57</ele>
        <time>2013-11-17T10:18:52Z</time>
      </trkpt>
      <trkpt lat="47.56857" lon="-0.56508">
        <ele>51.57</ele>
        <time>2013-11-17T10:18:59Z</time>
      </trkpt>
      <trkpt lat="47.56848" lon="-0.56515">
        <ele>51.57</ele>
        <time>2013-11-17T10:19:03Z</time>
      </trkpt>
      <trkpt lat="47.56829" lon="-0.56533">
        <ele>51.09</ele>
        <time>2013-11-17T10:19:12Z</time>
      </trkpt>
      <trkpt lat="47.5681" lon="-0.56559">
        <ele>51.09</ele>
        <time>2013-11-17T10:19:21Z</time>
      </trkpt>
      <trkpt lat="47.5679" lon="-0.56587">
        <ele>50.13</ele>
        <time>2013-11-17T10:19:28Z</time>
      </trkpt>
      <trkpt lat="47.5676" lon="-0.56635">
        <ele>48.2</ele>
        <time>2013-11-17T10:19:37Z</time>
      </trkpt>
      <trkpt lat="47.56737" lon="-0.56673">
        <ele>45.32</ele>
        <time>2013-11-17T10:19:42Z</time>
      </trkpt>
      <trkpt lat="47.56728" lon="-0.56684">
        <ele>43.88</ele>
        <time>2013-11-17T10:19:44Z</time>
      </trkpt>
      <trkpt lat="47.56707" lon="-0.567">
        <ele>40.99</ele>
        <time>2013-11-17T10:19:48Z</time>
      </trkpt>
      <trkpt lat="47.56695" lon="-0.5671">
        <ele>40.03</ele>
        <time>2013-11-17T10:19:50Z</time>
      </trkpt>
      <trkpt lat="47.56674" lon="-0.5673">
        <ele>38.11</ele>
        <time>2013-11-17T10:19:54Z</time>
      </trkpt>
      <trkpt lat="47.5664" lon="-0.56758">
        <ele>35.71</ele>
        <time>2013-11-17T10:20:01Z</time>
      </trkpt>
      <trkpt lat="47.56627" lon="-0.56766">
        <ele>34.26</ele>
        <time>2013-11-17T10:20:04Z</time>
      </trkpt>
      <trkpt lat="47.56607" lon="-0.56778">
        <ele>32.82</ele>
        <time>2013-11-17T10:20:10Z</time>
      </trkpt>
      <trkpt lat="47.566" lon="-0.56792">
        <ele>32.34</ele>
        <time>2013-11-17T10:20:15Z</time>
      </trkpt>
      <trkpt lat="47.56596" lon="-0.56804">
        <ele>31.86</ele>
        <time>2013-11-17T10:20:18Z</time>
      </trkpt>
      <trkpt lat="47.5657" lon="-0.56827">
        <ele>31.38</ele>
        <time>2013-11-17T10:20:25Z</time>
      </trkpt>
      <trkpt lat="47.56557" lon="-0.56837">
        <ele>30.9</ele>
        <time>2013-11-17T10:20:28Z</time>
      </trkpt>
      <trkpt lat="47.56549" lon="-0.56844">
        <ele>30.42</ele>
        <time>2013-11-17T10:20:30Z</time>
      </trkpt>
      <trkpt lat="47.56524" lon="-0.56863">
        <ele>29.94</ele>
        <time>2013-11-17T10:20:36Z</time>
      </trkpt>
      <trkpt lat="47.56508" lon="-0.56881">
        <ele>28.98</ele>
        <time>2013-11-17T10:20:40Z</time>
      </trkpt>
      <trkpt lat="47.56496" lon="-0.56904">
        <ele>28.98</ele>
        <time>2013-11-17T10:20:44Z</time>
      </trkpt>
      <trkpt lat="47.56473" lon="-0.56955">
        <ele>28.98</ele>
        <time>2013-11-17T10:20:52Z</time>
      </trkpt>
      <trkpt lat="47.56444" lon="-0.57007">
        <ele>29.94</ele>
        <time>2013-11-17T10:21:01Z</time>
      </trkpt>
      <trkpt lat="47.56413" lon="-0.57062">
        <ele>30.9</ele>
        <time>2013-11-17T10:21:11Z</time>
      </trkpt>
      <trkpt lat="47.56388" lon="-0.57101">
        <ele>31.86</ele>
        <time>2013-11-17T10:21:19Z</time>
      </trkpt>
      <trkpt lat="47.56362" lon="-0.57136">
        <ele>32.34</ele>
        <time>2013-11-17T10:21:27Z</time>
      </trkpt>
      <trkpt lat="47.56338" lon="-0.57169">
        <ele>33.3</ele>
        <time>2013-11-17T10:21:35Z</time>
      </trkpt>
      <trkpt lat="47.56307" lon="-0.57198">
        <ele>34.74</ele>
        <time>2013-11-17T10:21:45Z</time>
      </trkpt>
      <trkpt lat="47.56285" lon="-0.57217">
        <ele>35.23</ele>
        <time>2013-11-17T10:21:52Z</time>
      </trkpt>
      <trkpt lat="47.56264" lon="-0.57238">
        <ele>35.23</ele>
        <time>2013-11-17T10:22:00Z</time>
      </trkpt>
      <trkpt lat="47.56256" lon="-0.57248">
        <ele>35.23</ele>
        <time>2013-11-17T10:22:05Z</time>
      </trkpt>
      <trkpt lat="47.56244" lon="-0.57272">
        <ele>35.71</ele>
        <time>2013-11-17T10:22:12Z</time>
      </trkpt>
      <trkpt lat="47.56227" lon="-0.57296">
        <ele>36.19</ele>
        <time>2013-11-17T10:22:19Z</time>
      </trkpt>
      <trkpt lat="47.56199" lon="-0.57331">
        <ele>37.15</ele>
        <time>2013-11-17T10:22:28Z</time>
      </trkpt>
      <trkpt lat="47.56178" lon="-0.57352">
        <ele>37.63</ele>
        <time>2013-11-17T10:22:34Z</time>
      </trkpt>
      <trkpt lat="47.56149" lon="-0.57379">
        <ele>37.63</ele>
        <time>2013-11-17T10:22:42Z</time>
      </trkpt>
      <trkpt lat="47.56117" lon="-0.57415">
        <ele>38.11</ele>
        <time>2013-11-17T10:22:52Z</time>
      </trkpt>
      <trkpt lat="47.56114" lon="-0.57426">
        <ele>37.63</ele>
        <time>2013-11-17T10:22:54Z</time>
      </trkpt>
      <trkpt lat="47.56124" lon="-0.57472">
        <ele>38.11</ele>
        <time>2013-11-17T10:23:01Z</time>
      </trkpt>
      <trkpt lat="47.56132" lon="-0.57512">
        <ele>38.11</ele>
        <time>2013-11-17T10:23:07Z</time>
      </trkpt>
      <trkpt lat="47.56136" lon="-0.57524">
        <ele>38.59</ele>
        <time>2013-11-17T10:23:09Z</time>
      </trkpt>
      <trkpt lat="47.56143" lon="-0.57556">
        <ele>38.59</ele>
        <time>2013-11-17T10:23:14Z</time>
      </trkpt>
      <trkpt lat="47.56139" lon="-0.57577">
        <ele>38.59</ele>
        <time>2013-11-17T10:23:18Z</time>
      </trkpt>
      <trkpt lat="47.56125" lon="-0.57583">
        <ele>39.07</ele>
        <time>2013-11-17T10:23:21Z</time>
      </trkpt>
      <trkpt lat="47.56073" lon="-0.57611">
        <ele>39.07</ele>
        <time>2013-11-17T10:23:32Z</time>
      </trkpt>
      <trkpt lat="47.56059" lon="-0.5762">
        <ele>39.07</ele>
        <time>2013-11-17T10:23:35Z</time>
      </trkpt>
      <trkpt lat="47.5604" lon="-0.5763">
        <ele>39.55</ele>
        <time>2013-11-17T10:23:39Z</time>
      </trkpt>
      <trkpt lat="47.55995" lon="-0.57657">
        <ele>38.59</ele>
        <time>2013-11-17T10:23:49Z</time>
      </trkpt>
      <trkpt lat="47.55964" lon="-0.5767">
        <ele>38.59</ele>
        <time>2013-11-17T10:23:55Z</time>
      </trkpt>
      <trkpt lat="47.55918" lon="-0.57685">
        <ele>39.07</ele>
        <time>2013-11-17T10:24:04Z</time>
      </trkpt>
      <trkpt lat="47.55907" lon="-0.5769">
        <ele>39.07</ele>
        <time>2013-11-17T10:24:06Z</time>
      </trkpt>
      <trkpt lat="47.55887" lon="-0.57696">
        <ele>39.07</ele>
        <time>2013-11-17T10:24:10Z</time>
      </trkpt>
      <trkpt lat="47.55838" lon="-0.57713">
        <ele>38.11</ele>
        <time>2013-11-17T10:24:19Z</time>
      </trkpt>
      <trkpt lat="47.55827" lon="-0.57716">
        <ele>38.11</ele>
        <time>2013-11-17T10:24:21Z</time>
      </trkpt>
      <trkpt lat="47.55816" lon="-0.57719">
        <ele>38.11</ele>
        <time>2013-11-17T10:24:23Z</time>
      </trkpt>
      <trkpt lat="47.55763" lon="-0.57715">
        <ele>37.63</ele>
        <time>2013-11-17T10:24:32Z</time>
      </trkpt>
      <trkpt lat="47.55716" lon="-0.57701">
        <ele>36.67</ele>
        <time>2013-11-17T10:24:40Z</time>
      </trkpt>
      <trkpt lat="47.55681" lon="-0.57692">
        <ele>36.19</ele>
        <time>2013-11-17T10:24:46Z</time>
      </trkpt>
      <trkpt lat="47.55662" lon="-0.57692">
        <ele>36.19</ele>
        <time>2013-11-17T10:24:49Z</time>
      </trkpt>
      <trkpt lat="47.5561" lon="-0.57703">
        <ele>34.74</ele>
        <time>2013-11-17T10:24:57Z</time>
      </trkpt>
      <trkpt lat="47.55568" lon="-0.57725">
        <ele>35.71</ele>
        <time>2013-11-17T10:25:04Z</time>
      </trkpt>
      <trkpt lat="47.55557" lon="-0.57732">
        <ele>34.74</ele>
        <time>2013-11-17T10:25:06Z</time>
      </trkpt>
      <trkpt lat="47.55547" lon="-0.57741">
        <ele>35.23</ele>
        <time>2013-11-17T10:25:08Z</time>
      </trkpt>
      <trkpt lat="47.55525" lon="-0.57744">
        <ele>34.26</ele>
        <time>2013-11-17T10:25:12Z</time>
      </trkpt>
      <trkpt lat="47.55509" lon="-0.57731">
        <ele>34.26</ele>
        <time>2013-11-17T10:25:15Z</time>
      </trkpt>
      <trkpt lat="47.55462" lon="-0.57696">
        <ele>33.78</ele>
        <time>2013-11-17T10:25:24Z</time>
      </trkpt>
      <trkpt lat="47.55428" lon="-0.57671">
        <ele>33.78</ele>
        <time>2013-11-17T10:25:31Z</time>
      </trkpt>
      <trkpt lat="47.55379" lon="-0.57638">
        <ele>32.82</ele>
        <time>2013-11-17T10:25:40Z</time>
      </trkpt>
      <trkpt lat="47.55334" lon="-0.57607">
        <ele>32.82</ele>
        <time>2013-11-17T10:25:48Z</time>
      </trkpt>
      <trkpt lat="47.55292" lon="-0.57578">
        <ele>32.34</ele>
        <time>2013-11-17T10:25:56Z</time>
      </trkpt>
      <trkpt lat="47.55249" lon="-0.57556">
        <ele>32.34</ele>
        <time>2013-11-17T10:26:04Z</time>
      </trkpt>
      <trkpt lat="47.55215" lon="-0.57549">
        <ele>31.86</ele>
        <time>2013-11-17T10:26:10Z</time>
      </trkpt>
      <trkpt lat="47.55199" lon="-0.57542">
        <ele>31.86</ele>
        <time>2013-11-17T10:26:13Z</time>
      </trkpt>
      <trkpt lat="47.55155" lon="-0.57504">
        <ele>31.86</ele>
        <time>2013-11-17T10:26:21Z</time>
      </trkpt>
      <trkpt lat="47.5514" lon="-0.57487">
        <ele>31.38</ele>
        <time>2013-11-17T10:26:24Z</time>
      </trkpt>
      <trkpt lat="47.55129" lon="-0.57464">
        <ele>30.9</ele>
        <time>2013-11-17T10:26:27Z</time>
      </trkpt>
      <trkpt lat="47.55096" lon="-0.57407">
        <ele>30.42</ele>
        <time>2013-11-17T10:26:35Z</time>
      </trkpt>
      <trkpt lat="47.55071" lon="-0.57359">
        <ele>31.38</ele>
        <time>2013-11-17T10:26:42Z</time>
      </trkpt>
      <trkpt lat="47.55065" lon="-0.57345">
        <ele>31.86</ele>
        <time>2013-11-17T10:26:44Z</time>
      </trkpt>
      <trkpt lat="47.55049" lon="-0.57316">
        <ele>31.86</ele>
        <time>2013-11-17T10:26:49Z</time>
      </trkpt>
      <trkpt lat="47.55025" lon="-0.57265">
        <ele>32.82</ele>
        <time>2013-11-17T10:26:58Z</time>
      </trkpt>
      <trkpt lat="47.55008" lon="-0.57232">
        <ele>33.78</ele>
        <time>2013-11-17T10:27:04Z</time>
      </trkpt>
      <trkpt lat="47.55005" lon="-0.57227">
        <ele>33.78</ele>
        <time>2013-11-17T10:27:05Z</time>
      </trkpt>
      <trkpt lat="47.54977" lon="-0.57177">
        <ele>33.78</ele>
        <time>2013-11-17T10:27:14Z</time>
      </trkpt>
      <trkpt lat="47.54969" lon="-0.57167">
        <ele>33.78</ele>
        <time>2013-11-17T10:27:16Z</time>
      </trkpt>
      <trkpt lat="47.54958" lon="-0.57158">
        <ele>34.26</ele>
        <time>2013-11-17T10:27:19Z</time>
      </trkpt>
      <trkpt lat="47.54925" lon="-0.57145">
        <ele>34.74</ele>
        <time>2013-11-17T10:27:26Z</time>
      </trkpt>
      <trkpt lat="47.54916" lon="-0.57143">
        <ele>34.74</ele>
        <time>2013-11-17T10:27:28Z</time>
      </trkpt>
      <trkpt lat="47.54879" lon="-0.57131">
        <ele>33.78</ele>
        <time>2013-11-17T10:27:36Z</time>
      </trkpt>
      <trkpt lat="47.54874" lon="-0.57129">
        <ele>34.74</ele>
        <time>2013-11-17T10:27:37Z</time>
      </trkpt>
      <trkpt lat="47.54857" lon="-0.57122">
        <ele>34.26</ele>
        <time>2013-11-17T10:27:41Z</time>
      </trkpt>
      <trkpt lat="47.54842" lon="-0.57118">
        <ele>33.78</ele>
        <time>2013-11-17T10:27:44Z</time>
      </trkpt>
      <trkpt lat="47.54811" lon="-0.57113">
        <ele>34.74</ele>
        <time>2013-11-17T10:27:50Z</time>
      </trkpt>
      <trkpt lat="47.54774" lon="-0.57103">
        <ele>33.78</ele>
        <time>2013-11-17T10:27:57Z</time>
      </trkpt>
      <trkpt lat="47.54769" lon="-0.57103">
        <ele>33.78</ele>
        <time>2013-11-17T10:27:58Z</time>
      </trkpt>
      <trkpt lat="47.54754" lon="-0.57109">
        <ele>33.78</ele>
        <time>2013-11-17T10:28:01Z</time>
      </trkpt>
      <trkpt lat="47.54734" lon="-0.5712">
        <ele>33.78</ele>
        <time>2013-11-17T10:28:05Z</time>
      </trkpt>
      <trkpt lat="47.54723" lon="-0.57129">
        <ele>33.78</ele>
        <time>2013-11-17T10:28:08Z</time>
      </trkpt>
      <trkpt lat="47.54709" lon="-0.57135">
        <ele>33.78</ele>
        <time>2013-11-17T10:28:11Z</time>
      </trkpt>
      <trkpt lat="47.54696" lon="-0.57141">
        <ele>33.78</ele>
        <time>2013-11-17T10:28:14Z</time>
      </trkpt>
      <trkpt lat="47.54663" lon="-0.57152">
        <ele>33.3</ele>
        <time>2013-11-17T10:28:21Z</time>
      </trkpt>
      <trkpt lat="47.54618" lon="-0.57165">
        <ele>33.78</ele>
        <time>2013-11-17T10:28:31Z</time>
      </trkpt>
      <trkpt lat="47.54599" lon="-0.57168">
        <ele>32.82</ele>
        <time>2013-11-17T10:28:35Z</time>
      </trkpt>
      <trkpt lat="47.54564" lon="-0.57171">
        <ele>32.82</ele>
        <time>2013-11-17T10:28:44Z</time>
      </trkpt>
      <trkpt lat="47.5454" lon="-0.57172">
        <ele>32.82</ele>
        <time>2013-11-17T10:28:51Z</time>
      </trkpt>
      <trkpt lat="47.54514" lon="-0.57171">
        <ele>32.82</ele>
        <time>2013-11-17T10:28:58Z</time>
      </trkpt>
      <trkpt lat="47.54505" lon="-0.5717">
        <ele>31.86</ele>
        <time>2013-11-17T10:29:01Z</time>
      </trkpt>
      <trkpt lat="47.54502" lon="-0.57186">
        <ele>32.82</ele>
        <time>2013-11-17T10:29:06Z</time>
      </trkpt>
      <trkpt lat="47.54506" lon="-0.57223">
        <ele>32.34</ele>
        <time>2013-11-17T10:29:13Z</time>
      </trkpt>
      <trkpt lat="47.54511" lon="-0.57255">
        <ele>32.34</ele>
        <time>2013-11-17T10:29:18Z</time>
      </trkpt>
      <trkpt lat="47.54513" lon="-0.57274">
        <ele>31.86</ele>
        <time>2013-11-17T10:29:21Z</time>
      </trkpt>
      <trkpt lat="47.54522" lon="-0.57318">
        <ele>31.38</ele>
        <time>2013-11-17T10:29:28Z</time>
      </trkpt>
      <trkpt lat="47.54539" lon="-0.57374">
        <ele>31.86</ele>
        <time>2013-11-17T10:29:38Z</time>
      </trkpt>
      <trkpt lat="47.54542" lon="-0.57387">
        <ele>31.38</ele>
        <time>2013-11-17T10:29:40Z</time>
      </trkpt>
      <trkpt lat="47.54555" lon="-0.57439">
        <ele>30.9</ele>
        <time>2013-11-17T10:29:49Z</time>
      </trkpt>
      <trkpt lat="47.54572" lon="-0.57487">
        <ele>30.9</ele>
        <time>2013-11-17T10:29:58Z</time>
      </trkpt>
      <trkpt lat="47.54583" lon="-0.57516">
        <ele>31.38</ele>
        <time>2013-11-17T10:30:05Z</time>
      </trkpt>
      <trkpt lat="47.54584" lon="-0.57549">
        <ele>30.9</ele>
        <time>2013-11-17T10:30:12Z</time>
      </trkpt>
      <trkpt lat="47.54576" lon="-0.57582">
        <ele>30.42</ele>
        <time>2013-11-17T10:30:21Z</time>
      </trkpt>
      <trkpt lat="47.54579" lon="-0.57597">
        <ele>30.9</ele>
        <time>2013-11-17T10:30:25Z</time>
      </trkpt>
      <trkpt lat="47.54582" lon="-0.57599">
        <ele>30.42</ele>
        <time>2013-11-17T10:30:30Z</time>
      </trkpt>
      <trkpt lat="47.54582" lon="-0.57599">
        <ele>30.9</ele>
        <time>2013-11-17T10:30:40Z</time>
      </trkpt>
      <trkpt lat="47.54582" lon="-0.57599">
        <ele>30.42</ele>
        <time>2013-11-17T10:30:52Z</time>
      </trkpt>
      <trkpt lat="47.54582" lon="-0.57599">
        <ele>30.9</ele>
        <time>2013-11-17T10:31:03Z</time>
      </trkpt>
      <trkpt lat="47.54582" lon="-0.57599">
        <ele>30.9</ele>
        <time>2013-11-17T10:31:06Z</time>
      </trkpt>
      <trkpt lat="47.54581" lon="-0.57597">
        <ele>31.38</ele>
        <time>2013-11-17T10:31:08Z</time>
      </trkpt>
      <trkpt lat="47.54577" lon="-0.57587">
        <ele>30.9</ele>
        <time>2013-11-17T10:31:18Z</time>
      </trkpt>
      <trkpt lat="47.54577" lon="-0.57587">
        <ele>30.9</ele>
        <time>2013-11-17T10:31:29Z</time>
      </trkpt>
      <trkpt lat="47.54577" lon="-0.57587">
        <ele>30.9</ele>
        <time>2013-11-17T10:31:45Z</time>
      </trkpt>
      <trkpt lat="47.54577" lon="-0.57587">
        <ele>31.38</ele>
        <time>2013-11-17T10:31:59Z</time>
      </trkpt>
      <trkpt lat="47.54577" lon="-0.57587">
        <ele>31.38</ele>
        <time>2013-11-17T10:32:00Z</time>
      </trkpt>
      <trkpt lat="47.54577" lon="-0.5759">
        <ele>30.9</ele>
        <time>2013-11-17T10:32:02Z</time>
      </trkpt>
      <trkpt lat="47.54579" lon="-0.57597">
        <ele>30.9</ele>
        <time>2013-11-17T10:32:06Z</time>
      </trkpt>
      <trkpt lat="47.54583" lon="-0.57603">
        <ele>30.9</ele>
        <time>2013-11-17T10:32:09Z</time>
      </trkpt>
      <trkpt lat="47.54589" lon="-0.57612">
        <ele>30.9</ele>
        <time>2013-11-17T10:32:13Z</time>
      </trkpt>
      <trkpt lat="47.54605" lon="-0.57638">
        <ele>31.38</ele>
        <time>2013-11-17T10:32:21Z</time>
      </trkpt>
      <trkpt lat="47.54621" lon="-0.57666">
        <ele>30.42</ele>
        <time>2013-11-17T10:32:28Z</time>
      </trkpt>
      <trkpt lat="47.54639" lon="-0.57696">
        <ele>30.9</ele>
        <time>2013-11-17T10:32:34Z</time>
      </trkpt>
      <trkpt lat="47.54654" lon="-0.57717">
        <ele>31.38</ele>
        <time>2013-11-17T10:32:38Z</time>
      </trkpt>
      <trkpt lat="47.54686" lon="-0.5776">
        <ele>30.42</ele>
        <time>2013-11-17T10:32:46Z</time>
      </trkpt>
      <trkpt lat="47.54699" lon="-0.57774">
        <ele>30.42</ele>
        <time>2013-11-17T10:32:49Z</time>
      </trkpt>
      <trkpt lat="47.54728" lon="-0.57802">
        <ele>29.94</ele>
        <time>2013-11-17T10:32:56Z</time>
      </trkpt>
      <trkpt lat="47.54733" lon="-0.57823">
        <ele>29.46</ele>
        <time>2013-11-17T10:33:00Z</time>
      </trkpt>
      <trkpt lat="47.54727" lon="-0.57845">
        <ele>28.98</ele>
        <time>2013-11-17T10:33:04Z</time>
      </trkpt>
      <trkpt lat="47.54722" lon="-0.57868">
        <ele>28.5</ele>
        <time>2013-11-17T10:33:09Z</time>
      </trkpt>
      <trkpt lat="47.54721" lon="-0.57894">
        <ele>28.5</ele>
        <time>2013-11-17T10:33:15Z</time>
      </trkpt>
      <trkpt lat="47.5472" lon="-0.57905">
        <ele>28.5</ele>
        <time>2013-11-17T10:33:17Z</time>
      </trkpt>
      <trkpt lat="47.54716" lon="-0.57976">
        <ele>28.5</ele>
        <time>2013-11-17T10:33:29Z</time>
      </trkpt>
      <trkpt lat="47.54715" lon="-0.57989">
        <ele>27.53</ele>
        <time>2013-11-17T10:33:31Z</time>
      </trkpt>
      <trkpt lat="47.54713" lon="-0.58002">
        <ele>28.02</ele>
        <time>2013-11-17T10:33:33Z</time>
      </trkpt>
      <trkpt lat="47.54707" lon="-0.58063">
        <ele>27.05</ele>
        <time>2013-11-17T10:33:42Z</time>
      </trkpt>
      <trkpt lat="47.54705" lon="-0.58083">
        <ele>27.05</ele>
        <time>2013-11-17T10:33:45Z</time>
      </trkpt>
      <trkpt lat="47.54693" lon="-0.58117">
        <ele>27.05</ele>
        <time>2013-11-17T10:33:51Z</time>
      </trkpt>
      <trkpt lat="47.54684" lon="-0.58142">
        <ele>27.05</ele>
        <time>2013-11-17T10:33:55Z</time>
      </trkpt>
      <trkpt lat="47.54664" lon="-0.58201">
        <ele>26.09</ele>
        <time>2013-11-17T10:34:04Z</time>
      </trkpt>
      <trkpt lat="47.54653" lon="-0.58226">
        <ele>26.57</ele>
        <time>2013-11-17T10:34:08Z</time>
      </trkpt>
      <trkpt lat="47.54635" lon="-0.58261">
        <ele>26.09</ele>
        <time>2013-11-17T10:34:14Z</time>
      </trkpt>
      <trkpt lat="47.54614" lon="-0.583">
        <ele>26.57</ele>
        <time>2013-11-17T10:34:21Z</time>
      </trkpt>
      <trkpt lat="47.54605" lon="-0.58326">
        <ele>26.57</ele>
        <time>2013-11-17T10:34:26Z</time>
      </trkpt>
      <trkpt lat="47.54616" lon="-0.58337">
        <ele>26.57</ele>
        <time>2013-11-17T10:34:31Z</time>
      </trkpt>
      <trkpt lat="47.54633" lon="-0.58345">
        <ele>26.09</ele>
        <time>2013-11-17T10:34:37Z</time>
      </trkpt>
      <trkpt lat="47.54648" lon="-0.58346">
        <ele>27.05</ele>
        <time>2013-11-17T10:34:45Z</time>
      </trkpt>
      <trkpt lat="47.54661" lon="-0.58346">
        <ele>27.05</ele>
        <time>2013-11-17T10:34:50Z</time>
      </trkpt>
      <trkpt lat="47.54682" lon="-0.58345">
        <ele>27.53</ele>
        <time>2013-11-17T10:34:56Z</time>
      </trkpt>
      <trkpt lat="47.54725" lon="-0.58339">
        <ele>28.02</ele>
        <time>2013-11-17T10:35:07Z</time>
      </trkpt>
      <trkpt lat="47.5473" lon="-0.58338">
        <ele>28.5</ele>
        <time>2013-11-17T10:35:08Z</time>
      </trkpt>
      <trkpt lat="47.54758" lon="-0.58336">
        <ele>28.98</ele>
        <time>2013-11-17T10:35:16Z</time>
      </trkpt>
      <trkpt lat="47.54783" lon="-0.58332">
        <ele>28.98</ele>
        <time>2013-11-17T10:35:24Z</time>
      </trkpt>
      <trkpt lat="47.54806" lon="-0.58328">
        <ele>29.94</ele>
        <time>2013-11-17T10:35:30Z</time>
      </trkpt>
      <trkpt lat="47.5482" lon="-0.58327">
        <ele>29.94</ele>
        <time>2013-11-17T10:35:33Z</time>
      </trkpt>
      <trkpt lat="47.54859" lon="-0.5832">
        <ele>30.42</ele>
        <time>2013-11-17T10:35:42Z</time>
      </trkpt>
      <trkpt lat="47.54899" lon="-0.58314">
        <ele>30.42</ele>
        <time>2013-11-17T10:35:51Z</time>
      </trkpt>
      <trkpt lat="47.54913" lon="-0.58311">
        <ele>31.38</ele>
        <time>2013-11-17T10:35:54Z</time>
      </trkpt>
      <trkpt lat="47.54943" lon="-0.58309">
        <ele>31.38</ele>
        <time>2013-11-17T10:36:01Z</time>
      </trkpt>
      <trkpt lat="47.54991" lon="-0.58307">
        <ele>31.38</ele>
        <time>2013-11-17T10:36:11Z</time>
      </trkpt>
      <trkpt lat="47.55036" lon="-0.58305">
        <ele>31.86</ele>
        <time>2013-11-17T10:36:20Z</time>
      </trkpt>
      <trkpt lat="47.55066" lon="-0.58299">
        <ele>31.86</ele>
        <time>2013-11-17T10:36:26Z</time>
      </trkpt>
      <trkpt lat="47.55083" lon="-0.58307">
        <ele>31.38</ele>
        <time>2013-11-17T10:36:31Z</time>
      </trkpt>
      <trkpt lat="47.55083" lon="-0.58318">
        <ele>31.38</ele>
        <time>2013-11-17T10:36:33Z</time>
      </trkpt>
      <trkpt lat="47.55085" lon="-0.58346">
        <ele>31.38</ele>
        <time>2013-11-17T10:36:38Z</time>
      </trkpt>
      <trkpt lat="47.55086" lon="-0.5841">
        <ele>32.34</ele>
        <time>2013-11-17T10:36:47Z</time>
      </trkpt>
      <trkpt lat="47.55086" lon="-0.58441">
        <ele>32.34</ele>
        <time>2013-11-17T10:36:51Z</time>
      </trkpt>
      <trkpt lat="47.55086" lon="-0.58496">
        <ele>32.34</ele>
        <time>2013-11-17T10:36:58Z</time>
      </trkpt>
      <trkpt lat="47.55089" lon="-0.58584">
        <ele>32.82</ele>
        <time>2013-11-17T10:37:09Z</time>
      </trkpt>
      <trkpt lat="47.55089" lon="-0.58669">
        <ele>33.3</ele>
        <time>2013-11-17T10:37:19Z</time>
      </trkpt>
      <trkpt lat="47.5509" lon="-0.58728">
        <ele>32.82</ele>
        <time>2013-11-17T10:37:26Z</time>
      </trkpt>
      <trkpt lat="47.55091" lon="-0.58799">
        <ele>32.82</ele>
        <time>2013-11-17T10:37:34Z</time>
      </trkpt>
      <trkpt lat="47.55091" lon="-0.58851">
        <ele>33.3</ele>
        <time>2013-11-17T10:37:40Z</time>
      </trkpt>
      <trkpt lat="47.55081" lon="-0.58937">
        <ele>32.82</ele>
        <time>2013-11-17T10:37:50Z</time>
      </trkpt>
      <trkpt lat="47.55072" lon="-0.59005">
        <ele>32.34</ele>
        <time>2013-11-17T10:37:58Z</time>
      </trkpt>
      <trkpt lat="47.5507" lon="-0.5902">
        <ele>31.86</ele>
        <time>2013-11-17T10:38:00Z</time>
      </trkpt>
      <trkpt lat="47.55076" lon="-0.59051">
        <ele>32.34</ele>
        <time>2013-11-17T10:38:04Z</time>
      </trkpt>
      <trkpt lat="47.55088" lon="-0.59091">
        <ele>31.38</ele>
        <time>2013-11-17T10:38:10Z</time>
      </trkpt>
      <trkpt lat="47.55105" lon="-0.59139">
        <ele>32.34</ele>
        <time>2013-11-17T10:38:19Z</time>
      </trkpt>
      <trkpt lat="47.55106" lon="-0.59145">
        <ele>31.86</ele>
        <time>2013-11-17T10:38:20Z</time>
      </trkpt>
      <trkpt lat="47.55122" lon="-0.59195">
        <ele>31.38</ele>
        <time>2013-11-17T10:38:28Z</time>
      </trkpt>
      <trkpt lat="47.55137" lon="-0.59257">
        <ele>31.38</ele>
        <time>2013-11-17T10:38:37Z</time>
      </trkpt>
      <trkpt lat="47.5514" lon="-0.59268">
        <ele>30.42</ele>
        <time>2013-11-17T10:38:39Z</time>
      </trkpt>
      <trkpt lat="47.55127" lon="-0.59282">
        <ele>30.42</ele>
        <time>2013-11-17T10:38:44Z</time>
      </trkpt>
      <trkpt lat="47.55123" lon="-0.59285">
        <ele>30.42</ele>
        <time>2013-11-17T10:38:45Z</time>
      </trkpt>
      <trkpt lat="47.55113" lon="-0.59289">
        <ele>30.42</ele>
        <time>2013-11-17T10:38:47Z</time>
      </trkpt>
      <trkpt lat="47.55103" lon="-0.59293">
        <ele>29.94</ele>
        <time>2013-11-17T10:38:49Z</time>
      </trkpt>
      <trkpt lat="47.55088" lon="-0.59303">
        <ele>29.94</ele>
        <time>2013-11-17T10:38:52Z</time>
      </trkpt>
      <trkpt lat="47.55082" lon="-0.59306">
        <ele>29.94</ele>
        <time>2013-11-17T10:38:53Z</time>
      </trkpt>
      <trkpt lat="47.55077" lon="-0.59309">
        <ele>29.94</ele>
        <time>2013-11-17T10:38:54Z</time>
      </trkpt>
      <trkpt lat="47.55072" lon="-0.59312">
        <ele>29.46</ele>
        <time>2013-11-17T10:38:55Z</time>
      </trkpt>
      <trkpt lat="47.55066" lon="-0.59315">
        <ele>29.46</ele>
        <time>2013-11-17T10:38:56Z</time>
      </trkpt>
      <trkpt lat="47.55061" lon="-0.59318">
        <ele>29.94</ele>
        <time>2013-11-17T10:38:57Z</time>
      </trkpt>
      <trkpt lat="47.55044" lon="-0.59326">
        <ele>29.46</ele>
        <time>2013-11-17T10:39:00Z</time>
      </trkpt>
      <trkpt lat="47.55038" lon="-0.59329">
        <ele>29.46</ele>
        <time>2013-11-17T10:39:01Z</time>
      </trkpt>
      <trkpt lat="47.55016" lon="-0.59341">
        <ele>28.98</ele>
        <time>2013-11-17T10:39:05Z</time>
      </trkpt>
      <trkpt lat="47.5501" lon="-0.59344">
        <ele>28.5</ele>
        <time>2013-11-17T10:39:06Z</time>
      </trkpt>
      <trkpt lat="47.54976" lon="-0.59361">
        <ele>28.5</ele>
        <time>2013-11-17T10:39:12Z</time>
      </trkpt>
      <trkpt lat="47.5497" lon="-0.59364">
        <ele>28.02</ele>
        <time>2013-11-17T10:39:13Z</time>
      </trkpt>
      <trkpt lat="47.54926" lon="-0.59392">
        <ele>27.53</ele>
        <time>2013-11-17T10:39:21Z</time>
      </trkpt>
      <trkpt lat="47.5491" lon="-0.59403">
        <ele>28.02</ele>
        <time>2013-11-17T10:39:24Z</time>
      </trkpt>
      <trkpt lat="47.54895" lon="-0.59416">
        <ele>27.05</ele>
        <time>2013-11-17T10:39:27Z</time>
      </trkpt>
      <trkpt lat="47.54891" lon="-0.59422">
        <ele>27.05</ele>
        <time>2013-11-17T10:39:28Z</time>
      </trkpt>
      <trkpt lat="47.54887" lon="-0.59428">
        <ele>27.05</ele>
        <time>2013-11-17T10:39:29Z</time>
      </trkpt>
      <trkpt lat="47.54882" lon="-0.59432">
        <ele>27.05</ele>
        <time>2013-11-17T10:39:30Z</time>
      </trkpt>
      <trkpt lat="47.54877" lon="-0.59435">
        <ele>26.09</ele>
        <time>2013-11-17T10:39:31Z</time>
      </trkpt>
      <trkpt lat="47.54873" lon="-0.59438">
        <ele>26.57</ele>
        <time>2013-11-17T10:39:32Z</time>
      </trkpt>
      <trkpt lat="47.54869" lon="-0.59441">
        <ele>26.57</ele>
        <time>2013-11-17T10:39:33Z</time>
      </trkpt>
      <trkpt lat="47.54865" lon="-0.59443">
        <ele>27.05</ele>
        <time>2013-11-17T10:39:34Z</time>
      </trkpt>
      <trkpt lat="47.54842" lon="-0.59456">
        <ele>26.09</ele>
        <time>2013-11-17T10:39:40Z</time>
      </trkpt>
      <trkpt lat="47.54812" lon="-0.59475">
        <ele>26.57</ele>
        <time>2013-11-17T10:39:47Z</time>
      </trkpt>
      <trkpt lat="47.54767" lon="-0.59502">
        <ele>26.57</ele>
        <time>2013-11-17T10:39:56Z</time>
      </trkpt>
      <trkpt lat="47.54754" lon="-0.5951">
        <ele>26.57</ele>
        <time>2013-11-17T10:39:59Z</time>
      </trkpt>
      <trkpt lat="47.54746" lon="-0.59515">
        <ele>26.57</ele>
        <time>2013-11-17T10:40:01Z</time>
      </trkpt>
      <trkpt lat="47.54741" lon="-0.59517">
        <ele>26.09</ele>
        <time>2013-11-17T10:40:02Z</time>
      </trkpt>
      <trkpt lat="47.54709" lon="-0.59537">
        <ele>26.09</ele>
        <time>2013-11-17T10:40:09Z</time>
      </trkpt>
      <trkpt lat="47.54705" lon="-0.5954">
        <ele>26.09</ele>
        <time>2013-11-17T10:40:10Z</time>
      </trkpt>
      <trkpt lat="47.54691" lon="-0.59548">
        <ele>26.09</ele>
        <time>2013-11-17T10:40:13Z</time>
      </trkpt>
      <trkpt lat="47.54687" lon="-0.59552">
        <ele>25.61</ele>
        <time>2013-11-17T10:40:14Z</time>
      </trkpt>
      <trkpt lat="47.54683" lon="-0.59556">
        <ele>26.09</ele>
        <time>2013-11-17T10:40:15Z</time>
      </trkpt>
      <trkpt lat="47.54674" lon="-0.59563">
        <ele>26.09</ele>
        <time>2013-11-17T10:40:17Z</time>
      </trkpt>
      <trkpt lat="47.5467" lon="-0.59567">
        <ele>25.61</ele>
        <time>2013-11-17T10:40:18Z</time>
      </trkpt>
      <trkpt lat="47.54667" lon="-0.5957">
        <ele>26.09</ele>
        <time>2013-11-17T10:40:19Z</time>
      </trkpt>
      <trkpt lat="47.54663" lon="-0.59574">
        <ele>25.61</ele>
        <time>2013-11-17T10:40:20Z</time>
      </trkpt>
      <trkpt lat="47.54659" lon="-0.59577">
        <ele>25.61</ele>
        <time>2013-11-17T10:40:21Z</time>
      </trkpt>
      <trkpt lat="47.54655" lon="-0.59581">
        <ele>26.09</ele>
        <time>2013-11-17T10:40:22Z</time>
      </trkpt>
      <trkpt lat="47.54652" lon="-0.59586">
        <ele>25.61</ele>
        <time>2013-11-17T10:40:23Z</time>
      </trkpt>
      <trkpt lat="47.5463" lon="-0.59607">
        <ele>26.09</ele>
        <time>2013-11-17T10:40:30Z</time>
      </trkpt>
      <trkpt lat="47.54624" lon="-0.59619">
        <ele>25.61</ele>
        <time>2013-11-17T10:40:33Z</time>
      </trkpt>
      <trkpt lat="47.5463" lon="-0.59647">
        <ele>26.09</ele>
        <time>2013-11-17T10:40:39Z</time>
      </trkpt>
      <trkpt lat="47.54635" lon="-0.59662">
        <ele>25.61</ele>
        <time>2013-11-17T10:40:42Z</time>
      </trkpt>
      <trkpt lat="47.54643" lon="-0.59714">
        <ele>25.61</ele>
        <time>2013-11-17T10:40:51Z</time>
      </trkpt>
      <trkpt lat="47.54638" lon="-0.59753">
        <ele>26.09</ele>
        <time>2013-11-17T10:40:57Z</time>
      </trkpt>
      <trkpt lat="47.54625" lon="-0.59786">
        <ele>26.09</ele>
        <time>2013-11-17T10:41:03Z</time>
      </trkpt>
      <trkpt lat="47.54617" lon="-0.59801">
        <ele>26.09</ele>
        <time>2013-11-17T10:41:06Z</time>
      </trkpt>
      <trkpt lat="47.54609" lon="-0.59824">
        <ele>26.09</ele>
        <time>2013-11-17T10:41:10Z</time>
      </trkpt>
      <trkpt lat="47.54598" lon="-0.59861">
        <ele>26.09</ele>
        <time>2013-11-17T10:41:16Z</time>
      </trkpt>
      <trkpt lat="47.54593" lon="-0.59895">
        <ele>26.57</ele>
        <time>2013-11-17T10:41:21Z</time>
      </trkpt>
      <trkpt lat="47.54592" lon="-0.59916">
        <ele>26.57</ele>
        <time>2013-11-17T10:41:24Z</time>
      </trkpt>
      <trkpt lat="47.54592" lon="-0.59945">
        <ele>27.05</ele>
        <time>2013-11-17T10:41:28Z</time>
      </trkpt>
      <trkpt lat="47.54595" lon="-0.59972">
        <ele>26.57</ele>
        <time>2013-11-17T10:41:32Z</time>
      </trkpt>
      <trkpt lat="47.54597" lon="-0.59983">
        <ele>27.05</ele>
        <time>2013-11-17T10:41:34Z</time>
      </trkpt>
      <trkpt lat="47.546" lon="-0.60003">
        <ele>27.05</ele>
        <time>2013-11-17T10:41:37Z</time>
      </trkpt>
      <trkpt lat="47.54608" lon="-0.60029">
        <ele>27.05</ele>
        <time>2013-11-17T10:41:41Z</time>
      </trkpt>
      <trkpt lat="47.54614" lon="-0.60047">
        <ele>26.57</ele>
        <time>2013-11-17T10:41:44Z</time>
      </trkpt>
      <trkpt lat="47.5462" lon="-0.60079">
        <ele>26.57</ele>
        <time>2013-11-17T10:41:49Z</time>
      </trkpt>
      <trkpt lat="47.54628" lon="-0.6012">
        <ele>26.57</ele>
        <time>2013-11-17T10:41:55Z</time>
      </trkpt>
      <trkpt lat="47.54633" lon="-0.60142">
        <ele>26.09</ele>
        <time>2013-11-17T10:41:58Z</time>
      </trkpt>
      <trkpt lat="47.5464" lon="-0.60165">
        <ele>25.13</ele>
        <time>2013-11-17T10:42:01Z</time>
      </trkpt>
      <trkpt lat="47.54654" lon="-0.60209">
        <ele>23.69</ele>
        <time>2013-11-17T10:42:06Z</time>
      </trkpt>
      <trkpt lat="47.54645" lon="-0.60233">
        <ele>23.21</ele>
        <time>2013-11-17T10:42:09Z</time>
      </trkpt>
      <trkpt lat="47.54603" lon="-0.60285">
        <ele>22.73</ele>
        <time>2013-11-17T10:42:17Z</time>
      </trkpt>
      <trkpt lat="47.54584" lon="-0.60309">
        <ele>23.21</ele>
        <time>2013-11-17T10:42:21Z</time>
      </trkpt>
      <trkpt lat="47.54543" lon="-0.60333">
        <ele>24.17</ele>
        <time>2013-11-17T10:42:29Z</time>
      </trkpt>
      <trkpt lat="47.54481" lon="-0.60364">
        <ele>24.17</ele>
        <time>2013-11-17T10:42:41Z</time>
      </trkpt>
      <trkpt lat="47.5445" lon="-0.60389">
        <ele>23.21</ele>
        <time>2013-11-17T10:42:47Z</time>
      </trkpt>
      <trkpt lat="47.54395" lon="-0.60445">
        <ele>22.73</ele>
        <time>2013-11-17T10:42:59Z</time>
      </trkpt>
      <trkpt lat="47.54361" lon="-0.60485">
        <ele>22.25</ele>
        <time>2013-11-17T10:43:07Z</time>
      </trkpt>
      <trkpt lat="47.54348" lon="-0.60506">
        <ele>22.25</ele>
        <time>2013-11-17T10:43:11Z</time>
      </trkpt>
      <trkpt lat="47.54322" lon="-0.60559">
        <ele>22.25</ele>
        <time>2013-11-17T10:43:20Z</time>
      </trkpt>
      <trkpt lat="47.54294" lon="-0.60612">
        <ele>23.21</ele>
        <time>2013-11-17T10:43:29Z</time>
      </trkpt>
      <trkpt lat="47.54273" lon="-0.60645">
        <ele>23.21</ele>
        <time>2013-11-17T10:43:35Z</time>
      </trkpt>
      <trkpt lat="47.54239" lon="-0.60687">
        <ele>22.73</ele>
        <time>2013-11-17T10:43:43Z</time>
      </trkpt>
      <trkpt lat="47.54204" lon="-0.60728">
        <ele>20.81</ele>
        <time>2013-11-17T10:43:50Z</time>
      </trkpt>
      <trkpt lat="47.54199" lon="-0.60735">
        <ele>20.81</ele>
        <time>2013-11-17T10:43:51Z</time>
      </trkpt>
      <trkpt lat="47.54184" lon="-0.60776">
        <ele>20.81</ele>
        <time>2013-11-17T10:43:56Z</time>
      </trkpt>
      <trkpt lat="47.54173" lon="-0.60795">
        <ele>19.84</ele>
        <time>2013-11-17T10:43:59Z</time>
      </trkpt>
      <trkpt lat="47.54133" lon="-0.60834">
        <ele>19.84</ele>
        <time>2013-11-17T10:44:08Z</time>
      </trkpt>
      <trkpt lat="47.54129" lon="-0.60837">
        <ele>18.88</ele>
        <time>2013-11-17T10:44:09Z</time>
      </trkpt>
      <trkpt lat="47.54114" lon="-0.60846">
        <ele>19.36</ele>
        <time>2013-11-17T10:44:13Z</time>
      </trkpt>
      <trkpt lat="47.54116" lon="-0.60865">
        <ele>19.36</ele>
        <time>2013-11-17T10:44:17Z</time>
      </trkpt>
      <trkpt lat="47.54119" lon="-0.60876">
        <ele>19.84</ele>
        <time>2013-11-17T10:44:19Z</time>
      </trkpt>
      <trkpt lat="47.54122" lon="-0.60888">
        <ele>19.84</ele>
        <time>2013-11-17T10:44:21Z</time>
      </trkpt>
      <trkpt lat="47.54126" lon="-0.60917">
        <ele>19.36</ele>
        <time>2013-11-17T10:44:26Z</time>
      </trkpt>
      <trkpt lat="47.54127" lon="-0.60936">
        <ele>19.36</ele>
        <time>2013-11-17T10:44:31Z</time>
      </trkpt>
      <trkpt lat="47.54116" lon="-0.60955">
        <ele>18.88</ele>
        <time>2013-11-17T10:44:37Z</time>
      </trkpt>
      <trkpt lat="47.54105" lon="-0.60966">
        <ele>19.36</ele>
        <time>2013-11-17T10:44:40Z</time>
      </trkpt>
      <trkpt lat="47.54092" lon="-0.60975">
        <ele>19.84</ele>
        <time>2013-11-17T10:44:43Z</time>
      </trkpt>
      <trkpt lat="47.5407" lon="-0.60994">
        <ele>19.36</ele>
        <time>2013-11-17T10:44:48Z</time>
      </trkpt>
      <trkpt lat="47.54043" lon="-0.61027">
        <ele>18.88</ele>
        <time>2013-11-17T10:44:55Z</time>
      </trkpt>
      <trkpt lat="47.54034" lon="-0.61046">
        <ele>19.36</ele>
        <time>2013-11-17T10:44:58Z</time>
      </trkpt>
      <trkpt lat="47.54029" lon="-0.6106">
        <ele>19.36</ele>
        <time>2013-11-17T10:45:00Z</time>
      </trkpt>
      <trkpt lat="47.54025" lon="-0.61074">
        <ele>19.36</ele>
        <time>2013-11-17T10:45:02Z</time>
      </trkpt>
      <trkpt lat="47.54019" lon="-0.61105">
        <ele>19.36</ele>
        <time>2013-11-17T10:45:06Z</time>
      </trkpt>
      <trkpt lat="47.54015" lon="-0.61139">
        <ele>19.84</ele>
        <time>2013-11-17T10:45:10Z</time>
      </trkpt>
      <trkpt lat="47.54014" lon="-0.61157">
        <ele>19.84</ele>
        <time>2013-11-17T10:45:12Z</time>
      </trkpt>
      <trkpt lat="47.5401" lon="-0.61223">
        <ele>20.81</ele>
        <time>2013-11-17T10:45:19Z</time>
      </trkpt>
      <trkpt lat="47.54007" lon="-0.61316">
        <ele>21.29</ele>
        <time>2013-11-17T10:45:30Z</time>
      </trkpt>
      <trkpt lat="47.54005" lon="-0.61404">
        <ele>22.73</ele>
        <time>2013-11-17T10:45:41Z</time>
      </trkpt>
      <trkpt lat="47.54001" lon="-0.61492">
        <ele>21.29</ele>
        <time>2013-11-17T10:45:51Z</time>
      </trkpt>
      <trkpt lat="47.53994" lon="-0.61536">
        <ele>20.81</ele>
        <time>2013-11-17T10:45:56Z</time>
      </trkpt>
      <trkpt lat="47.53995" lon="-0.6157">
        <ele>20.81</ele>
        <time>2013-11-17T10:46:00Z</time>
      </trkpt>
      <trkpt lat="47.54014" lon="-0.61588">
        <ele>20.81</ele>
        <time>2013-11-17T10:46:04Z</time>
      </trkpt>
      <trkpt lat="47.54019" lon="-0.61587">
        <ele>20.32</ele>
        <time>2013-11-17T10:46:05Z</time>
      </trkpt>
      <trkpt lat="47.54052" lon="-0.61574">
        <ele>19.84</ele>
        <time>2013-11-17T10:46:11Z</time>
      </trkpt>
      <trkpt lat="47.54089" lon="-0.61561">
        <ele>20.81</ele>
        <time>2013-11-17T10:46:18Z</time>
      </trkpt>
      <trkpt lat="47.54118" lon="-0.61573">
        <ele>20.32</ele>
        <time>2013-11-17T10:46:24Z</time>
      </trkpt>
      <trkpt lat="47.54137" lon="-0.61589">
        <ele>19.84</ele>
        <time>2013-11-17T10:46:28Z</time>
      </trkpt>
      <trkpt lat="47.54146" lon="-0.61596">
        <ele>19.36</ele>
        <time>2013-11-17T10:46:30Z</time>
      </trkpt>
      <trkpt lat="47.5419" lon="-0.61631">
        <ele>19.36</ele>
        <time>2013-11-17T10:46:39Z</time>
      </trkpt>
      <trkpt lat="47.54233" lon="-0.61653">
        <ele>18.88</ele>
        <time>2013-11-17T10:46:47Z</time>
      </trkpt>
      <trkpt lat="47.54265" lon="-0.61667">
        <ele>19.36</ele>
        <time>2013-11-17T10:46:53Z</time>
      </trkpt>
      <trkpt lat="47.54281" lon="-0.61674">
        <ele>18.88</ele>
        <time>2013-11-17T10:46:56Z</time>
      </trkpt>
      <trkpt lat="47.54316" lon="-0.61687">
        <ele>18.88</ele>
        <time>2013-11-17T10:47:03Z</time>
      </trkpt>
      <trkpt lat="47.54348" lon="-0.617">
        <ele>19.36</ele>
        <time>2013-11-17T10:47:09Z</time>
      </trkpt>
      <trkpt lat="47.54378" lon="-0.61719">
        <ele>19.36</ele>
        <time>2013-11-17T10:47:15Z</time>
      </trkpt>
      <trkpt lat="47.5439" lon="-0.61755">
        <ele>19.36</ele>
        <time>2013-11-17T10:47:20Z</time>
      </trkpt>
      <trkpt lat="47.5439" lon="-0.61773">
        <ele>18.88</ele>
        <time>2013-11-17T10:47:22Z</time>
      </trkpt>
      <trkpt lat="47.54381" lon="-0.61858">
        <ele>18.88</ele>
        <time>2013-11-17T10:47:32Z</time>
      </trkpt>
      <trkpt lat="47.54372" lon="-0.61902">
        <ele>18.4</ele>
        <time>2013-11-17T10:47:37Z</time>
      </trkpt>
      <trkpt lat="47.54371" lon="-0.61919">
        <ele>18.88</ele>
        <time>2013-11-17T10:47:39Z</time>
      </trkpt>
      <trkpt lat="47.5437" lon="-0.61969">
        <ele>19.84</ele>
        <time>2013-11-17T10:47:45Z</time>
      </trkpt>
      <trkpt lat="47.54359" lon="-0.62034">
        <ele>20.32</ele>
        <time>2013-11-17T10:47:53Z</time>
      </trkpt>
      <trkpt lat="47.54356" lon="-0.62059">
        <ele>20.32</ele>
        <time>2013-11-17T10:47:56Z</time>
      </trkpt>
      <trkpt lat="47.54352" lon="-0.62127">
        <ele>20.81</ele>
        <time>2013-11-17T10:48:04Z</time>
      </trkpt>
      <trkpt lat="47.54352" lon="-0.62197">
        <ele>21.77</ele>
        <time>2013-11-17T10:48:12Z</time>
      </trkpt>
      <trkpt lat="47.54355" lon="-0.62295">
        <ele>23.21</ele>
        <time>2013-11-17T10:48:23Z</time>
      </trkpt>
      <trkpt lat="47.54355" lon="-0.62347">
        <ele>23.21</ele>
        <time>2013-11-17T10:48:29Z</time>
      </trkpt>
      <trkpt lat="47.54356" lon="-0.62363">
        <ele>23.69</ele>
        <time>2013-11-17T10:48:31Z</time>
      </trkpt>
      <trkpt lat="47.54372" lon="-0.62432">
        <ele>24.65</ele>
        <time>2013-11-17T10:48:40Z</time>
      </trkpt>
      <trkpt lat="47.54389" lon="-0.62495">
        <ele>25.13</ele>
        <time>2013-11-17T10:48:49Z</time>
      </trkpt>
      <trkpt lat="47.5439" lon="-0.62503">
        <ele>25.13</ele>
        <time>2013-11-17T10:48:50Z</time>
      </trkpt>
      <trkpt lat="47.54391" lon="-0.62556">
        <ele>26.57</ele>
        <time>2013-11-17T10:48:57Z</time>
      </trkpt>
      <trkpt lat="47.5438" lon="-0.62625">
        <ele>27.05</ele>
        <time>2013-11-17T10:49:06Z</time>
      </trkpt>
      <trkpt lat="47.54376" lon="-0.62695">
        <ele>28.5</ele>
        <time>2013-11-17T10:49:14Z</time>
      </trkpt>
      <trkpt lat="47.54371" lon="-0.62729">
        <ele>29.46</ele>
        <time>2013-11-17T10:49:19Z</time>
      </trkpt>
      <trkpt lat="47.54355" lon="-0.62777">
        <ele>30.42</ele>
        <time>2013-11-17T10:49:28Z</time>
      </trkpt>
      <trkpt lat="47.54337" lon="-0.62826">
        <ele>31.38</ele>
        <time>2013-11-17T10:49:38Z</time>
      </trkpt>
      <trkpt lat="47.54319" lon="-0.62873">
        <ele>32.34</ele>
        <time>2013-11-17T10:49:47Z</time>
      </trkpt>
      <trkpt lat="47.54301" lon="-0.62918">
        <ele>32.82</ele>
        <time>2013-11-17T10:49:56Z</time>
      </trkpt>
      <trkpt lat="47.54292" lon="-0.62939">
        <ele>33.78</ele>
        <time>2013-11-17T10:50:00Z</time>
      </trkpt>
      <trkpt lat="47.54274" lon="-0.62989">
        <ele>35.23</ele>
        <time>2013-11-17T10:50:10Z</time>
      </trkpt>
      <trkpt lat="47.5426" lon="-0.63038">
        <ele>37.15</ele>
        <time>2013-11-17T10:50:20Z</time>
      </trkpt>
      <trkpt lat="47.54253" lon="-0.6307">
        <ele>38.11</ele>
        <time>2013-11-17T10:50:27Z</time>
      </trkpt>
      <trkpt lat="47.54247" lon="-0.63101">
        <ele>39.55</ele>
        <time>2013-11-17T10:50:34Z</time>
      </trkpt>
      <trkpt lat="47.54239" lon="-0.6314">
        <ele>40.51</ele>
        <time>2013-11-17T10:50:43Z</time>
      </trkpt>
      <trkpt lat="47.54233" lon="-0.63171">
        <ele>41.95</ele>
        <time>2013-11-17T10:50:50Z</time>
      </trkpt>
      <trkpt lat="47.54227" lon="-0.63208">
        <ele>42.92</ele>
        <time>2013-11-17T10:50:59Z</time>
      </trkpt>
      <trkpt lat="47.54223" lon="-0.63231">
        <ele>43.88</ele>
        <time>2013-11-17T10:51:05Z</time>
      </trkpt>
      <trkpt lat="47.54218" lon="-0.63252">
        <ele>44.84</ele>
        <time>2013-11-17T10:51:11Z</time>
      </trkpt>
      <trkpt lat="47.54214" lon="-0.63275">
        <ele>45.8</ele>
        <time>2013-11-17T10:51:17Z</time>
      </trkpt>
      <trkpt lat="47.54209" lon="-0.63304">
        <ele>46.28</ele>
        <time>2013-11-17T10:51:24Z</time>
      </trkpt>
      <trkpt lat="47.54202" lon="-0.63334">
        <ele>48.2</ele>
        <time>2013-11-17T10:51:32Z</time>
      </trkpt>
      <trkpt lat="47.54195" lon="-0.63367">
        <ele>49.65</ele>
        <time>2013-11-17T10:51:41Z</time>
      </trkpt>
      <trkpt lat="47.54189" lon="-0.63395">
        <ele>50.61</ele>
        <time>2013-11-17T10:51:49Z</time>
      </trkpt>
      <trkpt lat="47.54183" lon="-0.63423">
        <ele>51.57</ele>
        <time>2013-11-17T10:51:56Z</time>
      </trkpt>
      <trkpt lat="47.54179" lon="-0.63433">
        <ele>52.53</ele>
        <time>2013-11-17T10:51:59Z</time>
      </trkpt>
      <trkpt lat="47.54176" lon="-0.63438">
        <ele>52.53</ele>
        <time>2013-11-17T10:52:01Z</time>
      </trkpt>
      <trkpt lat="47.54164" lon="-0.63458">
        <ele>53.49</ele>
        <time>2013-11-17T10:52:08Z</time>
      </trkpt>
      <trkpt lat="47.54155" lon="-0.63469">
        <ele>53.97</ele>
        <time>2013-11-17T10:52:13Z</time>
      </trkpt>
      <trkpt lat="47.54141" lon="-0.63486">
        <ele>54.93</ele>
        <time>2013-11-17T10:52:20Z</time>
      </trkpt>
      <trkpt lat="47.54126" lon="-0.63504">
        <ele>55.89</ele>
        <time>2013-11-17T10:52:27Z</time>
      </trkpt>
      <trkpt lat="47.54109" lon="-0.63524">
        <ele>55.89</ele>
        <time>2013-11-17T10:52:35Z</time>
      </trkpt>
      <trkpt lat="47.54091" lon="-0.63545">
        <ele>56.37</ele>
        <time>2013-11-17T10:52:43Z</time>
      </trkpt>
      <trkpt lat="47.54075" lon="-0.63567">
        <ele>56.86</ele>
        <time>2013-11-17T10:52:50Z</time>
      </trkpt>
      <trkpt lat="47.54056" lon="-0.63589">
        <ele>57.34</ele>
        <time>2013-11-17T10:52:58Z</time>
      </trkpt>
      <trkpt lat="47.54036" lon="-0.6361">
        <ele>58.3</ele>
        <time>2013-11-17T10:53:06Z</time>
      </trkpt>
      <trkpt lat="47.54012" lon="-0.63638">
        <ele>58.3</ele>
        <time>2013-11-17T10:53:16Z</time>
      </trkpt>
      <trkpt lat="47.53996" lon="-0.63657">
        <ele>58.78</ele>
        <time>2013-11-17T10:53:23Z</time>
      </trkpt>
      <trkpt lat="47.53969" lon="-0.63688">
        <ele>59.26</ele>
        <time>2013-11-17T10:53:32Z</time>
      </trkpt>
      <trkpt lat="47.53943" lon="-0.63718">
        <ele>60.7</ele>
        <time>2013-11-17T10:53:41Z</time>
      </trkpt>
      <trkpt lat="47.5393" lon="-0.63732">
        <ele>60.7</ele>
        <time>2013-11-17T10:53:45Z</time>
      </trkpt>
      <trkpt lat="47.53917" lon="-0.63746">
        <ele>60.7</ele>
        <time>2013-11-17T10:53:49Z</time>
      </trkpt>
      <trkpt lat="47.53911" lon="-0.63753">
        <ele>60.7</ele>
        <time>2013-11-17T10:53:51Z</time>
      </trkpt>
      <trkpt lat="47.53884" lon="-0.63779">
        <ele>60.7</ele>
        <time>2013-11-17T10:53:59Z</time>
      </trkpt>
      <trkpt lat="47.53856" lon="-0.63793">
        <ele>62.62</ele>
        <time>2013-11-17T10:54:07Z</time>
      </trkpt>
      <trkpt lat="47.53836" lon="-0.63807">
        <ele>63.58</ele>
        <time>2013-11-17T10:54:13Z</time>
      </trkpt>
      <trkpt lat="47.53832" lon="-0.63814">
        <ele>64.07</ele>
        <time>2013-11-17T10:54:18Z</time>
      </trkpt>
      <trkpt lat="47.53832" lon="-0.63814">
        <ele>64.07</ele>
        <time>2013-11-17T10:54:20Z</time>
      </trkpt>
      <trkpt lat="47.5383" lon="-0.63818">
        <ele>64.07</ele>
        <time>2013-11-17T10:54:23Z</time>
      </trkpt>
      <trkpt lat="47.53818" lon="-0.63838">
        <ele>64.07</ele>
        <time>2013-11-17T10:54:30Z</time>
      </trkpt>
      <trkpt lat="47.53804" lon="-0.6387">
        <ele>65.03</ele>
        <time>2013-11-17T10:54:38Z</time>
      </trkpt>
      <trkpt lat="47.53787" lon="-0.63898">
        <ele>66.95</ele>
        <time>2013-11-17T10:54:46Z</time>
      </trkpt>
      <trkpt lat="47.5376" lon="-0.6393">
        <ele>67.43</ele>
        <time>2013-11-17T10:54:56Z</time>
      </trkpt>
      <trkpt lat="47.53743" lon="-0.63949">
        <ele>67.91</ele>
        <time>2013-11-17T10:55:02Z</time>
      </trkpt>
      <trkpt lat="47.53718" lon="-0.63979">
        <ele>69.35</ele>
        <time>2013-11-17T10:55:11Z</time>
      </trkpt>
      <trkpt lat="47.53695" lon="-0.64006">
        <ele>69.83</ele>
        <time>2013-11-17T10:55:19Z</time>
      </trkpt>
      <trkpt lat="47.53679" lon="-0.64032">
        <ele>69.35</ele>
        <time>2013-11-17T10:55:26Z</time>
      </trkpt>
      <trkpt lat="47.53679" lon="-0.64064">
        <ele>69.83</ele>
        <time>2013-11-17T10:55:33Z</time>
      </trkpt>
      <trkpt lat="47.53684" lon="-0.64089">
        <ele>69.35</ele>
        <time>2013-11-17T10:55:40Z</time>
      </trkpt>
      <trkpt lat="47.53684" lon="-0.6409">
        <ele>69.83</ele>
        <time>2013-11-17T10:55:45Z</time>
      </trkpt>
      <trkpt lat="47.53684" lon="-0.6409">
        <ele>69.35</ele>
        <time>2013-11-17T10:56:00Z</time>
      </trkpt>
      <trkpt lat="47.53686" lon="-0.64092">
        <ele>69.83</ele>
        <time>2013-11-17T10:56:08Z</time>
      </trkpt>
      <trkpt lat="47.53687" lon="-0.64091">
        <ele>69.83</ele>
        <time>2013-11-17T10:56:17Z</time>
      </trkpt>
      <trkpt lat="47.53687" lon="-0.64091">
        <ele>69.83</ele>
        <time>2013-11-17T10:56:22Z</time>
      </trkpt>
      <trkpt lat="47.53688" lon="-0.64103">
        <ele>69.35</ele>
        <time>2013-11-17T10:56:26Z</time>
      </trkpt>
      <trkpt lat="47.53698" lon="-0.64159">
        <ele>70.31</ele>
        <time>2013-11-17T10:56:34Z</time>
      </trkpt>
      <trkpt lat="47.53702" lon="-0.64189">
        <ele>70.31</ele>
        <time>2013-11-17T10:56:38Z</time>
      </trkpt>
      <trkpt lat="47.5372" lon="-0.64268">
        <ele>70.79</ele>
        <time>2013-11-17T10:56:49Z</time>
      </trkpt>
      <trkpt lat="47.53734" lon="-0.64331">
        <ele>70.79</ele>
        <time>2013-11-17T10:56:58Z</time>
      </trkpt>
      <trkpt lat="47.53749" lon="-0.64404">
        <ele>71.76</ele>
        <time>2013-11-17T10:57:08Z</time>
      </trkpt>
      <trkpt lat="47.53766" lon="-0.64464">
        <ele>71.76</ele>
        <time>2013-11-17T10:57:16Z</time>
      </trkpt>
      <trkpt lat="47.53785" lon="-0.64534">
        <ele>73.2</ele>
        <time>2013-11-17T10:57:26Z</time>
      </trkpt>
      <trkpt lat="47.53797" lon="-0.64581">
        <ele>74.16</ele>
        <time>2013-11-17T10:57:33Z</time>
      </trkpt>
      <trkpt lat="47.53805" lon="-0.64628">
        <ele>74.64</ele>
        <time>2013-11-17T10:57:41Z</time>
      </trkpt>
      <trkpt lat="47.53807" lon="-0.64634">
        <ele>74.16</ele>
        <time>2013-11-17T10:57:42Z</time>
      </trkpt>
      <trkpt lat="47.53812" lon="-0.64678">
        <ele>75.12</ele>
        <time>2013-11-17T10:57:49Z</time>
      </trkpt>
      <trkpt lat="47.53818" lon="-0.64724">
        <ele>75.6</ele>
        <time>2013-11-17T10:57:57Z</time>
      </trkpt>
      <trkpt lat="47.53825" lon="-0.64781">
        <ele>76.08</ele>
        <time>2013-11-17T10:58:06Z</time>
      </trkpt>
      <trkpt lat="47.5383" lon="-0.64807">
        <ele>76.08</ele>
        <time>2013-11-17T10:58:10Z</time>
      </trkpt>
      <trkpt lat="47.53837" lon="-0.64839">
        <ele>77.04</ele>
        <time>2013-11-17T10:58:15Z</time>
      </trkpt>
      <trkpt lat="47.5384" lon="-0.64858">
        <ele>76.56</ele>
        <time>2013-11-17T10:58:18Z</time>
      </trkpt>
      <trkpt lat="47.53853" lon="-0.64913">
        <ele>77.04</ele>
        <time>2013-11-17T10:58:27Z</time>
      </trkpt>
      <trkpt lat="47.53871" lon="-0.64982">
        <ele>78</ele>
        <time>2013-11-17T10:58:38Z</time>
      </trkpt>
      <trkpt lat="47.53894" lon="-0.65054">
        <ele>78.48</ele>
        <time>2013-11-17T10:58:50Z</time>
      </trkpt>
      <trkpt lat="47.53922" lon="-0.65138">
        <ele>78.48</ele>
        <time>2013-11-17T10:59:03Z</time>
      </trkpt>
      <trkpt lat="47.53939" lon="-0.652">
        <ele>78.97</ele>
        <time>2013-11-17T10:59:12Z</time>
      </trkpt>
      <trkpt lat="47.53945" lon="-0.65266">
        <ele>79.45</ele>
        <time>2013-11-17T10:59:21Z</time>
      </trkpt>
      <trkpt lat="47.53948" lon="-0.65327">
        <ele>79.45</ele>
        <time>2013-11-17T10:59:30Z</time>
      </trkpt>
      <trkpt lat="47.5395" lon="-0.65368">
        <ele>80.41</ele>
        <time>2013-11-17T10:59:37Z</time>
      </trkpt>
      <trkpt lat="47.53957" lon="-0.6542">
        <ele>81.37</ele>
        <time>2013-11-17T10:59:45Z</time>
      </trkpt>
      <trkpt lat="47.53967" lon="-0.65471">
        <ele>82.33</ele>
        <time>2013-11-17T10:59:54Z</time>
      </trkpt>
      <trkpt lat="47.53974" lon="-0.65509">
        <ele>82.33</ele>
        <time>2013-11-17T11:00:01Z</time>
      </trkpt>
      <trkpt lat="47.53976" lon="-0.6553">
        <ele>82.33</ele>
        <time>2013-11-17T11:00:05Z</time>
      </trkpt>
      <trkpt lat="47.53979" lon="-0.65575">
        <ele>83.29</ele>
        <time>2013-11-17T11:00:12Z</time>
      </trkpt>
      <trkpt lat="47.53982" lon="-0.6563">
        <ele>84.25</ele>
        <time>2013-11-17T11:00:21Z</time>
      </trkpt>
      <trkpt lat="47.53986" lon="-0.65701">
        <ele>84.25</ele>
        <time>2013-11-17T11:00:32Z</time>
      </trkpt>
      <trkpt lat="47.53987" lon="-0.65729">
        <ele>84.25</ele>
        <time>2013-11-17T11:00:37Z</time>
      </trkpt>
      <trkpt lat="47.53989" lon="-0.65755">
        <ele>84.25</ele>
        <time>2013-11-17T11:00:41Z</time>
      </trkpt>
      <trkpt lat="47.53993" lon="-0.65807">
        <ele>84.25</ele>
        <time>2013-11-17T11:00:49Z</time>
      </trkpt>
      <trkpt lat="47.54001" lon="-0.65868">
        <ele>84.73</ele>
        <time>2013-11-17T11:00:59Z</time>
      </trkpt>
      <trkpt lat="47.5401" lon="-0.65917">
        <ele>84.73</ele>
        <time>2013-11-17T11:01:07Z</time>
      </trkpt>
      <trkpt lat="47.54012" lon="-0.65923">
        <ele>85.21</ele>
        <time>2013-11-17T11:01:08Z</time>
      </trkpt>
      <trkpt lat="47.54016" lon="-0.65941">
        <ele>84.73</ele>
        <time>2013-11-17T11:01:11Z</time>
      </trkpt>
      <trkpt lat="47.54019" lon="-0.65954">
        <ele>84.73</ele>
        <time>2013-11-17T11:01:13Z</time>
      </trkpt>
      <trkpt lat="47.5403" lon="-0.66007">
        <ele>84.73</ele>
        <time>2013-11-17T11:01:22Z</time>
      </trkpt>
      <trkpt lat="47.54041" lon="-0.66072">
        <ele>85.21</ele>
        <time>2013-11-17T11:01:32Z</time>
      </trkpt>
      <trkpt lat="47.54053" lon="-0.66139">
        <ele>85.21</ele>
        <time>2013-11-17T11:01:42Z</time>
      </trkpt>
      <trkpt lat="47.54057" lon="-0.66161">
        <ele>85.69</ele>
        <time>2013-11-17T11:01:46Z</time>
      </trkpt>
      <trkpt lat="47.54063" lon="-0.66187">
        <ele>85.69</ele>
        <time>2013-11-17T11:01:50Z</time>
      </trkpt>
      <trkpt lat="47.54076" lon="-0.66245">
        <ele>85.69</ele>
        <time>2013-11-17T11:01:59Z</time>
      </trkpt>
      <trkpt lat="47.54087" lon="-0.66315">
        <ele>86.18</ele>
        <time>2013-11-17T11:02:10Z</time>
      </trkpt>
      <trkpt lat="47.54094" lon="-0.66378">
        <ele>86.18</ele>
        <time>2013-11-17T11:02:20Z</time>
      </trkpt>
      <trkpt lat="47.54097" lon="-0.66405">
        <ele>86.18</ele>
        <time>2013-11-17T11:02:24Z</time>
      </trkpt>
      <trkpt lat="47.54107" lon="-0.66491">
        <ele>85.69</ele>
        <time>2013-11-17T11:02:36Z</time>
      </trkpt>
      <trkpt lat="47.54116" lon="-0.66563">
        <ele>85.69</ele>
        <time>2013-11-17T11:02:46Z</time>
      </trkpt>
      <trkpt lat="47.54119" lon="-0.66593">
        <ele>85.69</ele>
        <time>2013-11-17T11:02:50Z</time>
      </trkpt>
      <trkpt lat="47.54132" lon="-0.66689">
        <ele>86.18</ele>
        <time>2013-11-17T11:03:03Z</time>
      </trkpt>
      <trkpt lat="47.54138" lon="-0.66732">
        <ele>86.18</ele>
        <time>2013-11-17T11:03:09Z</time>
      </trkpt>
      <trkpt lat="47.54146" lon="-0.66765">
        <ele>87.14</ele>
        <time>2013-11-17T11:03:14Z</time>
      </trkpt>
      <trkpt lat="47.54172" lon="-0.66831">
        <ele>87.14</ele>
        <time>2013-11-17T11:03:25Z</time>
      </trkpt>
      <trkpt lat="47.54194" lon="-0.66888">
        <ele>87.62</ele>
        <time>2013-11-17T11:03:34Z</time>
      </trkpt>
      <trkpt lat="47.54196" lon="-0.66895">
        <ele>87.62</ele>
        <time>2013-11-17T11:03:35Z</time>
      </trkpt>
      <trkpt lat="47.5421" lon="-0.6694">
        <ele>87.62</ele>
        <time>2013-11-17T11:03:42Z</time>
      </trkpt>
      <trkpt lat="47.5422" lon="-0.66982">
        <ele>87.62</ele>
        <time>2013-11-17T11:03:48Z</time>
      </trkpt>
      <trkpt lat="47.54223" lon="-0.67011">
        <ele>87.62</ele>
        <time>2013-11-17T11:03:52Z</time>
      </trkpt>
      <trkpt lat="47.54227" lon="-0.67038">
        <ele>87.62</ele>
        <time>2013-11-17T11:03:56Z</time>
      </trkpt>
      <trkpt lat="47.54227" lon="-0.67061">
        <ele>88.1</ele>
        <time>2013-11-17T11:03:59Z</time>
      </trkpt>
      <trkpt lat="47.54225" lon="-0.67116">
        <ele>87.62</ele>
        <time>2013-11-17T11:04:06Z</time>
      </trkpt>
      <trkpt lat="47.54226" lon="-0.67153">
        <ele>88.1</ele>
        <time>2013-11-17T11:04:11Z</time>
      </trkpt>
      <trkpt lat="47.54228" lon="-0.67167">
        <ele>88.1</ele>
        <time>2013-11-17T11:04:13Z</time>
      </trkpt>
      <trkpt lat="47.54244" lon="-0.67231">
        <ele>89.06</ele>
        <time>2013-11-17T11:04:23Z</time>
      </trkpt>
      <trkpt lat="47.54263" lon="-0.67257">
        <ele>88.1</ele>
        <time>2013-11-17T11:04:29Z</time>
      </trkpt>
      <trkpt lat="47.54296" lon="-0.67297">
        <ele>87.62</ele>
        <time>2013-11-17T11:04:37Z</time>
      </trkpt>
      <trkpt lat="47.54306" lon="-0.67306">
        <ele>87.62</ele>
        <time>2013-11-17T11:04:39Z</time>
      </trkpt>
      <trkpt lat="47.54354" lon="-0.67351">
        <ele>86.18</ele>
        <time>2013-11-17T11:04:49Z</time>
      </trkpt>
      <trkpt lat="47.54367" lon="-0.67367">
        <ele>85.21</ele>
        <time>2013-11-17T11:04:52Z</time>
      </trkpt>
      <trkpt lat="47.5438" lon="-0.67384">
        <ele>85.69</ele>
        <time>2013-11-17T11:04:55Z</time>
      </trkpt>
      <trkpt lat="47.54394" lon="-0.67396">
        <ele>84.25</ele>
        <time>2013-11-17T11:05:00Z</time>
      </trkpt>
      <trkpt lat="47.54397" lon="-0.67387">
        <ele>84.25</ele>
        <time>2013-11-17T11:05:03Z</time>
      </trkpt>
      <trkpt lat="47.54397" lon="-0.67385">
        <ele>84.25</ele>
        <time>2013-11-17T11:05:08Z</time>
      </trkpt>
      <trkpt lat="47.54397" lon="-0.67385">
        <ele>84.25</ele>
        <time>2013-11-17T11:05:19Z</time>
      </trkpt>
    </trkseg>
  </trk>
</gpx>